<?xml version="1.0" encoding="UTF-8" standalone="no" ?>
<gpx xmlns="http://www.topografix.com/GPX/1/1" xmlns:xsi="http://www.w3.org/2001/XMLSchema-instance" xsi:schemaLocation="http://www.topografix.com/GPX/1/1 http://www.topografix.com/GPX/1/1/gpx.xsd" version="1.1" creator="VisuGPX - https://www.visugpx.com">
  <metadata>
    <name>2017-05-29 Pinet Belles Ombres</name>
    <desc><![CDATA[Passage par le pilier ouest direct du Pinet puis découverte de l'arche de Belles Ombres]]></desc>
  </metadata>
  <trk>
    <name><![CDATA[2017-05-29 Arche de Belles Ombres]]></name>
    <trkseg>
      <trkpt lat="45.44143" lon="5.90567">
        <ele>1129.4759521484</ele>
        <time>2017-05-29T05:01:51Z</time>
      </trkpt>
      <trkpt lat="45.44121" lon="5.90559">
        <ele>1083.4759521484</ele>
        <time>2017-05-29T05:01:55Z</time>
      </trkpt>
      <trkpt lat="45.44131" lon="5.90563">
        <ele>1091.4759521484</ele>
        <time>2017-05-29T05:01:57Z</time>
      </trkpt>
      <trkpt lat="45.44127" lon="5.90555">
        <ele>1119.4759521484</ele>
        <time>2017-05-29T05:02:02Z</time>
      </trkpt>
      <trkpt lat="45.4411" lon="5.9056">
        <ele>1127.4759521484</ele>
        <time>2017-05-29T05:02:08Z</time>
      </trkpt>
      <trkpt lat="45.4412" lon="5.90566">
        <ele>1128.4759521484</ele>
        <time>2017-05-29T05:02:10Z</time>
      </trkpt>
      <trkpt lat="45.44102" lon="5.90568">
        <ele>1120.4759521484</ele>
        <time>2017-05-29T05:02:17Z</time>
      </trkpt>
      <trkpt lat="45.4409" lon="5.90558">
        <ele>1079.4759521484</ele>
        <time>2017-05-29T05:02:22Z</time>
      </trkpt>
      <trkpt lat="45.44083" lon="5.90547">
        <ele>1085.4759521484</ele>
        <time>2017-05-29T05:02:23Z</time>
      </trkpt>
      <trkpt lat="45.44113" lon="5.90584">
        <ele>1106.4759521484</ele>
        <time>2017-05-29T05:02:27Z</time>
      </trkpt>
      <trkpt lat="45.44127" lon="5.9059">
        <ele>1140.4759521484</ele>
        <time>2017-05-29T05:02:28Z</time>
      </trkpt>
      <trkpt lat="45.44142" lon="5.90612">
        <ele>1128.4759521484</ele>
        <time>2017-05-29T05:02:33Z</time>
      </trkpt>
      <trkpt lat="45.44147" lon="5.90623">
        <ele>1112.4759521484</ele>
        <time>2017-05-29T05:02:35Z</time>
      </trkpt>
      <trkpt lat="45.44146" lon="5.90602">
        <ele>1117.4759521484</ele>
        <time>2017-05-29T05:02:39Z</time>
      </trkpt>
      <trkpt lat="45.44151" lon="5.90591">
        <ele>1115.4759521484</ele>
        <time>2017-05-29T05:02:47Z</time>
      </trkpt>
      <trkpt lat="45.44144" lon="5.90581">
        <ele>1111.4759521484</ele>
        <time>2017-05-29T05:03:17Z</time>
      </trkpt>
      <trkpt lat="45.44129" lon="5.90583">
        <ele>1103.4759521484</ele>
        <time>2017-05-29T05:03:22Z</time>
      </trkpt>
      <trkpt lat="45.4412" lon="5.90585">
        <ele>1104.4759521484</ele>
        <time>2017-05-29T05:03:25Z</time>
      </trkpt>
      <trkpt lat="45.44111" lon="5.90588">
        <ele>1101.4759521484</ele>
        <time>2017-05-29T05:03:34Z</time>
      </trkpt>
      <trkpt lat="45.44103" lon="5.90596">
        <ele>1103.4759521484</ele>
        <time>2017-05-29T05:03:39Z</time>
      </trkpt>
      <trkpt lat="45.44093" lon="5.906">
        <ele>1104.4759521484</ele>
        <time>2017-05-29T05:03:44Z</time>
      </trkpt>
      <trkpt lat="45.44092" lon="5.90613">
        <ele>1108.4759521484</ele>
        <time>2017-05-29T05:03:52Z</time>
      </trkpt>
      <trkpt lat="45.44085" lon="5.90622">
        <ele>1107.4759521484</ele>
        <time>2017-05-29T05:03:57Z</time>
      </trkpt>
      <trkpt lat="45.44078" lon="5.9063">
        <ele>1110.4759521484</ele>
        <time>2017-05-29T05:04:07Z</time>
      </trkpt>
      <trkpt lat="45.44074" lon="5.9064">
        <ele>1108.4759521484</ele>
        <time>2017-05-29T05:04:12Z</time>
      </trkpt>
      <trkpt lat="45.44073" lon="5.90651">
        <ele>1109.4759521484</ele>
        <time>2017-05-29T05:04:17Z</time>
      </trkpt>
      <trkpt lat="45.4407" lon="5.90661">
        <ele>1113.4759521484</ele>
        <time>2017-05-29T05:04:25Z</time>
      </trkpt>
      <trkpt lat="45.44065" lon="5.90687">
        <ele>1114.4759521484</ele>
        <time>2017-05-29T05:04:40Z</time>
      </trkpt>
      <trkpt lat="45.44062" lon="5.90707">
        <ele>1116.4759521484</ele>
        <time>2017-05-29T05:04:52Z</time>
      </trkpt>
      <trkpt lat="45.44059" lon="5.90719">
        <ele>1110.4759521484</ele>
        <time>2017-05-29T05:04:59Z</time>
      </trkpt>
      <trkpt lat="45.44051" lon="5.90752">
        <ele>1120.4759521484</ele>
        <time>2017-05-29T05:05:20Z</time>
      </trkpt>
      <trkpt lat="45.44058" lon="5.90775">
        <ele>1131.4759521484</ele>
        <time>2017-05-29T05:05:30Z</time>
      </trkpt>
      <trkpt lat="45.44066" lon="5.90784">
        <ele>1134.4759521484</ele>
        <time>2017-05-29T05:05:40Z</time>
      </trkpt>
      <trkpt lat="45.4407" lon="5.90795">
        <ele>1138.4759521484</ele>
        <time>2017-05-29T05:05:45Z</time>
      </trkpt>
      <trkpt lat="45.44084" lon="5.90814">
        <ele>1145.4759521484</ele>
        <time>2017-05-29T05:05:59Z</time>
      </trkpt>
      <trkpt lat="45.44086" lon="5.90845">
        <ele>1148.4759521484</ele>
        <time>2017-05-29T05:06:20Z</time>
      </trkpt>
      <trkpt lat="45.44078" lon="5.90849">
        <ele>1144.4759521484</ele>
        <time>2017-05-29T05:06:27Z</time>
      </trkpt>
      <trkpt lat="45.44074" lon="5.9086">
        <ele>1139.4759521484</ele>
        <time>2017-05-29T05:06:35Z</time>
      </trkpt>
      <trkpt lat="45.44071" lon="5.90871">
        <ele>1138.4759521484</ele>
        <time>2017-05-29T05:06:42Z</time>
      </trkpt>
      <trkpt lat="45.44067" lon="5.90881">
        <ele>1139.4759521484</ele>
        <time>2017-05-29T05:06:49Z</time>
      </trkpt>
      <trkpt lat="45.44064" lon="5.90891">
        <ele>1137.4759521484</ele>
        <time>2017-05-29T05:06:54Z</time>
      </trkpt>
      <trkpt lat="45.4406" lon="5.90902">
        <ele>1137.4759521484</ele>
        <time>2017-05-29T05:07:00Z</time>
      </trkpt>
      <trkpt lat="45.44049" lon="5.9092">
        <ele>1139.4759521484</ele>
        <time>2017-05-29T05:07:12Z</time>
      </trkpt>
      <trkpt lat="45.44048" lon="5.9093">
        <ele>1140.4759521484</ele>
        <time>2017-05-29T05:07:22Z</time>
      </trkpt>
      <trkpt lat="45.44039" lon="5.90926">
        <ele>1143.4759521484</ele>
        <time>2017-05-29T05:07:37Z</time>
      </trkpt>
      <trkpt lat="45.4403" lon="5.90923">
        <ele>1143.4759521484</ele>
        <time>2017-05-29T05:07:44Z</time>
      </trkpt>
      <trkpt lat="45.44021" lon="5.90916">
        <ele>1145.4759521484</ele>
        <time>2017-05-29T05:07:52Z</time>
      </trkpt>
      <trkpt lat="45.44013" lon="5.90911">
        <ele>1144.4759521484</ele>
        <time>2017-05-29T05:07:59Z</time>
      </trkpt>
      <trkpt lat="45.44004" lon="5.90909">
        <ele>1146.4759521484</ele>
        <time>2017-05-29T05:08:04Z</time>
      </trkpt>
      <trkpt lat="45.43997" lon="5.90909">
        <ele>1146.4759521484</ele>
        <time>2017-05-29T05:08:10Z</time>
      </trkpt>
      <trkpt lat="45.43988" lon="5.90912">
        <ele>1148.4759521484</ele>
        <time>2017-05-29T05:08:17Z</time>
      </trkpt>
      <trkpt lat="45.43979" lon="5.90913">
        <ele>1149.4759521484</ele>
        <time>2017-05-29T05:08:25Z</time>
      </trkpt>
      <trkpt lat="45.43972" lon="5.90918">
        <ele>1149.4759521484</ele>
        <time>2017-05-29T05:08:32Z</time>
      </trkpt>
      <trkpt lat="45.43964" lon="5.90922">
        <ele>1149.4759521484</ele>
        <time>2017-05-29T05:08:39Z</time>
      </trkpt>
      <trkpt lat="45.43955" lon="5.90922">
        <ele>1149.4759521484</ele>
        <time>2017-05-29T05:08:44Z</time>
      </trkpt>
      <trkpt lat="45.43947" lon="5.90921">
        <ele>1154.4759521484</ele>
        <time>2017-05-29T05:08:52Z</time>
      </trkpt>
      <trkpt lat="45.43939" lon="5.9092">
        <ele>1155.4759521484</ele>
        <time>2017-05-29T05:08:59Z</time>
      </trkpt>
      <trkpt lat="45.43925" lon="5.90904">
        <ele>1159.4759521484</ele>
        <time>2017-05-29T05:09:20Z</time>
      </trkpt>
      <trkpt lat="45.439" lon="5.90875">
        <ele>1159.4759521484</ele>
        <time>2017-05-29T05:09:40Z</time>
      </trkpt>
      <trkpt lat="45.43892" lon="5.90877">
        <ele>1160.4759521484</ele>
        <time>2017-05-29T05:09:47Z</time>
      </trkpt>
      <trkpt lat="45.43883" lon="5.90878">
        <ele>1171.4759521484</ele>
        <time>2017-05-29T05:10:49Z</time>
      </trkpt>
      <trkpt lat="45.43866" lon="5.9086">
        <ele>1167.4759521484</ele>
        <time>2017-05-29T05:11:00Z</time>
      </trkpt>
      <trkpt lat="45.43863" lon="5.9085">
        <ele>1175.4759521484</ele>
        <time>2017-05-29T05:11:18Z</time>
      </trkpt>
      <trkpt lat="45.43855" lon="5.90846">
        <ele>1177.4759521484</ele>
        <time>2017-05-29T05:11:27Z</time>
      </trkpt>
      <trkpt lat="45.43834" lon="5.90836">
        <ele>1174.4759521484</ele>
        <time>2017-05-29T05:12:08Z</time>
      </trkpt>
      <trkpt lat="45.43808" lon="5.90829">
        <ele>1172.4759521484</ele>
        <time>2017-05-29T05:12:16Z</time>
      </trkpt>
      <trkpt lat="45.43809" lon="5.9081">
        <ele>1180.4759521484</ele>
        <time>2017-05-29T05:12:46Z</time>
      </trkpt>
      <trkpt lat="45.43794" lon="5.90815">
        <ele>1189.4759521484</ele>
        <time>2017-05-29T05:13:18Z</time>
      </trkpt>
      <trkpt lat="45.43786" lon="5.90814">
        <ele>1192.4759521484</ele>
        <time>2017-05-29T05:13:31Z</time>
      </trkpt>
      <trkpt lat="45.43778" lon="5.90816">
        <ele>1192.4759521484</ele>
        <time>2017-05-29T05:14:16Z</time>
      </trkpt>
      <trkpt lat="45.43774" lon="5.90826">
        <ele>1206.4759521484</ele>
        <time>2017-05-29T05:14:24Z</time>
      </trkpt>
      <trkpt lat="45.4376" lon="5.90829">
        <ele>1207.4759521484</ele>
        <time>2017-05-29T05:14:47Z</time>
      </trkpt>
      <trkpt lat="45.43755" lon="5.90822">
        <ele>1215.4759521484</ele>
        <time>2017-05-29T05:15:00Z</time>
      </trkpt>
      <trkpt lat="45.43748" lon="5.90815">
        <ele>1216.4759521484</ele>
        <time>2017-05-29T05:15:09Z</time>
      </trkpt>
      <trkpt lat="45.43741" lon="5.90822">
        <ele>1216.4759521484</ele>
        <time>2017-05-29T05:15:17Z</time>
      </trkpt>
      <trkpt lat="45.43733" lon="5.90826">
        <ele>1215.4759521484</ele>
        <time>2017-05-29T05:16:12Z</time>
      </trkpt>
      <trkpt lat="45.43725" lon="5.90829">
        <ele>1219.4759521484</ele>
        <time>2017-05-29T05:16:17Z</time>
      </trkpt>
      <trkpt lat="45.43716" lon="5.90824">
        <ele>1225.4759521484</ele>
        <time>2017-05-29T05:16:26Z</time>
      </trkpt>
      <trkpt lat="45.43718" lon="5.90834">
        <ele>1232.4759521484</ele>
        <time>2017-05-29T05:16:31Z</time>
      </trkpt>
      <trkpt lat="45.43724" lon="5.90818">
        <ele>1238.4759521484</ele>
        <time>2017-05-29T05:16:49Z</time>
      </trkpt>
      <trkpt lat="45.43724" lon="5.90807">
        <ele>1240.4759521484</ele>
        <time>2017-05-29T05:16:56Z</time>
      </trkpt>
      <trkpt lat="45.43727" lon="5.90795">
        <ele>1239.4759521484</ele>
        <time>2017-05-29T05:17:06Z</time>
      </trkpt>
      <trkpt lat="45.43724" lon="5.90778">
        <ele>1243.4759521484</ele>
        <time>2017-05-29T05:17:12Z</time>
      </trkpt>
      <trkpt lat="45.43722" lon="5.90763">
        <ele>1243.4759521484</ele>
        <time>2017-05-29T05:17:18Z</time>
      </trkpt>
      <trkpt lat="45.43719" lon="5.90741">
        <ele>1247.4759521484</ele>
        <time>2017-05-29T05:17:33Z</time>
      </trkpt>
      <trkpt lat="45.43716" lon="5.9073">
        <ele>1245.4759521484</ele>
        <time>2017-05-29T05:17:41Z</time>
      </trkpt>
      <trkpt lat="45.4372" lon="5.90705">
        <ele>1252.4759521484</ele>
        <time>2017-05-29T05:18:01Z</time>
      </trkpt>
      <trkpt lat="45.4372" lon="5.90686">
        <ele>1255.4759521484</ele>
        <time>2017-05-29T05:18:19Z</time>
      </trkpt>
      <trkpt lat="45.43719" lon="5.90675">
        <ele>1253.4749755859</ele>
        <time>2017-05-29T05:18:24Z</time>
      </trkpt>
      <trkpt lat="45.43723" lon="5.90666">
        <ele>1250.4749755859</ele>
        <time>2017-05-29T05:18:29Z</time>
      </trkpt>
      <trkpt lat="45.43723" lon="5.90644">
        <ele>1245.4749755859</ele>
        <time>2017-05-29T05:18:41Z</time>
      </trkpt>
      <trkpt lat="45.43718" lon="5.90635">
        <ele>1244.4749755859</ele>
        <time>2017-05-29T05:18:49Z</time>
      </trkpt>
      <trkpt lat="45.43713" lon="5.90609">
        <ele>1250.4749755859</ele>
        <time>2017-05-29T05:19:13Z</time>
      </trkpt>
      <trkpt lat="45.43705" lon="5.90605">
        <ele>1252.4749755859</ele>
        <time>2017-05-29T05:19:19Z</time>
      </trkpt>
      <trkpt lat="45.437" lon="5.90597">
        <ele>1256.4749755859</ele>
        <time>2017-05-29T05:19:30Z</time>
      </trkpt>
      <trkpt lat="45.43699" lon="5.90586">
        <ele>1257.4749755859</ele>
        <time>2017-05-29T05:19:44Z</time>
      </trkpt>
      <trkpt lat="45.43696" lon="5.90575">
        <ele>1253.4749755859</ele>
        <time>2017-05-29T05:19:51Z</time>
      </trkpt>
      <trkpt lat="45.43695" lon="5.90564">
        <ele>1254.4749755859</ele>
        <time>2017-05-29T05:19:56Z</time>
      </trkpt>
      <trkpt lat="45.43699" lon="5.90554">
        <ele>1255.4749755859</ele>
        <time>2017-05-29T05:20:01Z</time>
      </trkpt>
      <trkpt lat="45.43691" lon="5.90502">
        <ele>1261.4749755859</ele>
        <time>2017-05-29T05:20:41Z</time>
      </trkpt>
      <trkpt lat="45.43689" lon="5.90492">
        <ele>1268.4749755859</ele>
        <time>2017-05-29T05:20:54Z</time>
      </trkpt>
      <trkpt lat="45.43682" lon="5.90481">
        <ele>1269.4749755859</ele>
        <time>2017-05-29T05:21:06Z</time>
      </trkpt>
      <trkpt lat="45.43682" lon="5.90471">
        <ele>1275.4749755859</ele>
        <time>2017-05-29T05:21:20Z</time>
      </trkpt>
      <trkpt lat="45.43676" lon="5.90463">
        <ele>1276.4749755859</ele>
        <time>2017-05-29T05:21:27Z</time>
      </trkpt>
      <trkpt lat="45.43671" lon="5.90453">
        <ele>1277.4749755859</ele>
        <time>2017-05-29T05:21:33Z</time>
      </trkpt>
      <trkpt lat="45.4366" lon="5.90435">
        <ele>1276.4749755859</ele>
        <time>2017-05-29T05:21:45Z</time>
      </trkpt>
      <trkpt lat="45.43655" lon="5.90428">
        <ele>1274.4749755859</ele>
        <time>2017-05-29T05:21:55Z</time>
      </trkpt>
      <trkpt lat="45.43642" lon="5.90417">
        <ele>1271.4749755859</ele>
        <time>2017-05-29T05:22:05Z</time>
      </trkpt>
      <trkpt lat="45.43636" lon="5.9041">
        <ele>1274.4749755859</ele>
        <time>2017-05-29T05:22:11Z</time>
      </trkpt>
      <trkpt lat="45.43633" lon="5.90399">
        <ele>1278.4749755859</ele>
        <time>2017-05-29T05:22:20Z</time>
      </trkpt>
      <trkpt lat="45.43633" lon="5.90387">
        <ele>1281.4749755859</ele>
        <time>2017-05-29T05:22:39Z</time>
      </trkpt>
      <trkpt lat="45.43624" lon="5.90343">
        <ele>1279.4749755859</ele>
        <time>2017-05-29T05:23:01Z</time>
      </trkpt>
      <trkpt lat="45.43625" lon="5.90333">
        <ele>1277.4749755859</ele>
        <time>2017-05-29T05:23:08Z</time>
      </trkpt>
      <trkpt lat="45.43627" lon="5.90323">
        <ele>1283.4749755859</ele>
        <time>2017-05-29T05:23:17Z</time>
      </trkpt>
      <trkpt lat="45.43625" lon="5.90313">
        <ele>1283.4749755859</ele>
        <time>2017-05-29T05:23:22Z</time>
      </trkpt>
      <trkpt lat="45.43621" lon="5.90301">
        <ele>1286.4749755859</ele>
        <time>2017-05-29T05:23:27Z</time>
      </trkpt>
      <trkpt lat="45.43619" lon="5.90282">
        <ele>1289.4749755859</ele>
        <time>2017-05-29T05:23:37Z</time>
      </trkpt>
      <trkpt lat="45.43621" lon="5.90271">
        <ele>1294.4749755859</ele>
        <time>2017-05-29T05:23:45Z</time>
      </trkpt>
      <trkpt lat="45.43625" lon="5.9026">
        <ele>1301.4749755859</ele>
        <time>2017-05-29T05:23:54Z</time>
      </trkpt>
      <trkpt lat="45.4363" lon="5.90251">
        <ele>1300.4749755859</ele>
        <time>2017-05-29T05:24:01Z</time>
      </trkpt>
      <trkpt lat="45.43627" lon="5.90242">
        <ele>1298.4749755859</ele>
        <time>2017-05-29T05:24:08Z</time>
      </trkpt>
      <trkpt lat="45.43627" lon="5.90231">
        <ele>1300.4749755859</ele>
        <time>2017-05-29T05:24:16Z</time>
      </trkpt>
      <trkpt lat="45.43624" lon="5.90221">
        <ele>1303.4749755859</ele>
        <time>2017-05-29T05:24:32Z</time>
      </trkpt>
      <trkpt lat="45.43622" lon="5.9021">
        <ele>1303.4749755859</ele>
        <time>2017-05-29T05:24:38Z</time>
      </trkpt>
      <trkpt lat="45.43618" lon="5.90197">
        <ele>1307.4749755859</ele>
        <time>2017-05-29T05:24:46Z</time>
      </trkpt>
      <trkpt lat="45.43612" lon="5.90183">
        <ele>1309.4749755859</ele>
        <time>2017-05-29T05:24:55Z</time>
      </trkpt>
      <trkpt lat="45.43607" lon="5.90165">
        <ele>1312.4749755859</ele>
        <time>2017-05-29T05:25:14Z</time>
      </trkpt>
      <trkpt lat="45.43605" lon="5.90154">
        <ele>1314.4749755859</ele>
        <time>2017-05-29T05:25:25Z</time>
      </trkpt>
      <trkpt lat="45.43603" lon="5.90144">
        <ele>1313.4749755859</ele>
        <time>2017-05-29T05:25:32Z</time>
      </trkpt>
      <trkpt lat="45.43599" lon="5.90134">
        <ele>1315.4749755859</ele>
        <time>2017-05-29T05:25:35Z</time>
      </trkpt>
      <trkpt lat="45.43598" lon="5.90122">
        <ele>1320.4749755859</ele>
        <time>2017-05-29T05:25:44Z</time>
      </trkpt>
      <trkpt lat="45.43597" lon="5.90109">
        <ele>1319.4749755859</ele>
        <time>2017-05-29T05:25:54Z</time>
      </trkpt>
      <trkpt lat="45.43593" lon="5.90098">
        <ele>1317.4739990234</ele>
        <time>2017-05-29T05:26:02Z</time>
      </trkpt>
      <trkpt lat="45.43591" lon="5.90088">
        <ele>1316.4739990234</ele>
        <time>2017-05-29T05:26:10Z</time>
      </trkpt>
      <trkpt lat="45.43589" lon="5.90077">
        <ele>1317.4739990234</ele>
        <time>2017-05-29T05:26:17Z</time>
      </trkpt>
      <trkpt lat="45.43574" lon="5.90039">
        <ele>1320.4739990234</ele>
        <time>2017-05-29T05:26:41Z</time>
      </trkpt>
      <trkpt lat="45.43562" lon="5.90018">
        <ele>1328.4739990234</ele>
        <time>2017-05-29T05:26:55Z</time>
      </trkpt>
      <trkpt lat="45.43555" lon="5.90009">
        <ele>1332.4739990234</ele>
        <time>2017-05-29T05:27:36Z</time>
      </trkpt>
      <trkpt lat="45.43552" lon="5.89995">
        <ele>1329.4739990234</ele>
        <time>2017-05-29T05:27:45Z</time>
      </trkpt>
      <trkpt lat="45.43549" lon="5.89975">
        <ele>1329.4739990234</ele>
        <time>2017-05-29T05:27:55Z</time>
      </trkpt>
      <trkpt lat="45.4355" lon="5.89964">
        <ele>1333.4739990234</ele>
        <time>2017-05-29T05:28:01Z</time>
      </trkpt>
      <trkpt lat="45.4355" lon="5.89953">
        <ele>1336.4739990234</ele>
        <time>2017-05-29T05:28:09Z</time>
      </trkpt>
      <trkpt lat="45.43553" lon="5.89942">
        <ele>1338.4739990234</ele>
        <time>2017-05-29T05:28:15Z</time>
      </trkpt>
      <trkpt lat="45.43549" lon="5.89932">
        <ele>1339.4739990234</ele>
        <time>2017-05-29T05:28:21Z</time>
      </trkpt>
      <trkpt lat="45.43556" lon="5.89926">
        <ele>1339.4739990234</ele>
        <time>2017-05-29T05:28:25Z</time>
      </trkpt>
      <trkpt lat="45.4355" lon="5.89918">
        <ele>1338.4739990234</ele>
        <time>2017-05-29T05:28:31Z</time>
      </trkpt>
      <trkpt lat="45.43546" lon="5.89908">
        <ele>1336.4739990234</ele>
        <time>2017-05-29T05:28:37Z</time>
      </trkpt>
      <trkpt lat="45.43533" lon="5.89892">
        <ele>1333.4739990234</ele>
        <time>2017-05-29T05:28:52Z</time>
      </trkpt>
      <trkpt lat="45.43525" lon="5.89886">
        <ele>1333.4739990234</ele>
        <time>2017-05-29T05:28:58Z</time>
      </trkpt>
      <trkpt lat="45.43518" lon="5.8988">
        <ele>1332.4739990234</ele>
        <time>2017-05-29T05:29:06Z</time>
      </trkpt>
      <trkpt lat="45.43507" lon="5.89868">
        <ele>1338.4739990234</ele>
        <time>2017-05-29T05:29:14Z</time>
      </trkpt>
      <trkpt lat="45.435" lon="5.89864">
        <ele>1341.4739990234</ele>
        <time>2017-05-29T05:29:23Z</time>
      </trkpt>
      <trkpt lat="45.43495" lon="5.89856">
        <ele>1342.4739990234</ele>
        <time>2017-05-29T05:29:28Z</time>
      </trkpt>
      <trkpt lat="45.43491" lon="5.89847">
        <ele>1345.4739990234</ele>
        <time>2017-05-29T05:29:34Z</time>
      </trkpt>
      <trkpt lat="45.43487" lon="5.89837">
        <ele>1345.4739990234</ele>
        <time>2017-05-29T05:29:49Z</time>
      </trkpt>
      <trkpt lat="45.43481" lon="5.89829">
        <ele>1346.4739990234</ele>
        <time>2017-05-29T05:29:55Z</time>
      </trkpt>
      <trkpt lat="45.4347" lon="5.89823">
        <ele>1342.4739990234</ele>
        <time>2017-05-29T05:30:03Z</time>
      </trkpt>
      <trkpt lat="45.43464" lon="5.89816">
        <ele>1343.4739990234</ele>
        <time>2017-05-29T05:30:09Z</time>
      </trkpt>
      <trkpt lat="45.43458" lon="5.89808">
        <ele>1344.4739990234</ele>
        <time>2017-05-29T05:30:14Z</time>
      </trkpt>
      <trkpt lat="45.43453" lon="5.89801">
        <ele>1344.4739990234</ele>
        <time>2017-05-29T05:30:21Z</time>
      </trkpt>
      <trkpt lat="45.43446" lon="5.89795">
        <ele>1345.4739990234</ele>
        <time>2017-05-29T05:30:26Z</time>
      </trkpt>
      <trkpt lat="45.4344" lon="5.8979">
        <ele>1346.4739990234</ele>
        <time>2017-05-29T05:30:33Z</time>
      </trkpt>
      <trkpt lat="45.43433" lon="5.89785">
        <ele>1346.4739990234</ele>
        <time>2017-05-29T05:30:38Z</time>
      </trkpt>
      <trkpt lat="45.43416" lon="5.89774">
        <ele>1353.4739990234</ele>
        <time>2017-05-29T05:30:58Z</time>
      </trkpt>
      <trkpt lat="45.43396" lon="5.89771">
        <ele>1351.4739990234</ele>
        <time>2017-05-29T05:31:14Z</time>
      </trkpt>
      <trkpt lat="45.43387" lon="5.8977">
        <ele>1352.4739990234</ele>
        <time>2017-05-29T05:31:22Z</time>
      </trkpt>
      <trkpt lat="45.4338" lon="5.89767">
        <ele>1351.4739990234</ele>
        <time>2017-05-29T05:31:27Z</time>
      </trkpt>
      <trkpt lat="45.43372" lon="5.8976">
        <ele>1355.4739990234</ele>
        <time>2017-05-29T05:31:35Z</time>
      </trkpt>
      <trkpt lat="45.43365" lon="5.89757">
        <ele>1353.4739990234</ele>
        <time>2017-05-29T05:31:42Z</time>
      </trkpt>
      <trkpt lat="45.43359" lon="5.89752">
        <ele>1355.4739990234</ele>
        <time>2017-05-29T05:31:48Z</time>
      </trkpt>
      <trkpt lat="45.43354" lon="5.89744">
        <ele>1358.4739990234</ele>
        <time>2017-05-29T05:31:53Z</time>
      </trkpt>
      <trkpt lat="45.43341" lon="5.89735">
        <ele>1360.4739990234</ele>
        <time>2017-05-29T05:32:08Z</time>
      </trkpt>
      <trkpt lat="45.43335" lon="5.89731">
        <ele>1360.4730224609</ele>
        <time>2017-05-29T05:32:15Z</time>
      </trkpt>
      <trkpt lat="45.43329" lon="5.89723">
        <ele>1360.4730224609</ele>
        <time>2017-05-29T05:32:22Z</time>
      </trkpt>
      <trkpt lat="45.43321" lon="5.89719">
        <ele>1361.4730224609</ele>
        <time>2017-05-29T05:32:28Z</time>
      </trkpt>
      <trkpt lat="45.43304" lon="5.89713">
        <ele>1367.4730224609</ele>
        <time>2017-05-29T05:32:42Z</time>
      </trkpt>
      <trkpt lat="45.43297" lon="5.8971">
        <ele>1370.4730224609</ele>
        <time>2017-05-29T05:32:47Z</time>
      </trkpt>
      <trkpt lat="45.43287" lon="5.89712">
        <ele>1366.4730224609</ele>
        <time>2017-05-29T05:33:22Z</time>
      </trkpt>
      <trkpt lat="45.43279" lon="5.89711">
        <ele>1369.4730224609</ele>
        <time>2017-05-29T05:33:29Z</time>
      </trkpt>
      <trkpt lat="45.43271" lon="5.89709">
        <ele>1368.4730224609</ele>
        <time>2017-05-29T05:33:35Z</time>
      </trkpt>
      <trkpt lat="45.43264" lon="5.89706">
        <ele>1369.4730224609</ele>
        <time>2017-05-29T05:33:42Z</time>
      </trkpt>
      <trkpt lat="45.43247" lon="5.89705">
        <ele>1363.4730224609</ele>
        <time>2017-05-29T05:33:54Z</time>
      </trkpt>
      <trkpt lat="45.43238" lon="5.89707">
        <ele>1363.4730224609</ele>
        <time>2017-05-29T05:34:01Z</time>
      </trkpt>
      <trkpt lat="45.43231" lon="5.89705">
        <ele>1363.4730224609</ele>
        <time>2017-05-29T05:34:07Z</time>
      </trkpt>
      <trkpt lat="45.43224" lon="5.897">
        <ele>1365.4730224609</ele>
        <time>2017-05-29T05:34:13Z</time>
      </trkpt>
      <trkpt lat="45.43216" lon="5.89698">
        <ele>1366.4730224609</ele>
        <time>2017-05-29T05:34:21Z</time>
      </trkpt>
      <trkpt lat="45.43208" lon="5.89697">
        <ele>1368.4730224609</ele>
        <time>2017-05-29T05:34:28Z</time>
      </trkpt>
      <trkpt lat="45.43195" lon="5.89686">
        <ele>1367.4730224609</ele>
        <time>2017-05-29T05:34:39Z</time>
      </trkpt>
      <trkpt lat="45.43191" lon="5.89678">
        <ele>1371.4730224609</ele>
        <time>2017-05-29T05:34:59Z</time>
      </trkpt>
      <trkpt lat="45.43185" lon="5.89669">
        <ele>1377.4730224609</ele>
        <time>2017-05-29T05:35:19Z</time>
      </trkpt>
      <trkpt lat="45.43174" lon="5.89669">
        <ele>1375.4730224609</ele>
        <time>2017-05-29T05:35:54Z</time>
      </trkpt>
      <trkpt lat="45.43167" lon="5.89673">
        <ele>1373.4730224609</ele>
        <time>2017-05-29T05:36:23Z</time>
      </trkpt>
      <trkpt lat="45.43162" lon="5.8968">
        <ele>1375.4730224609</ele>
        <time>2017-05-29T05:36:49Z</time>
      </trkpt>
      <trkpt lat="45.43156" lon="5.89686">
        <ele>1374.4730224609</ele>
        <time>2017-05-29T05:37:43Z</time>
      </trkpt>
      <trkpt lat="45.4315" lon="5.89691">
        <ele>1374.4730224609</ele>
        <time>2017-05-29T05:37:55Z</time>
      </trkpt>
      <trkpt lat="45.43142" lon="5.89691">
        <ele>1373.4730224609</ele>
        <time>2017-05-29T05:38:05Z</time>
      </trkpt>
      <trkpt lat="45.43135" lon="5.89688">
        <ele>1373.4730224609</ele>
        <time>2017-05-29T05:38:10Z</time>
      </trkpt>
      <trkpt lat="45.43128" lon="5.89684">
        <ele>1374.4730224609</ele>
        <time>2017-05-29T05:38:18Z</time>
      </trkpt>
      <trkpt lat="45.43118" lon="5.89679">
        <ele>1382.4730224609</ele>
        <time>2017-05-29T05:38:38Z</time>
      </trkpt>
      <trkpt lat="45.43111" lon="5.89676">
        <ele>1389.4730224609</ele>
        <time>2017-05-29T05:38:56Z</time>
      </trkpt>
      <trkpt lat="45.43104" lon="5.89677">
        <ele>1389.4730224609</ele>
        <time>2017-05-29T05:39:05Z</time>
      </trkpt>
      <trkpt lat="45.43097" lon="5.89677">
        <ele>1393.4730224609</ele>
        <time>2017-05-29T05:39:23Z</time>
      </trkpt>
      <trkpt lat="45.43089" lon="5.89681">
        <ele>1398.4730224609</ele>
        <time>2017-05-29T05:39:51Z</time>
      </trkpt>
      <trkpt lat="45.43087" lon="5.89693">
        <ele>1398.4730224609</ele>
        <time>2017-05-29T05:40:11Z</time>
      </trkpt>
      <trkpt lat="45.43088" lon="5.89703">
        <ele>1402.4730224609</ele>
        <time>2017-05-29T05:40:29Z</time>
      </trkpt>
      <trkpt lat="45.43081" lon="5.89702">
        <ele>1408.4730224609</ele>
        <time>2017-05-29T05:40:43Z</time>
      </trkpt>
      <trkpt lat="45.43078" lon="5.89714">
        <ele>1414.4730224609</ele>
        <time>2017-05-29T05:41:20Z</time>
      </trkpt>
      <trkpt lat="45.43076" lon="5.89725">
        <ele>1417.4730224609</ele>
        <time>2017-05-29T05:42:09Z</time>
      </trkpt>
      <trkpt lat="45.43076" lon="5.89737">
        <ele>1414.4730224609</ele>
        <time>2017-05-29T05:42:15Z</time>
      </trkpt>
      <trkpt lat="45.43078" lon="5.89747">
        <ele>1414.4730224609</ele>
        <time>2017-05-29T05:42:26Z</time>
      </trkpt>
      <trkpt lat="45.43073" lon="5.89759">
        <ele>1419.4730224609</ele>
        <time>2017-05-29T05:43:15Z</time>
      </trkpt>
      <trkpt lat="45.43072" lon="5.89769">
        <ele>1423.4730224609</ele>
        <time>2017-05-29T05:43:24Z</time>
      </trkpt>
      <trkpt lat="45.43074" lon="5.89782">
        <ele>1427.4730224609</ele>
        <time>2017-05-29T05:43:41Z</time>
      </trkpt>
      <trkpt lat="45.43077" lon="5.89792">
        <ele>1431.4730224609</ele>
        <time>2017-05-29T05:43:47Z</time>
      </trkpt>
      <trkpt lat="45.43069" lon="5.898">
        <ele>1438.4730224609</ele>
        <time>2017-05-29T05:44:29Z</time>
      </trkpt>
      <trkpt lat="45.43063" lon="5.89806">
        <ele>1435.4730224609</ele>
        <time>2017-05-29T05:44:46Z</time>
      </trkpt>
      <trkpt lat="45.43068" lon="5.89817">
        <ele>1441.4730224609</ele>
        <time>2017-05-29T05:45:36Z</time>
      </trkpt>
      <trkpt lat="45.43068" lon="5.89833">
        <ele>1447.4730224609</ele>
        <time>2017-05-29T05:46:01Z</time>
      </trkpt>
      <trkpt lat="45.43066" lon="5.89844">
        <ele>1458.4730224609</ele>
        <time>2017-05-29T05:46:35Z</time>
      </trkpt>
      <trkpt lat="45.43067" lon="5.89855">
        <ele>1462.4730224609</ele>
        <time>2017-05-29T05:46:42Z</time>
      </trkpt>
      <trkpt lat="45.4307" lon="5.89865">
        <ele>1469.4730224609</ele>
        <time>2017-05-29T05:47:18Z</time>
      </trkpt>
      <trkpt lat="45.43069" lon="5.89876">
        <ele>1473.4730224609</ele>
        <time>2017-05-29T05:47:33Z</time>
      </trkpt>
      <trkpt lat="45.43069" lon="5.89888">
        <ele>1485.4730224609</ele>
        <time>2017-05-29T05:47:56Z</time>
      </trkpt>
      <trkpt lat="45.43069" lon="5.89899">
        <ele>1487.4730224609</ele>
        <time>2017-05-29T05:48:26Z</time>
      </trkpt>
      <trkpt lat="45.43068" lon="5.89909">
        <ele>1488.4730224609</ele>
        <time>2017-05-29T05:48:32Z</time>
      </trkpt>
      <trkpt lat="45.43068" lon="5.8992">
        <ele>1492.4730224609</ele>
        <time>2017-05-29T05:48:58Z</time>
      </trkpt>
      <trkpt lat="45.4307" lon="5.89931">
        <ele>1506.4730224609</ele>
        <time>2017-05-29T05:50:58Z</time>
      </trkpt>
      <trkpt lat="45.43073" lon="5.89942">
        <ele>1510.4730224609</ele>
        <time>2017-05-29T05:51:09Z</time>
      </trkpt>
      <trkpt lat="45.43074" lon="5.89953">
        <ele>1512.4730224609</ele>
        <time>2017-05-29T05:51:18Z</time>
      </trkpt>
      <trkpt lat="45.43073" lon="5.89963">
        <ele>1519.4730224609</ele>
        <time>2017-05-29T05:51:55Z</time>
      </trkpt>
      <trkpt lat="45.43071" lon="5.89974">
        <ele>1526.4730224609</ele>
        <time>2017-05-29T05:52:21Z</time>
      </trkpt>
      <trkpt lat="45.43072" lon="5.89986">
        <ele>1529.4730224609</ele>
        <time>2017-05-29T05:52:52Z</time>
      </trkpt>
      <trkpt lat="45.43072" lon="5.89997">
        <ele>1532.4730224609</ele>
        <time>2017-05-29T05:53:19Z</time>
      </trkpt>
      <trkpt lat="45.43075" lon="5.90008">
        <ele>1539.4730224609</ele>
        <time>2017-05-29T05:53:44Z</time>
      </trkpt>
      <trkpt lat="45.43074" lon="5.90019">
        <ele>1543.4730224609</ele>
        <time>2017-05-29T05:54:06Z</time>
      </trkpt>
      <trkpt lat="45.43073" lon="5.90029">
        <ele>1550.4730224609</ele>
        <time>2017-05-29T05:54:44Z</time>
      </trkpt>
      <trkpt lat="45.43076" lon="5.90039">
        <ele>1553.4730224609</ele>
        <time>2017-05-29T05:54:54Z</time>
      </trkpt>
      <trkpt lat="45.43079" lon="5.9005">
        <ele>1559.4730224609</ele>
        <time>2017-05-29T05:55:18Z</time>
      </trkpt>
      <trkpt lat="45.43074" lon="5.90059">
        <ele>1562.4730224609</ele>
        <time>2017-05-29T05:55:41Z</time>
      </trkpt>
      <trkpt lat="45.43068" lon="5.90068">
        <ele>1567.4730224609</ele>
        <time>2017-05-29T05:56:07Z</time>
      </trkpt>
      <trkpt lat="45.4307" lon="5.90078">
        <ele>1567.4730224609</ele>
        <time>2017-05-29T05:56:42Z</time>
      </trkpt>
      <trkpt lat="45.43065" lon="5.90087">
        <ele>1576.4730224609</ele>
        <time>2017-05-29T05:57:18Z</time>
      </trkpt>
      <trkpt lat="45.43061" lon="5.90096">
        <ele>1573.4730224609</ele>
        <time>2017-05-29T05:57:33Z</time>
      </trkpt>
      <trkpt lat="45.43058" lon="5.90107">
        <ele>1585.4730224609</ele>
        <time>2017-05-29T05:58:29Z</time>
      </trkpt>
      <trkpt lat="45.43055" lon="5.90117">
        <ele>1593.4730224609</ele>
        <time>2017-05-29T05:59:08Z</time>
      </trkpt>
      <trkpt lat="45.43054" lon="5.90127">
        <ele>1597.4730224609</ele>
        <time>2017-05-29T05:59:21Z</time>
      </trkpt>
      <trkpt lat="45.4305" lon="5.90136">
        <ele>1597.4730224609</ele>
        <time>2017-05-29T05:59:54Z</time>
      </trkpt>
      <trkpt lat="45.4305" lon="5.90147">
        <ele>1600.4730224609</ele>
        <time>2017-05-29T06:00:16Z</time>
      </trkpt>
      <trkpt lat="45.4305" lon="5.90158">
        <ele>1605.4730224609</ele>
        <time>2017-05-29T06:00:57Z</time>
      </trkpt>
      <trkpt lat="45.43047" lon="5.90169">
        <ele>1614.4730224609</ele>
        <time>2017-05-29T06:01:17Z</time>
      </trkpt>
      <trkpt lat="45.43046" lon="5.9018">
        <ele>1622.4730224609</ele>
        <time>2017-05-29T06:01:54Z</time>
      </trkpt>
      <trkpt lat="45.43047" lon="5.90191">
        <ele>1630.4730224609</ele>
        <time>2017-05-29T06:02:22Z</time>
      </trkpt>
      <trkpt lat="45.43045" lon="5.90201">
        <ele>1636.4739990234</ele>
        <time>2017-05-29T06:03:00Z</time>
      </trkpt>
      <trkpt lat="45.43043" lon="5.90211">
        <ele>1637.4739990234</ele>
        <time>2017-05-29T06:03:21Z</time>
      </trkpt>
      <trkpt lat="45.43044" lon="5.90222">
        <ele>1640.4739990234</ele>
        <time>2017-05-29T06:03:54Z</time>
      </trkpt>
      <trkpt lat="45.43041" lon="5.90231">
        <ele>1644.4739990234</ele>
        <time>2017-05-29T06:04:23Z</time>
      </trkpt>
      <trkpt lat="45.43034" lon="5.90235">
        <ele>1656.4739990234</ele>
        <time>2017-05-29T06:04:53Z</time>
      </trkpt>
      <trkpt lat="45.43041" lon="5.9024">
        <ele>1659.4739990234</ele>
        <time>2017-05-29T06:05:29Z</time>
      </trkpt>
      <trkpt lat="45.43041" lon="5.90252">
        <ele>1659.4739990234</ele>
        <time>2017-05-29T06:05:46Z</time>
      </trkpt>
      <trkpt lat="45.43037" lon="5.90261">
        <ele>1659.4739990234</ele>
        <time>2017-05-29T06:05:55Z</time>
      </trkpt>
      <trkpt lat="45.43043" lon="5.90267">
        <ele>1668.4739990234</ele>
        <time>2017-05-29T06:06:52Z</time>
      </trkpt>
      <trkpt lat="45.43041" lon="5.90277">
        <ele>1675.4739990234</ele>
        <time>2017-05-29T06:07:09Z</time>
      </trkpt>
      <trkpt lat="45.43041" lon="5.90288">
        <ele>1685.4739990234</ele>
        <time>2017-05-29T06:08:07Z</time>
      </trkpt>
      <trkpt lat="45.43046" lon="5.90296">
        <ele>1693.4739990234</ele>
        <time>2017-05-29T06:08:32Z</time>
      </trkpt>
      <trkpt lat="45.43046" lon="5.90308">
        <ele>1705.4739990234</ele>
        <time>2017-05-29T06:09:23Z</time>
      </trkpt>
      <trkpt lat="45.43055" lon="5.90307">
        <ele>1709.4739990234</ele>
        <time>2017-05-29T06:10:37Z</time>
      </trkpt>
      <trkpt lat="45.43063" lon="5.90306">
        <ele>1711.4739990234</ele>
        <time>2017-05-29T06:10:42Z</time>
      </trkpt>
      <trkpt lat="45.43071" lon="5.90304">
        <ele>1708.4739990234</ele>
        <time>2017-05-29T06:10:48Z</time>
      </trkpt>
      <trkpt lat="45.43079" lon="5.90302">
        <ele>1707.4739990234</ele>
        <time>2017-05-29T06:10:53Z</time>
      </trkpt>
      <trkpt lat="45.43086" lon="5.90296">
        <ele>1713.4739990234</ele>
        <time>2017-05-29T06:11:03Z</time>
      </trkpt>
      <trkpt lat="45.43093" lon="5.90301">
        <ele>1711.4739990234</ele>
        <time>2017-05-29T06:11:13Z</time>
      </trkpt>
      <trkpt lat="45.431" lon="5.90297">
        <ele>1711.4739990234</ele>
        <time>2017-05-29T06:11:44Z</time>
      </trkpt>
      <trkpt lat="45.43097" lon="5.90288">
        <ele>1710.4739990234</ele>
        <time>2017-05-29T06:12:06Z</time>
      </trkpt>
      <trkpt lat="45.43105" lon="5.90285">
        <ele>1707.4739990234</ele>
        <time>2017-05-29T06:12:26Z</time>
      </trkpt>
      <trkpt lat="45.43112" lon="5.90282">
        <ele>1707.4739990234</ele>
        <time>2017-05-29T06:12:38Z</time>
      </trkpt>
      <trkpt lat="45.43118" lon="5.90275">
        <ele>1709.4739990234</ele>
        <time>2017-05-29T06:12:55Z</time>
      </trkpt>
      <trkpt lat="45.43126" lon="5.90278">
        <ele>1711.4739990234</ele>
        <time>2017-05-29T06:13:20Z</time>
      </trkpt>
      <trkpt lat="45.43133" lon="5.90282">
        <ele>1707.4739990234</ele>
        <time>2017-05-29T06:13:27Z</time>
      </trkpt>
      <trkpt lat="45.43139" lon="5.90288">
        <ele>1704.4739990234</ele>
        <time>2017-05-29T06:13:43Z</time>
      </trkpt>
      <trkpt lat="45.43147" lon="5.90289">
        <ele>1701.4739990234</ele>
        <time>2017-05-29T06:14:34Z</time>
      </trkpt>
      <trkpt lat="45.43155" lon="5.90291">
        <ele>1701.4739990234</ele>
        <time>2017-05-29T06:14:42Z</time>
      </trkpt>
      <trkpt lat="45.43148" lon="5.90289">
        <ele>1697.4739990234</ele>
        <time>2017-05-29T06:15:28Z</time>
      </trkpt>
      <trkpt lat="45.43141" lon="5.90283">
        <ele>1698.4739990234</ele>
        <time>2017-05-29T06:15:36Z</time>
      </trkpt>
      <trkpt lat="45.43133" lon="5.90279">
        <ele>1698.4739990234</ele>
        <time>2017-05-29T06:15:42Z</time>
      </trkpt>
      <trkpt lat="45.43126" lon="5.9028">
        <ele>1699.4739990234</ele>
        <time>2017-05-29T06:15:50Z</time>
      </trkpt>
      <trkpt lat="45.43119" lon="5.90284">
        <ele>1699.4739990234</ele>
        <time>2017-05-29T06:15:59Z</time>
      </trkpt>
      <trkpt lat="45.43111" lon="5.90286">
        <ele>1704.4739990234</ele>
        <time>2017-05-29T06:16:14Z</time>
      </trkpt>
      <trkpt lat="45.43104" lon="5.9029">
        <ele>1702.4739990234</ele>
        <time>2017-05-29T06:16:23Z</time>
      </trkpt>
      <trkpt lat="45.43096" lon="5.90294">
        <ele>1697.4739990234</ele>
        <time>2017-05-29T06:16:34Z</time>
      </trkpt>
      <trkpt lat="45.43089" lon="5.90291">
        <ele>1701.4739990234</ele>
        <time>2017-05-29T06:16:40Z</time>
      </trkpt>
      <trkpt lat="45.43082" lon="5.9029">
        <ele>1702.4739990234</ele>
        <time>2017-05-29T06:16:51Z</time>
      </trkpt>
      <trkpt lat="45.43073" lon="5.90296">
        <ele>1703.4739990234</ele>
        <time>2017-05-29T06:17:01Z</time>
      </trkpt>
      <trkpt lat="45.43067" lon="5.90302">
        <ele>1701.4739990234</ele>
        <time>2017-05-29T06:17:14Z</time>
      </trkpt>
      <trkpt lat="45.43054" lon="5.90309">
        <ele>1697.4739990234</ele>
        <time>2017-05-29T06:17:49Z</time>
      </trkpt>
      <trkpt lat="45.43048" lon="5.90303">
        <ele>1696.4739990234</ele>
        <time>2017-05-29T06:18:31Z</time>
      </trkpt>
      <trkpt lat="45.43045" lon="5.90294">
        <ele>1685.4739990234</ele>
        <time>2017-05-29T06:19:25Z</time>
      </trkpt>
      <trkpt lat="45.43048" lon="5.90284">
        <ele>1680.4739990234</ele>
        <time>2017-05-29T06:20:14Z</time>
      </trkpt>
      <trkpt lat="45.43055" lon="5.9028">
        <ele>1683.4739990234</ele>
        <time>2017-05-29T06:20:45Z</time>
      </trkpt>
      <trkpt lat="45.43061" lon="5.90286">
        <ele>1675.4739990234</ele>
        <time>2017-05-29T06:21:04Z</time>
      </trkpt>
      <trkpt lat="45.43078" lon="5.90282">
        <ele>1675.4739990234</ele>
        <time>2017-05-29T06:21:13Z</time>
      </trkpt>
      <trkpt lat="45.43085" lon="5.90279">
        <ele>1677.4739990234</ele>
        <time>2017-05-29T06:21:22Z</time>
      </trkpt>
      <trkpt lat="45.43092" lon="5.90279">
        <ele>1677.4739990234</ele>
        <time>2017-05-29T06:21:28Z</time>
      </trkpt>
      <trkpt lat="45.43099" lon="5.90276">
        <ele>1679.4739990234</ele>
        <time>2017-05-29T06:21:38Z</time>
      </trkpt>
      <trkpt lat="45.43109" lon="5.90274">
        <ele>1679.4739990234</ele>
        <time>2017-05-29T06:21:51Z</time>
      </trkpt>
      <trkpt lat="45.43114" lon="5.90265">
        <ele>1686.4739990234</ele>
        <time>2017-05-29T06:22:01Z</time>
      </trkpt>
      <trkpt lat="45.43122" lon="5.90265">
        <ele>1685.4739990234</ele>
        <time>2017-05-29T06:22:27Z</time>
      </trkpt>
      <trkpt lat="45.4312" lon="5.90299">
        <ele>1687.4739990234</ele>
        <time>2017-05-29T06:22:33Z</time>
      </trkpt>
      <trkpt lat="45.43123" lon="5.90287">
        <ele>1687.4739990234</ele>
        <time>2017-05-29T06:22:34Z</time>
      </trkpt>
      <trkpt lat="45.4312" lon="5.90274">
        <ele>1687.4739990234</ele>
        <time>2017-05-29T06:22:35Z</time>
      </trkpt>
      <trkpt lat="45.43123" lon="5.90264">
        <ele>1686.4739990234</ele>
        <time>2017-05-29T06:22:40Z</time>
      </trkpt>
      <trkpt lat="45.43131" lon="5.90263">
        <ele>1682.4739990234</ele>
        <time>2017-05-29T06:22:50Z</time>
      </trkpt>
      <trkpt lat="45.43139" lon="5.90263">
        <ele>1685.4739990234</ele>
        <time>2017-05-29T06:23:41Z</time>
      </trkpt>
      <trkpt lat="45.43132" lon="5.90259">
        <ele>1683.4739990234</ele>
        <time>2017-05-29T06:23:52Z</time>
      </trkpt>
      <trkpt lat="45.43124" lon="5.9026">
        <ele>1683.4739990234</ele>
        <time>2017-05-29T06:24:01Z</time>
      </trkpt>
      <trkpt lat="45.43118" lon="5.90265">
        <ele>1682.4739990234</ele>
        <time>2017-05-29T06:24:14Z</time>
      </trkpt>
      <trkpt lat="45.43112" lon="5.90256">
        <ele>1684.4739990234</ele>
        <time>2017-05-29T06:24:23Z</time>
      </trkpt>
      <trkpt lat="45.43106" lon="5.90263">
        <ele>1685.4739990234</ele>
        <time>2017-05-29T06:24:30Z</time>
      </trkpt>
      <trkpt lat="45.43099" lon="5.90266">
        <ele>1687.4739990234</ele>
        <time>2017-05-29T06:24:37Z</time>
      </trkpt>
      <trkpt lat="45.4309" lon="5.90272">
        <ele>1689.4739990234</ele>
        <time>2017-05-29T06:24:47Z</time>
      </trkpt>
      <trkpt lat="45.43083" lon="5.90279">
        <ele>1682.4739990234</ele>
        <time>2017-05-29T06:25:06Z</time>
      </trkpt>
      <trkpt lat="45.43076" lon="5.90282">
        <ele>1681.4739990234</ele>
        <time>2017-05-29T06:25:14Z</time>
      </trkpt>
      <trkpt lat="45.43067" lon="5.90282">
        <ele>1681.4739990234</ele>
        <time>2017-05-29T06:25:25Z</time>
      </trkpt>
      <trkpt lat="45.4306" lon="5.90281">
        <ele>1683.4739990234</ele>
        <time>2017-05-29T06:25:34Z</time>
      </trkpt>
      <trkpt lat="45.43053" lon="5.90281">
        <ele>1682.4739990234</ele>
        <time>2017-05-29T06:25:44Z</time>
      </trkpt>
      <trkpt lat="45.43042" lon="5.90277">
        <ele>1683.4739990234</ele>
        <time>2017-05-29T06:26:01Z</time>
      </trkpt>
      <trkpt lat="45.43046" lon="5.90267">
        <ele>1679.4739990234</ele>
        <time>2017-05-29T06:26:45Z</time>
      </trkpt>
      <trkpt lat="45.43041" lon="5.90257">
        <ele>1670.4739990234</ele>
        <time>2017-05-29T06:27:23Z</time>
      </trkpt>
      <trkpt lat="45.43036" lon="5.90248">
        <ele>1666.4739990234</ele>
        <time>2017-05-29T06:27:57Z</time>
      </trkpt>
      <trkpt lat="45.43031" lon="5.9024">
        <ele>1665.4739990234</ele>
        <time>2017-05-29T06:28:10Z</time>
      </trkpt>
      <trkpt lat="45.43035" lon="5.90232">
        <ele>1662.4739990234</ele>
        <time>2017-05-29T06:28:48Z</time>
      </trkpt>
      <trkpt lat="45.43043" lon="5.90233">
        <ele>1658.4739990234</ele>
        <time>2017-05-29T06:29:02Z</time>
      </trkpt>
      <trkpt lat="45.43049" lon="5.90228">
        <ele>1656.4739990234</ele>
        <time>2017-05-29T06:29:46Z</time>
      </trkpt>
      <trkpt lat="45.43057" lon="5.90229">
        <ele>1655.4739990234</ele>
        <time>2017-05-29T06:29:56Z</time>
      </trkpt>
      <trkpt lat="45.43064" lon="5.90234">
        <ele>1654.4739990234</ele>
        <time>2017-05-29T06:30:12Z</time>
      </trkpt>
      <trkpt lat="45.43072" lon="5.90232">
        <ele>1656.4739990234</ele>
        <time>2017-05-29T06:30:19Z</time>
      </trkpt>
      <trkpt lat="45.43079" lon="5.90226">
        <ele>1657.4739990234</ele>
        <time>2017-05-29T06:30:33Z</time>
      </trkpt>
      <trkpt lat="45.43087" lon="5.90221">
        <ele>1657.4739990234</ele>
        <time>2017-05-29T06:30:40Z</time>
      </trkpt>
      <trkpt lat="45.43094" lon="5.90218">
        <ele>1658.4739990234</ele>
        <time>2017-05-29T06:30:50Z</time>
      </trkpt>
      <trkpt lat="45.43099" lon="5.90209">
        <ele>1655.4739990234</ele>
        <time>2017-05-29T06:31:23Z</time>
      </trkpt>
      <trkpt lat="45.43107" lon="5.90204">
        <ele>1651.4739990234</ele>
        <time>2017-05-29T06:31:40Z</time>
      </trkpt>
      <trkpt lat="45.43116" lon="5.90202">
        <ele>1654.4739990234</ele>
        <time>2017-05-29T06:31:49Z</time>
      </trkpt>
      <trkpt lat="45.43122" lon="5.90207">
        <ele>1661.4739990234</ele>
        <time>2017-05-29T06:32:11Z</time>
      </trkpt>
      <trkpt lat="45.43129" lon="5.90209">
        <ele>1660.4739990234</ele>
        <time>2017-05-29T06:32:19Z</time>
      </trkpt>
      <trkpt lat="45.43135" lon="5.90217">
        <ele>1657.4739990234</ele>
        <time>2017-05-29T06:32:32Z</time>
      </trkpt>
      <trkpt lat="45.43141" lon="5.90222">
        <ele>1657.4739990234</ele>
        <time>2017-05-29T06:32:40Z</time>
      </trkpt>
      <trkpt lat="45.43149" lon="5.90221">
        <ele>1653.4739990234</ele>
        <time>2017-05-29T06:32:46Z</time>
      </trkpt>
      <trkpt lat="45.43156" lon="5.9022">
        <ele>1653.4739990234</ele>
        <time>2017-05-29T06:32:55Z</time>
      </trkpt>
      <trkpt lat="45.43164" lon="5.90226">
        <ele>1650.4739990234</ele>
        <time>2017-05-29T06:33:05Z</time>
      </trkpt>
      <trkpt lat="45.43171" lon="5.90227">
        <ele>1654.4739990234</ele>
        <time>2017-05-29T06:33:32Z</time>
      </trkpt>
      <trkpt lat="45.4318" lon="5.90234">
        <ele>1655.4739990234</ele>
        <time>2017-05-29T06:33:37Z</time>
      </trkpt>
      <trkpt lat="45.43194" lon="5.9024">
        <ele>1649.4739990234</ele>
        <time>2017-05-29T06:33:44Z</time>
      </trkpt>
      <trkpt lat="45.43201" lon="5.90242">
        <ele>1649.4739990234</ele>
        <time>2017-05-29T06:33:49Z</time>
      </trkpt>
      <trkpt lat="45.4321" lon="5.90238">
        <ele>1648.4739990234</ele>
        <time>2017-05-29T06:34:01Z</time>
      </trkpt>
      <trkpt lat="45.43218" lon="5.90238">
        <ele>1651.4739990234</ele>
        <time>2017-05-29T06:34:09Z</time>
      </trkpt>
      <trkpt lat="45.43225" lon="5.90244">
        <ele>1651.4739990234</ele>
        <time>2017-05-29T06:34:41Z</time>
      </trkpt>
      <trkpt lat="45.43231" lon="5.90251">
        <ele>1650.4739990234</ele>
        <time>2017-05-29T06:34:46Z</time>
      </trkpt>
      <trkpt lat="45.43237" lon="5.90268">
        <ele>1653.4739990234</ele>
        <time>2017-05-29T06:34:53Z</time>
      </trkpt>
      <trkpt lat="45.43241" lon="5.90279">
        <ele>1651.4739990234</ele>
        <time>2017-05-29T06:34:59Z</time>
      </trkpt>
      <trkpt lat="45.43252" lon="5.90283">
        <ele>1651.4739990234</ele>
        <time>2017-05-29T06:35:07Z</time>
      </trkpt>
      <trkpt lat="45.43257" lon="5.90299">
        <ele>1652.4739990234</ele>
        <time>2017-05-29T06:35:15Z</time>
      </trkpt>
      <trkpt lat="45.43261" lon="5.90288">
        <ele>1652.4739990234</ele>
        <time>2017-05-29T06:35:17Z</time>
      </trkpt>
      <trkpt lat="45.43262" lon="5.90299">
        <ele>1652.4739990234</ele>
        <time>2017-05-29T06:35:21Z</time>
      </trkpt>
      <trkpt lat="45.43273" lon="5.90302">
        <ele>1653.4739990234</ele>
        <time>2017-05-29T06:35:31Z</time>
      </trkpt>
      <trkpt lat="45.43288" lon="5.90306">
        <ele>1652.4739990234</ele>
        <time>2017-05-29T06:35:39Z</time>
      </trkpt>
      <trkpt lat="45.43293" lon="5.90313">
        <ele>1653.4739990234</ele>
        <time>2017-05-29T06:35:45Z</time>
      </trkpt>
      <trkpt lat="45.43291" lon="5.90324">
        <ele>1655.4739990234</ele>
        <time>2017-05-29T06:35:49Z</time>
      </trkpt>
      <trkpt lat="45.43311" lon="5.9032">
        <ele>1658.4739990234</ele>
        <time>2017-05-29T06:36:00Z</time>
      </trkpt>
      <trkpt lat="45.43319" lon="5.90322">
        <ele>1658.4739990234</ele>
        <time>2017-05-29T06:36:06Z</time>
      </trkpt>
      <trkpt lat="45.43321" lon="5.90333">
        <ele>1655.4739990234</ele>
        <time>2017-05-29T06:36:38Z</time>
      </trkpt>
      <trkpt lat="45.43319" lon="5.90343">
        <ele>1653.4739990234</ele>
        <time>2017-05-29T06:37:44Z</time>
      </trkpt>
      <trkpt lat="45.43326" lon="5.90347">
        <ele>1650.4739990234</ele>
        <time>2017-05-29T06:37:54Z</time>
      </trkpt>
      <trkpt lat="45.43327" lon="5.90335">
        <ele>1649.4739990234</ele>
        <time>2017-05-29T06:38:10Z</time>
      </trkpt>
      <trkpt lat="45.43326" lon="5.90325">
        <ele>1650.4739990234</ele>
        <time>2017-05-29T06:38:21Z</time>
      </trkpt>
      <trkpt lat="45.43318" lon="5.90323">
        <ele>1647.4739990234</ele>
        <time>2017-05-29T06:38:35Z</time>
      </trkpt>
      <trkpt lat="45.43311" lon="5.90319">
        <ele>1649.4739990234</ele>
        <time>2017-05-29T06:38:41Z</time>
      </trkpt>
      <trkpt lat="45.43304" lon="5.90317">
        <ele>1649.4739990234</ele>
        <time>2017-05-29T06:38:48Z</time>
      </trkpt>
      <trkpt lat="45.433" lon="5.90308">
        <ele>1651.4739990234</ele>
        <time>2017-05-29T06:38:57Z</time>
      </trkpt>
      <trkpt lat="45.43292" lon="5.90309">
        <ele>1650.4739990234</ele>
        <time>2017-05-29T06:39:03Z</time>
      </trkpt>
      <trkpt lat="45.43285" lon="5.90305">
        <ele>1650.4739990234</ele>
        <time>2017-05-29T06:39:09Z</time>
      </trkpt>
      <trkpt lat="45.43278" lon="5.90297">
        <ele>1651.4739990234</ele>
        <time>2017-05-29T06:39:15Z</time>
      </trkpt>
      <trkpt lat="45.43273" lon="5.90288">
        <ele>1650.4739990234</ele>
        <time>2017-05-29T06:39:21Z</time>
      </trkpt>
      <trkpt lat="45.43254" lon="5.90272">
        <ele>1650.4739990234</ele>
        <time>2017-05-29T06:39:36Z</time>
      </trkpt>
      <trkpt lat="45.43243" lon="5.90258">
        <ele>1651.4739990234</ele>
        <time>2017-05-29T06:39:47Z</time>
      </trkpt>
      <trkpt lat="45.43237" lon="5.9025">
        <ele>1654.4739990234</ele>
        <time>2017-05-29T06:39:53Z</time>
      </trkpt>
      <trkpt lat="45.43229" lon="5.90248">
        <ele>1655.4739990234</ele>
        <time>2017-05-29T06:40:00Z</time>
      </trkpt>
      <trkpt lat="45.43221" lon="5.90253">
        <ele>1655.4739990234</ele>
        <time>2017-05-29T06:40:07Z</time>
      </trkpt>
      <trkpt lat="45.43213" lon="5.90249">
        <ele>1655.4739990234</ele>
        <time>2017-05-29T06:40:18Z</time>
      </trkpt>
      <trkpt lat="45.43209" lon="5.90241">
        <ele>1664.4739990234</ele>
        <time>2017-05-29T06:40:56Z</time>
      </trkpt>
      <trkpt lat="45.43201" lon="5.90251">
        <ele>1663.4739990234</ele>
        <time>2017-05-29T06:41:05Z</time>
      </trkpt>
      <trkpt lat="45.43194" lon="5.90252">
        <ele>1667.4739990234</ele>
        <time>2017-05-29T06:41:12Z</time>
      </trkpt>
      <trkpt lat="45.43187" lon="5.90258">
        <ele>1663.4739990234</ele>
        <time>2017-05-29T06:41:44Z</time>
      </trkpt>
      <trkpt lat="45.43189" lon="5.90268">
        <ele>1673.4739990234</ele>
        <time>2017-05-29T06:42:48Z</time>
      </trkpt>
      <trkpt lat="45.43189" lon="5.90279">
        <ele>1680.4739990234</ele>
        <time>2017-05-29T06:43:16Z</time>
      </trkpt>
      <trkpt lat="45.43182" lon="5.90276">
        <ele>1684.4739990234</ele>
        <time>2017-05-29T06:43:26Z</time>
      </trkpt>
      <trkpt lat="45.43175" lon="5.90273">
        <ele>1687.4739990234</ele>
        <time>2017-05-29T06:43:35Z</time>
      </trkpt>
      <trkpt lat="45.43167" lon="5.90274">
        <ele>1688.4739990234</ele>
        <time>2017-05-29T06:43:54Z</time>
      </trkpt>
      <trkpt lat="45.4316" lon="5.9027">
        <ele>1687.4739990234</ele>
        <time>2017-05-29T06:44:01Z</time>
      </trkpt>
      <trkpt lat="45.43154" lon="5.90264">
        <ele>1689.4739990234</ele>
        <time>2017-05-29T06:44:10Z</time>
      </trkpt>
      <trkpt lat="45.43147" lon="5.9026">
        <ele>1687.4739990234</ele>
        <time>2017-05-29T06:44:23Z</time>
      </trkpt>
      <trkpt lat="45.43139" lon="5.90258">
        <ele>1688.4739990234</ele>
        <time>2017-05-29T06:44:33Z</time>
      </trkpt>
      <trkpt lat="45.43132" lon="5.90254">
        <ele>1689.4739990234</ele>
        <time>2017-05-29T06:44:42Z</time>
      </trkpt>
      <trkpt lat="45.43124" lon="5.90253">
        <ele>1695.4739990234</ele>
        <time>2017-05-29T06:44:54Z</time>
      </trkpt>
      <trkpt lat="45.43116" lon="5.90255">
        <ele>1698.4739990234</ele>
        <time>2017-05-29T06:45:07Z</time>
      </trkpt>
      <trkpt lat="45.43109" lon="5.90253">
        <ele>1698.4739990234</ele>
        <time>2017-05-29T06:45:19Z</time>
      </trkpt>
      <trkpt lat="45.43104" lon="5.90261">
        <ele>1696.4739990234</ele>
        <time>2017-05-29T06:45:27Z</time>
      </trkpt>
      <trkpt lat="45.43095" lon="5.90263">
        <ele>1692.4739990234</ele>
        <time>2017-05-29T06:45:35Z</time>
      </trkpt>
      <trkpt lat="45.43088" lon="5.90267">
        <ele>1692.4739990234</ele>
        <time>2017-05-29T06:45:43Z</time>
      </trkpt>
      <trkpt lat="45.43079" lon="5.9027">
        <ele>1691.4739990234</ele>
        <time>2017-05-29T06:45:56Z</time>
      </trkpt>
      <trkpt lat="45.43072" lon="5.90276">
        <ele>1691.4739990234</ele>
        <time>2017-05-29T06:46:04Z</time>
      </trkpt>
      <trkpt lat="45.43065" lon="5.90279">
        <ele>1689.4739990234</ele>
        <time>2017-05-29T06:46:11Z</time>
      </trkpt>
      <trkpt lat="45.43058" lon="5.90281">
        <ele>1690.4739990234</ele>
        <time>2017-05-29T06:46:19Z</time>
      </trkpt>
      <trkpt lat="45.4305" lon="5.90278">
        <ele>1689.4739990234</ele>
        <time>2017-05-29T06:46:27Z</time>
      </trkpt>
      <trkpt lat="45.43044" lon="5.90284">
        <ele>1688.4739990234</ele>
        <time>2017-05-29T06:46:35Z</time>
      </trkpt>
      <trkpt lat="45.43037" lon="5.90289">
        <ele>1695.4739990234</ele>
        <time>2017-05-29T06:47:01Z</time>
      </trkpt>
      <trkpt lat="45.43029" lon="5.90285">
        <ele>1697.4739990234</ele>
        <time>2017-05-29T06:47:11Z</time>
      </trkpt>
      <trkpt lat="45.43022" lon="5.90285">
        <ele>1697.4739990234</ele>
        <time>2017-05-29T06:47:25Z</time>
      </trkpt>
      <trkpt lat="45.43014" lon="5.90287">
        <ele>1699.4739990234</ele>
        <time>2017-05-29T06:47:34Z</time>
      </trkpt>
      <trkpt lat="45.43007" lon="5.90286">
        <ele>1702.4739990234</ele>
        <time>2017-05-29T06:47:53Z</time>
      </trkpt>
      <trkpt lat="45.43002" lon="5.90293">
        <ele>1706.4739990234</ele>
        <time>2017-05-29T06:48:18Z</time>
      </trkpt>
      <trkpt lat="45.42999" lon="5.90307">
        <ele>1703.4739990234</ele>
        <time>2017-05-29T06:49:05Z</time>
      </trkpt>
      <trkpt lat="45.43006" lon="5.90311">
        <ele>1708.4739990234</ele>
        <time>2017-05-29T06:49:12Z</time>
      </trkpt>
      <trkpt lat="45.43011" lon="5.90319">
        <ele>1719.4739990234</ele>
        <time>2017-05-29T06:50:27Z</time>
      </trkpt>
      <trkpt lat="45.43016" lon="5.90327">
        <ele>1721.4739990234</ele>
        <time>2017-05-29T06:50:49Z</time>
      </trkpt>
      <trkpt lat="45.43023" lon="5.90327">
        <ele>1720.4739990234</ele>
        <time>2017-05-29T06:51:00Z</time>
      </trkpt>
      <trkpt lat="45.43027" lon="5.90338">
        <ele>1721.4739990234</ele>
        <time>2017-05-29T06:51:11Z</time>
      </trkpt>
      <trkpt lat="45.43025" lon="5.9035">
        <ele>1725.4739990234</ele>
        <time>2017-05-29T06:51:16Z</time>
      </trkpt>
      <trkpt lat="45.43032" lon="5.90346">
        <ele>1725.4739990234</ele>
        <time>2017-05-29T06:51:23Z</time>
      </trkpt>
      <trkpt lat="45.4304" lon="5.9035">
        <ele>1724.4739990234</ele>
        <time>2017-05-29T06:51:46Z</time>
      </trkpt>
      <trkpt lat="45.43046" lon="5.90356">
        <ele>1733.4739990234</ele>
        <time>2017-05-29T06:52:10Z</time>
      </trkpt>
      <trkpt lat="45.43051" lon="5.90364">
        <ele>1731.4739990234</ele>
        <time>2017-05-29T06:52:51Z</time>
      </trkpt>
      <trkpt lat="45.43058" lon="5.90367">
        <ele>1733.4739990234</ele>
        <time>2017-05-29T06:52:56Z</time>
      </trkpt>
      <trkpt lat="45.43074" lon="5.90368">
        <ele>1736.4739990234</ele>
        <time>2017-05-29T06:53:05Z</time>
      </trkpt>
      <trkpt lat="45.43087" lon="5.90359">
        <ele>1744.4739990234</ele>
        <time>2017-05-29T06:53:16Z</time>
      </trkpt>
      <trkpt lat="45.43095" lon="5.90359">
        <ele>1738.4739990234</ele>
        <time>2017-05-29T06:53:58Z</time>
      </trkpt>
      <trkpt lat="45.4311" lon="5.90362">
        <ele>1740.4739990234</ele>
        <time>2017-05-29T06:54:07Z</time>
      </trkpt>
      <trkpt lat="45.43115" lon="5.90351">
        <ele>1741.4739990234</ele>
        <time>2017-05-29T06:54:13Z</time>
      </trkpt>
      <trkpt lat="45.43124" lon="5.90351">
        <ele>1743.4739990234</ele>
        <time>2017-05-29T06:54:19Z</time>
      </trkpt>
      <trkpt lat="45.43131" lon="5.90345">
        <ele>1743.4739990234</ele>
        <time>2017-05-29T06:54:27Z</time>
      </trkpt>
      <trkpt lat="45.43124" lon="5.90339">
        <ele>1749.4739990234</ele>
        <time>2017-05-29T06:54:36Z</time>
      </trkpt>
      <trkpt lat="45.43125" lon="5.9035">
        <ele>1753.4739990234</ele>
        <time>2017-05-29T06:54:42Z</time>
      </trkpt>
      <trkpt lat="45.43132" lon="5.90344">
        <ele>1753.4739990234</ele>
        <time>2017-05-29T06:55:10Z</time>
      </trkpt>
      <trkpt lat="45.4314" lon="5.9034">
        <ele>1752.4739990234</ele>
        <time>2017-05-29T06:55:57Z</time>
      </trkpt>
      <trkpt lat="45.43148" lon="5.90333">
        <ele>1756.4739990234</ele>
        <time>2017-05-29T06:56:07Z</time>
      </trkpt>
      <trkpt lat="45.43162" lon="5.90345">
        <ele>1751.4739990234</ele>
        <time>2017-05-29T06:56:21Z</time>
      </trkpt>
      <trkpt lat="45.4317" lon="5.90346">
        <ele>1750.4739990234</ele>
        <time>2017-05-29T06:56:30Z</time>
      </trkpt>
      <trkpt lat="45.43177" lon="5.90343">
        <ele>1751.4739990234</ele>
        <time>2017-05-29T06:56:41Z</time>
      </trkpt>
      <trkpt lat="45.43184" lon="5.90336">
        <ele>1754.4739990234</ele>
        <time>2017-05-29T06:56:53Z</time>
      </trkpt>
      <trkpt lat="45.43193" lon="5.90341">
        <ele>1751.4739990234</ele>
        <time>2017-05-29T06:57:00Z</time>
      </trkpt>
      <trkpt lat="45.432" lon="5.90332">
        <ele>1753.4739990234</ele>
        <time>2017-05-29T06:57:20Z</time>
      </trkpt>
      <trkpt lat="45.43208" lon="5.90321">
        <ele>1753.4739990234</ele>
        <time>2017-05-29T06:57:28Z</time>
      </trkpt>
      <trkpt lat="45.43214" lon="5.90318">
        <ele>1753.4739990234</ele>
        <time>2017-05-29T06:57:34Z</time>
      </trkpt>
      <trkpt lat="45.43221" lon="5.90315">
        <ele>1755.4739990234</ele>
        <time>2017-05-29T06:57:46Z</time>
      </trkpt>
      <trkpt lat="45.43228" lon="5.9032">
        <ele>1758.4739990234</ele>
        <time>2017-05-29T06:57:55Z</time>
      </trkpt>
      <trkpt lat="45.43239" lon="5.90318">
        <ele>1758.4739990234</ele>
        <time>2017-05-29T06:58:22Z</time>
      </trkpt>
      <trkpt lat="45.43227" lon="5.90309">
        <ele>1757.4739990234</ele>
        <time>2017-05-29T06:58:43Z</time>
      </trkpt>
      <trkpt lat="45.43221" lon="5.90314">
        <ele>1759.4739990234</ele>
        <time>2017-05-29T06:58:52Z</time>
      </trkpt>
      <trkpt lat="45.43215" lon="5.90321">
        <ele>1756.4739990234</ele>
        <time>2017-05-29T06:59:00Z</time>
      </trkpt>
      <trkpt lat="45.43207" lon="5.90321">
        <ele>1755.4739990234</ele>
        <time>2017-05-29T06:59:07Z</time>
      </trkpt>
      <trkpt lat="45.43201" lon="5.90327">
        <ele>1754.4739990234</ele>
        <time>2017-05-29T06:59:17Z</time>
      </trkpt>
      <trkpt lat="45.43193" lon="5.90331">
        <ele>1759.4739990234</ele>
        <time>2017-05-29T06:59:29Z</time>
      </trkpt>
      <trkpt lat="45.43187" lon="5.90337">
        <ele>1756.4739990234</ele>
        <time>2017-05-29T06:59:46Z</time>
      </trkpt>
      <trkpt lat="45.4318" lon="5.9034">
        <ele>1759.4739990234</ele>
        <time>2017-05-29T07:00:01Z</time>
      </trkpt>
      <trkpt lat="45.43174" lon="5.90348">
        <ele>1761.4739990234</ele>
        <time>2017-05-29T07:00:20Z</time>
      </trkpt>
      <trkpt lat="45.43163" lon="5.9035">
        <ele>1760.4739990234</ele>
        <time>2017-05-29T07:01:31Z</time>
      </trkpt>
      <trkpt lat="45.43155" lon="5.90346">
        <ele>1760.4739990234</ele>
        <time>2017-05-29T07:01:40Z</time>
      </trkpt>
      <trkpt lat="45.43149" lon="5.90339">
        <ele>1762.4739990234</ele>
        <time>2017-05-29T07:01:49Z</time>
      </trkpt>
      <trkpt lat="45.43141" lon="5.9034">
        <ele>1764.4739990234</ele>
        <time>2017-05-29T07:02:03Z</time>
      </trkpt>
      <trkpt lat="45.43133" lon="5.90342">
        <ele>1763.4739990234</ele>
        <time>2017-05-29T07:02:22Z</time>
      </trkpt>
      <trkpt lat="45.43125" lon="5.90348">
        <ele>1762.4739990234</ele>
        <time>2017-05-29T07:02:47Z</time>
      </trkpt>
      <trkpt lat="45.43118" lon="5.90353">
        <ele>1759.4739990234</ele>
        <time>2017-05-29T07:02:57Z</time>
      </trkpt>
      <trkpt lat="45.43112" lon="5.90359">
        <ele>1761.4739990234</ele>
        <time>2017-05-29T07:03:07Z</time>
      </trkpt>
      <trkpt lat="45.43107" lon="5.90366">
        <ele>1761.4739990234</ele>
        <time>2017-05-29T07:03:19Z</time>
      </trkpt>
      <trkpt lat="45.431" lon="5.90372">
        <ele>1762.4739990234</ele>
        <time>2017-05-29T07:03:25Z</time>
      </trkpt>
      <trkpt lat="45.43093" lon="5.90372">
        <ele>1766.4739990234</ele>
        <time>2017-05-29T07:03:32Z</time>
      </trkpt>
      <trkpt lat="45.43087" lon="5.90379">
        <ele>1768.4739990234</ele>
        <time>2017-05-29T07:04:23Z</time>
      </trkpt>
      <trkpt lat="45.43092" lon="5.90392">
        <ele>1766.4739990234</ele>
        <time>2017-05-29T07:06:10Z</time>
      </trkpt>
      <trkpt lat="45.43107" lon="5.90386">
        <ele>1764.4739990234</ele>
        <time>2017-05-29T07:06:16Z</time>
      </trkpt>
      <trkpt lat="45.43113" lon="5.90394">
        <ele>1764.4739990234</ele>
        <time>2017-05-29T07:06:23Z</time>
      </trkpt>
      <trkpt lat="45.43115" lon="5.90384">
        <ele>1769.4739990234</ele>
        <time>2017-05-29T07:06:37Z</time>
      </trkpt>
      <trkpt lat="45.43123" lon="5.90383">
        <ele>1772.4739990234</ele>
        <time>2017-05-29T07:07:39Z</time>
      </trkpt>
      <trkpt lat="45.43132" lon="5.90379">
        <ele>1774.4739990234</ele>
        <time>2017-05-29T07:08:02Z</time>
      </trkpt>
      <trkpt lat="45.43137" lon="5.9037">
        <ele>1776.4739990234</ele>
        <time>2017-05-29T07:08:23Z</time>
      </trkpt>
      <trkpt lat="45.43145" lon="5.90364">
        <ele>1777.4739990234</ele>
        <time>2017-05-29T07:08:28Z</time>
      </trkpt>
      <trkpt lat="45.43152" lon="5.90361">
        <ele>1777.4739990234</ele>
        <time>2017-05-29T07:08:43Z</time>
      </trkpt>
      <trkpt lat="45.43154" lon="5.90372">
        <ele>1777.4739990234</ele>
        <time>2017-05-29T07:12:32Z</time>
      </trkpt>
      <trkpt lat="45.43151" lon="5.90382">
        <ele>1801.4739990234</ele>
        <time>2017-05-29T07:14:15Z</time>
      </trkpt>
      <trkpt lat="45.43146" lon="5.9039">
        <ele>1807.4739990234</ele>
        <time>2017-05-29T07:14:49Z</time>
      </trkpt>
      <trkpt lat="45.4314" lon="5.90396">
        <ele>1817.4739990234</ele>
        <time>2017-05-29T07:15:45Z</time>
      </trkpt>
      <trkpt lat="45.43132" lon="5.90396">
        <ele>1814.4739990234</ele>
        <time>2017-05-29T07:15:59Z</time>
      </trkpt>
      <trkpt lat="45.43126" lon="5.90402">
        <ele>1811.4739990234</ele>
        <time>2017-05-29T07:16:04Z</time>
      </trkpt>
      <trkpt lat="45.43121" lon="5.90409">
        <ele>1810.4739990234</ele>
        <time>2017-05-29T07:16:12Z</time>
      </trkpt>
      <trkpt lat="45.43114" lon="5.90414">
        <ele>1810.4739990234</ele>
        <time>2017-05-29T07:16:21Z</time>
      </trkpt>
      <trkpt lat="45.43108" lon="5.9042">
        <ele>1813.4739990234</ele>
        <time>2017-05-29T07:16:26Z</time>
      </trkpt>
      <trkpt lat="45.43101" lon="5.90423">
        <ele>1814.4739990234</ele>
        <time>2017-05-29T07:16:44Z</time>
      </trkpt>
      <trkpt lat="45.43094" lon="5.90429">
        <ele>1814.4739990234</ele>
        <time>2017-05-29T07:16:49Z</time>
      </trkpt>
      <trkpt lat="45.43086" lon="5.9043">
        <ele>1814.4739990234</ele>
        <time>2017-05-29T07:16:57Z</time>
      </trkpt>
      <trkpt lat="45.43078" lon="5.90435">
        <ele>1815.4739990234</ele>
        <time>2017-05-29T07:17:04Z</time>
      </trkpt>
      <trkpt lat="45.43065" lon="5.90444">
        <ele>1813.4739990234</ele>
        <time>2017-05-29T07:17:14Z</time>
      </trkpt>
      <trkpt lat="45.43057" lon="5.90446">
        <ele>1810.4739990234</ele>
        <time>2017-05-29T07:17:22Z</time>
      </trkpt>
      <trkpt lat="45.43049" lon="5.90447">
        <ele>1810.4739990234</ele>
        <time>2017-05-29T07:17:28Z</time>
      </trkpt>
      <trkpt lat="45.43041" lon="5.90446">
        <ele>1810.4739990234</ele>
        <time>2017-05-29T07:17:34Z</time>
      </trkpt>
      <trkpt lat="45.43034" lon="5.90443">
        <ele>1807.4739990234</ele>
        <time>2017-05-29T07:17:48Z</time>
      </trkpt>
      <trkpt lat="45.43028" lon="5.90437">
        <ele>1807.4739990234</ele>
        <time>2017-05-29T07:17:56Z</time>
      </trkpt>
      <trkpt lat="45.43021" lon="5.90431">
        <ele>1807.4739990234</ele>
        <time>2017-05-29T07:18:01Z</time>
      </trkpt>
      <trkpt lat="45.43014" lon="5.90429">
        <ele>1808.4739990234</ele>
        <time>2017-05-29T07:18:06Z</time>
      </trkpt>
      <trkpt lat="45.43007" lon="5.90434">
        <ele>1808.4739990234</ele>
        <time>2017-05-29T07:18:13Z</time>
      </trkpt>
      <trkpt lat="45.43001" lon="5.90428">
        <ele>1809.4739990234</ele>
        <time>2017-05-29T07:18:22Z</time>
      </trkpt>
      <trkpt lat="45.42993" lon="5.90426">
        <ele>1810.4739990234</ele>
        <time>2017-05-29T07:19:12Z</time>
      </trkpt>
      <trkpt lat="45.42985" lon="5.90426">
        <ele>1809.4739990234</ele>
        <time>2017-05-29T07:19:23Z</time>
      </trkpt>
      <trkpt lat="45.42971" lon="5.90415">
        <ele>1810.4739990234</ele>
        <time>2017-05-29T07:19:33Z</time>
      </trkpt>
      <trkpt lat="45.42964" lon="5.9041">
        <ele>1811.4739990234</ele>
        <time>2017-05-29T07:19:41Z</time>
      </trkpt>
      <trkpt lat="45.42957" lon="5.90407">
        <ele>1812.4739990234</ele>
        <time>2017-05-29T07:19:47Z</time>
      </trkpt>
      <trkpt lat="45.42951" lon="5.90402">
        <ele>1809.4739990234</ele>
        <time>2017-05-29T07:19:55Z</time>
      </trkpt>
      <trkpt lat="45.42943" lon="5.90397">
        <ele>1811.4739990234</ele>
        <time>2017-05-29T07:20:00Z</time>
      </trkpt>
      <trkpt lat="45.42937" lon="5.90391">
        <ele>1812.4739990234</ele>
        <time>2017-05-29T07:20:08Z</time>
      </trkpt>
      <trkpt lat="45.42931" lon="5.90384">
        <ele>1813.4739990234</ele>
        <time>2017-05-29T07:20:15Z</time>
      </trkpt>
      <trkpt lat="45.42924" lon="5.90377">
        <ele>1816.4730224609</ele>
        <time>2017-05-29T07:20:22Z</time>
      </trkpt>
      <trkpt lat="45.42917" lon="5.9038">
        <ele>1816.4730224609</ele>
        <time>2017-05-29T07:20:28Z</time>
      </trkpt>
      <trkpt lat="45.42908" lon="5.90381">
        <ele>1817.4730224609</ele>
        <time>2017-05-29T07:20:37Z</time>
      </trkpt>
      <trkpt lat="45.429" lon="5.90386">
        <ele>1816.4730224609</ele>
        <time>2017-05-29T07:20:54Z</time>
      </trkpt>
      <trkpt lat="45.42892" lon="5.9039">
        <ele>1814.4730224609</ele>
        <time>2017-05-29T07:21:04Z</time>
      </trkpt>
      <trkpt lat="45.42887" lon="5.90397">
        <ele>1812.4730224609</ele>
        <time>2017-05-29T07:21:13Z</time>
      </trkpt>
      <trkpt lat="45.4288" lon="5.90404">
        <ele>1808.4730224609</ele>
        <time>2017-05-29T07:21:23Z</time>
      </trkpt>
      <trkpt lat="45.42872" lon="5.90409">
        <ele>1806.4730224609</ele>
        <time>2017-05-29T07:21:35Z</time>
      </trkpt>
      <trkpt lat="45.42864" lon="5.90413">
        <ele>1809.4730224609</ele>
        <time>2017-05-29T07:21:41Z</time>
      </trkpt>
      <trkpt lat="45.42855" lon="5.90416">
        <ele>1809.4730224609</ele>
        <time>2017-05-29T07:21:48Z</time>
      </trkpt>
      <trkpt lat="45.42847" lon="5.90415">
        <ele>1811.4730224609</ele>
        <time>2017-05-29T07:21:55Z</time>
      </trkpt>
      <trkpt lat="45.4284" lon="5.90413">
        <ele>1810.4730224609</ele>
        <time>2017-05-29T07:22:02Z</time>
      </trkpt>
      <trkpt lat="45.42832" lon="5.90411">
        <ele>1812.4730224609</ele>
        <time>2017-05-29T07:22:11Z</time>
      </trkpt>
      <trkpt lat="45.42825" lon="5.90411">
        <ele>1812.4730224609</ele>
        <time>2017-05-29T07:22:17Z</time>
      </trkpt>
      <trkpt lat="45.42808" lon="5.90403">
        <ele>1811.4730224609</ele>
        <time>2017-05-29T07:22:39Z</time>
      </trkpt>
      <trkpt lat="45.42786" lon="5.90402">
        <ele>1812.4730224609</ele>
        <time>2017-05-29T07:23:00Z</time>
      </trkpt>
      <trkpt lat="45.4278" lon="5.90397">
        <ele>1811.4730224609</ele>
        <time>2017-05-29T07:23:07Z</time>
      </trkpt>
      <trkpt lat="45.42772" lon="5.90391">
        <ele>1813.4730224609</ele>
        <time>2017-05-29T07:23:16Z</time>
      </trkpt>
      <trkpt lat="45.42765" lon="5.90393">
        <ele>1814.4730224609</ele>
        <time>2017-05-29T07:23:25Z</time>
      </trkpt>
      <trkpt lat="45.42758" lon="5.90392">
        <ele>1812.4730224609</ele>
        <time>2017-05-29T07:23:32Z</time>
      </trkpt>
      <trkpt lat="45.4275" lon="5.9039">
        <ele>1811.4730224609</ele>
        <time>2017-05-29T07:23:39Z</time>
      </trkpt>
      <trkpt lat="45.42743" lon="5.90386">
        <ele>1810.4730224609</ele>
        <time>2017-05-29T07:23:45Z</time>
      </trkpt>
      <trkpt lat="45.42736" lon="5.90383">
        <ele>1809.4730224609</ele>
        <time>2017-05-29T07:23:53Z</time>
      </trkpt>
      <trkpt lat="45.42729" lon="5.90379">
        <ele>1808.4730224609</ele>
        <time>2017-05-29T07:23:59Z</time>
      </trkpt>
      <trkpt lat="45.4272" lon="5.90379">
        <ele>1811.4730224609</ele>
        <time>2017-05-29T07:24:07Z</time>
      </trkpt>
      <trkpt lat="45.42712" lon="5.90381">
        <ele>1812.4730224609</ele>
        <time>2017-05-29T07:24:16Z</time>
      </trkpt>
      <trkpt lat="45.42704" lon="5.90379">
        <ele>1812.4730224609</ele>
        <time>2017-05-29T07:24:21Z</time>
      </trkpt>
      <trkpt lat="45.42699" lon="5.90371">
        <ele>1811.4730224609</ele>
        <time>2017-05-29T07:24:27Z</time>
      </trkpt>
      <trkpt lat="45.42692" lon="5.90369">
        <ele>1812.4730224609</ele>
        <time>2017-05-29T07:24:35Z</time>
      </trkpt>
      <trkpt lat="45.42684" lon="5.90372">
        <ele>1811.4730224609</ele>
        <time>2017-05-29T07:24:43Z</time>
      </trkpt>
      <trkpt lat="45.42672" lon="5.90364">
        <ele>1812.4730224609</ele>
        <time>2017-05-29T07:25:11Z</time>
      </trkpt>
      <trkpt lat="45.42665" lon="5.90359">
        <ele>1811.4730224609</ele>
        <time>2017-05-29T07:25:17Z</time>
      </trkpt>
      <trkpt lat="45.42658" lon="5.90354">
        <ele>1811.4730224609</ele>
        <time>2017-05-29T07:25:25Z</time>
      </trkpt>
      <trkpt lat="45.42645" lon="5.9034">
        <ele>1814.4730224609</ele>
        <time>2017-05-29T07:25:42Z</time>
      </trkpt>
      <trkpt lat="45.42647" lon="5.90349">
        <ele>1814.4730224609</ele>
        <time>2017-05-29T07:25:47Z</time>
      </trkpt>
      <trkpt lat="45.42641" lon="5.90343">
        <ele>1810.4730224609</ele>
        <time>2017-05-29T07:26:16Z</time>
      </trkpt>
      <trkpt lat="45.42634" lon="5.90337">
        <ele>1813.4730224609</ele>
        <time>2017-05-29T07:26:45Z</time>
      </trkpt>
      <trkpt lat="45.42627" lon="5.90341">
        <ele>1811.4730224609</ele>
        <time>2017-05-29T07:26:53Z</time>
      </trkpt>
      <trkpt lat="45.42621" lon="5.90348">
        <ele>1811.4730224609</ele>
        <time>2017-05-29T07:27:02Z</time>
      </trkpt>
      <trkpt lat="45.42613" lon="5.90354">
        <ele>1813.4730224609</ele>
        <time>2017-05-29T07:27:10Z</time>
      </trkpt>
      <trkpt lat="45.42605" lon="5.90357">
        <ele>1816.4730224609</ele>
        <time>2017-05-29T07:27:17Z</time>
      </trkpt>
      <trkpt lat="45.42597" lon="5.90363">
        <ele>1814.4730224609</ele>
        <time>2017-05-29T07:27:25Z</time>
      </trkpt>
      <trkpt lat="45.42588" lon="5.90363">
        <ele>1813.4730224609</ele>
        <time>2017-05-29T07:27:33Z</time>
      </trkpt>
      <trkpt lat="45.4258" lon="5.90364">
        <ele>1811.4730224609</ele>
        <time>2017-05-29T07:27:40Z</time>
      </trkpt>
      <trkpt lat="45.42572" lon="5.90363">
        <ele>1812.4730224609</ele>
        <time>2017-05-29T07:27:46Z</time>
      </trkpt>
      <trkpt lat="45.42565" lon="5.90361">
        <ele>1813.4730224609</ele>
        <time>2017-05-29T07:27:53Z</time>
      </trkpt>
      <trkpt lat="45.42557" lon="5.90361">
        <ele>1811.4730224609</ele>
        <time>2017-05-29T07:28:01Z</time>
      </trkpt>
      <trkpt lat="45.4255" lon="5.90358">
        <ele>1811.4730224609</ele>
        <time>2017-05-29T07:28:09Z</time>
      </trkpt>
      <trkpt lat="45.42541" lon="5.90355">
        <ele>1812.4730224609</ele>
        <time>2017-05-29T07:28:16Z</time>
      </trkpt>
      <trkpt lat="45.42525" lon="5.90348">
        <ele>1810.4730224609</ele>
        <time>2017-05-29T07:28:30Z</time>
      </trkpt>
      <trkpt lat="45.42518" lon="5.90345">
        <ele>1810.4730224609</ele>
        <time>2017-05-29T07:28:37Z</time>
      </trkpt>
      <trkpt lat="45.42512" lon="5.90339">
        <ele>1811.4730224609</ele>
        <time>2017-05-29T07:28:44Z</time>
      </trkpt>
      <trkpt lat="45.42499" lon="5.90329">
        <ele>1810.4730224609</ele>
        <time>2017-05-29T07:29:01Z</time>
      </trkpt>
      <trkpt lat="45.42489" lon="5.90322">
        <ele>1810.4730224609</ele>
        <time>2017-05-29T07:29:11Z</time>
      </trkpt>
      <trkpt lat="45.4248" lon="5.90315">
        <ele>1812.4720458984</ele>
        <time>2017-05-29T07:29:20Z</time>
      </trkpt>
      <trkpt lat="45.42469" lon="5.90301">
        <ele>1814.4720458984</ele>
        <time>2017-05-29T07:29:33Z</time>
      </trkpt>
      <trkpt lat="45.42462" lon="5.90295">
        <ele>1815.4720458984</ele>
        <time>2017-05-29T07:29:40Z</time>
      </trkpt>
      <trkpt lat="45.42455" lon="5.9029">
        <ele>1814.4720458984</ele>
        <time>2017-05-29T07:29:49Z</time>
      </trkpt>
      <trkpt lat="45.42449" lon="5.90283">
        <ele>1814.4720458984</ele>
        <time>2017-05-29T07:29:55Z</time>
      </trkpt>
      <trkpt lat="45.42443" lon="5.90279">
        <ele>1816.4720458984</ele>
        <time>2017-05-29T07:30:03Z</time>
      </trkpt>
      <trkpt lat="45.42436" lon="5.90273">
        <ele>1815.4720458984</ele>
        <time>2017-05-29T07:30:11Z</time>
      </trkpt>
      <trkpt lat="45.42429" lon="5.90267">
        <ele>1814.4720458984</ele>
        <time>2017-05-29T07:30:18Z</time>
      </trkpt>
      <trkpt lat="45.42422" lon="5.90265">
        <ele>1815.4720458984</ele>
        <time>2017-05-29T07:30:25Z</time>
      </trkpt>
      <trkpt lat="45.42412" lon="5.90261">
        <ele>1817.4720458984</ele>
        <time>2017-05-29T07:30:40Z</time>
      </trkpt>
      <trkpt lat="45.42408" lon="5.90253">
        <ele>1817.4720458984</ele>
        <time>2017-05-29T07:30:47Z</time>
      </trkpt>
      <trkpt lat="45.424" lon="5.90252">
        <ele>1818.4720458984</ele>
        <time>2017-05-29T07:30:57Z</time>
      </trkpt>
      <trkpt lat="45.42394" lon="5.90246">
        <ele>1817.4720458984</ele>
        <time>2017-05-29T07:31:34Z</time>
      </trkpt>
      <trkpt lat="45.42386" lon="5.90247">
        <ele>1817.4720458984</ele>
        <time>2017-05-29T07:31:41Z</time>
      </trkpt>
      <trkpt lat="45.42379" lon="5.9025">
        <ele>1816.4720458984</ele>
        <time>2017-05-29T07:32:42Z</time>
      </trkpt>
      <trkpt lat="45.42372" lon="5.90253">
        <ele>1814.4720458984</ele>
        <time>2017-05-29T07:32:51Z</time>
      </trkpt>
      <trkpt lat="45.42365" lon="5.9025">
        <ele>1817.4720458984</ele>
        <time>2017-05-29T07:32:57Z</time>
      </trkpt>
      <trkpt lat="45.42357" lon="5.90256">
        <ele>1815.4720458984</ele>
        <time>2017-05-29T07:33:03Z</time>
      </trkpt>
      <trkpt lat="45.42348" lon="5.90257">
        <ele>1813.4720458984</ele>
        <time>2017-05-29T07:33:12Z</time>
      </trkpt>
      <trkpt lat="45.42342" lon="5.90263">
        <ele>1814.4720458984</ele>
        <time>2017-05-29T07:33:18Z</time>
      </trkpt>
      <trkpt lat="45.42335" lon="5.90259">
        <ele>1815.4720458984</ele>
        <time>2017-05-29T07:33:30Z</time>
      </trkpt>
      <trkpt lat="45.42327" lon="5.90257">
        <ele>1814.4720458984</ele>
        <time>2017-05-29T07:33:37Z</time>
      </trkpt>
      <trkpt lat="45.42321" lon="5.90248">
        <ele>1814.4720458984</ele>
        <time>2017-05-29T07:33:43Z</time>
      </trkpt>
      <trkpt lat="45.42313" lon="5.90248">
        <ele>1812.4720458984</ele>
        <time>2017-05-29T07:33:49Z</time>
      </trkpt>
      <trkpt lat="45.42304" lon="5.90249">
        <ele>1813.4720458984</ele>
        <time>2017-05-29T07:33:59Z</time>
      </trkpt>
      <trkpt lat="45.42297" lon="5.90243">
        <ele>1814.4720458984</ele>
        <time>2017-05-29T07:34:06Z</time>
      </trkpt>
      <trkpt lat="45.42292" lon="5.90233">
        <ele>1815.4720458984</ele>
        <time>2017-05-29T07:34:12Z</time>
      </trkpt>
      <trkpt lat="45.42272" lon="5.9022">
        <ele>1816.4720458984</ele>
        <time>2017-05-29T07:34:35Z</time>
      </trkpt>
      <trkpt lat="45.42266" lon="5.90212">
        <ele>1817.4720458984</ele>
        <time>2017-05-29T07:34:46Z</time>
      </trkpt>
      <trkpt lat="45.4226" lon="5.90206">
        <ele>1818.4720458984</ele>
        <time>2017-05-29T07:34:55Z</time>
      </trkpt>
      <trkpt lat="45.42253" lon="5.90201">
        <ele>1819.4720458984</ele>
        <time>2017-05-29T07:35:01Z</time>
      </trkpt>
      <trkpt lat="45.42248" lon="5.90195">
        <ele>1820.4720458984</ele>
        <time>2017-05-29T07:35:10Z</time>
      </trkpt>
      <trkpt lat="45.42243" lon="5.90187">
        <ele>1821.4720458984</ele>
        <time>2017-05-29T07:35:16Z</time>
      </trkpt>
      <trkpt lat="45.42236" lon="5.90183">
        <ele>1823.4720458984</ele>
        <time>2017-05-29T07:35:30Z</time>
      </trkpt>
      <trkpt lat="45.42229" lon="5.9018">
        <ele>1822.4720458984</ele>
        <time>2017-05-29T07:35:39Z</time>
      </trkpt>
      <trkpt lat="45.42222" lon="5.90185">
        <ele>1822.4720458984</ele>
        <time>2017-05-29T07:35:44Z</time>
      </trkpt>
      <trkpt lat="45.42214" lon="5.9019">
        <ele>1821.4720458984</ele>
        <time>2017-05-29T07:35:51Z</time>
      </trkpt>
      <trkpt lat="45.42206" lon="5.90193">
        <ele>1820.4720458984</ele>
        <time>2017-05-29T07:36:10Z</time>
      </trkpt>
      <trkpt lat="45.42199" lon="5.90197">
        <ele>1819.4720458984</ele>
        <time>2017-05-29T07:36:19Z</time>
      </trkpt>
      <trkpt lat="45.42192" lon="5.90203">
        <ele>1817.4720458984</ele>
        <time>2017-05-29T07:36:24Z</time>
      </trkpt>
      <trkpt lat="45.42186" lon="5.90208">
        <ele>1814.4720458984</ele>
        <time>2017-05-29T07:36:30Z</time>
      </trkpt>
      <trkpt lat="45.42171" lon="5.90209">
        <ele>1817.4720458984</ele>
        <time>2017-05-29T07:36:42Z</time>
      </trkpt>
      <trkpt lat="45.42163" lon="5.90212">
        <ele>1818.4720458984</ele>
        <time>2017-05-29T07:36:49Z</time>
      </trkpt>
      <trkpt lat="45.42156" lon="5.90209">
        <ele>1814.4720458984</ele>
        <time>2017-05-29T07:36:58Z</time>
      </trkpt>
      <trkpt lat="45.42141" lon="5.90208">
        <ele>1813.4720458984</ele>
        <time>2017-05-29T07:37:09Z</time>
      </trkpt>
      <trkpt lat="45.42134" lon="5.90205">
        <ele>1813.4720458984</ele>
        <time>2017-05-29T07:37:16Z</time>
      </trkpt>
      <trkpt lat="45.42114" lon="5.90194">
        <ele>1816.4720458984</ele>
        <time>2017-05-29T07:37:38Z</time>
      </trkpt>
      <trkpt lat="45.42102" lon="5.90187">
        <ele>1818.4720458984</ele>
        <time>2017-05-29T07:37:48Z</time>
      </trkpt>
      <trkpt lat="45.42091" lon="5.90188">
        <ele>1818.4720458984</ele>
        <time>2017-05-29T07:37:59Z</time>
      </trkpt>
      <trkpt lat="45.42082" lon="5.9019">
        <ele>1817.4720458984</ele>
        <time>2017-05-29T07:38:08Z</time>
      </trkpt>
      <trkpt lat="45.42074" lon="5.90189">
        <ele>1817.4709472656</ele>
        <time>2017-05-29T07:38:16Z</time>
      </trkpt>
      <trkpt lat="45.42066" lon="5.90187">
        <ele>1817.4709472656</ele>
        <time>2017-05-29T07:38:24Z</time>
      </trkpt>
      <trkpt lat="45.42059" lon="5.90181">
        <ele>1819.4709472656</ele>
        <time>2017-05-29T07:38:31Z</time>
      </trkpt>
      <trkpt lat="45.42053" lon="5.90176">
        <ele>1821.4709472656</ele>
        <time>2017-05-29T07:38:36Z</time>
      </trkpt>
      <trkpt lat="45.42045" lon="5.90172">
        <ele>1820.4709472656</ele>
        <time>2017-05-29T07:38:47Z</time>
      </trkpt>
      <trkpt lat="45.42037" lon="5.90166">
        <ele>1821.4709472656</ele>
        <time>2017-05-29T07:38:53Z</time>
      </trkpt>
      <trkpt lat="45.42031" lon="5.90163">
        <ele>1821.4709472656</ele>
        <time>2017-05-29T07:39:32Z</time>
      </trkpt>
      <trkpt lat="45.42026" lon="5.90155">
        <ele>1822.4709472656</ele>
        <time>2017-05-29T07:39:38Z</time>
      </trkpt>
      <trkpt lat="45.42021" lon="5.90147">
        <ele>1821.4709472656</ele>
        <time>2017-05-29T07:39:49Z</time>
      </trkpt>
      <trkpt lat="45.42013" lon="5.90144">
        <ele>1823.4709472656</ele>
        <time>2017-05-29T07:40:07Z</time>
      </trkpt>
      <trkpt lat="45.42006" lon="5.90144">
        <ele>1821.4709472656</ele>
        <time>2017-05-29T07:40:15Z</time>
      </trkpt>
      <trkpt lat="45.41998" lon="5.90151">
        <ele>1819.4709472656</ele>
        <time>2017-05-29T07:40:23Z</time>
      </trkpt>
      <trkpt lat="45.41992" lon="5.90157">
        <ele>1815.4709472656</ele>
        <time>2017-05-29T07:40:33Z</time>
      </trkpt>
      <trkpt lat="45.41986" lon="5.90163">
        <ele>1815.4709472656</ele>
        <time>2017-05-29T07:40:37Z</time>
      </trkpt>
      <trkpt lat="45.41978" lon="5.90164">
        <ele>1815.4709472656</ele>
        <time>2017-05-29T07:40:45Z</time>
      </trkpt>
      <trkpt lat="45.4197" lon="5.90167">
        <ele>1816.4709472656</ele>
        <time>2017-05-29T07:40:54Z</time>
      </trkpt>
      <trkpt lat="45.41962" lon="5.90164">
        <ele>1817.4709472656</ele>
        <time>2017-05-29T07:41:04Z</time>
      </trkpt>
      <trkpt lat="45.41955" lon="5.90167">
        <ele>1815.4709472656</ele>
        <time>2017-05-29T07:41:30Z</time>
      </trkpt>
      <trkpt lat="45.41946" lon="5.90161">
        <ele>1816.4709472656</ele>
        <time>2017-05-29T07:41:42Z</time>
      </trkpt>
      <trkpt lat="45.41928" lon="5.90156">
        <ele>1816.4709472656</ele>
        <time>2017-05-29T07:42:00Z</time>
      </trkpt>
      <trkpt lat="45.41921" lon="5.90153">
        <ele>1814.4709472656</ele>
        <time>2017-05-29T07:42:07Z</time>
      </trkpt>
      <trkpt lat="45.41913" lon="5.90152">
        <ele>1817.4709472656</ele>
        <time>2017-05-29T07:42:14Z</time>
      </trkpt>
      <trkpt lat="45.41905" lon="5.90149">
        <ele>1817.4709472656</ele>
        <time>2017-05-29T07:42:22Z</time>
      </trkpt>
      <trkpt lat="45.41899" lon="5.90141">
        <ele>1818.4709472656</ele>
        <time>2017-05-29T07:42:29Z</time>
      </trkpt>
      <trkpt lat="45.41893" lon="5.90136">
        <ele>1819.4709472656</ele>
        <time>2017-05-29T07:42:35Z</time>
      </trkpt>
      <trkpt lat="45.41886" lon="5.90131">
        <ele>1821.4709472656</ele>
        <time>2017-05-29T07:42:42Z</time>
      </trkpt>
      <trkpt lat="45.41881" lon="5.90123">
        <ele>1823.4709472656</ele>
        <time>2017-05-29T07:42:48Z</time>
      </trkpt>
      <trkpt lat="45.41873" lon="5.90125">
        <ele>1823.4709472656</ele>
        <time>2017-05-29T07:42:58Z</time>
      </trkpt>
      <trkpt lat="45.41866" lon="5.9012">
        <ele>1823.4709472656</ele>
        <time>2017-05-29T07:43:07Z</time>
      </trkpt>
      <trkpt lat="45.41862" lon="5.90112">
        <ele>1825.4709472656</ele>
        <time>2017-05-29T07:43:14Z</time>
      </trkpt>
      <trkpt lat="45.41854" lon="5.90108">
        <ele>1825.4709472656</ele>
        <time>2017-05-29T07:43:33Z</time>
      </trkpt>
      <trkpt lat="45.41849" lon="5.90101">
        <ele>1825.4709472656</ele>
        <time>2017-05-29T07:43:38Z</time>
      </trkpt>
      <trkpt lat="45.41844" lon="5.9009">
        <ele>1828.4709472656</ele>
        <time>2017-05-29T07:43:44Z</time>
      </trkpt>
      <trkpt lat="45.4184" lon="5.9008">
        <ele>1829.4709472656</ele>
        <time>2017-05-29T07:43:52Z</time>
      </trkpt>
      <trkpt lat="45.41837" lon="5.90071">
        <ele>1831.4709472656</ele>
        <time>2017-05-29T07:44:01Z</time>
      </trkpt>
      <trkpt lat="45.41832" lon="5.90062">
        <ele>1831.4709472656</ele>
        <time>2017-05-29T07:44:10Z</time>
      </trkpt>
      <trkpt lat="45.41825" lon="5.90057">
        <ele>1830.4709472656</ele>
        <time>2017-05-29T07:44:18Z</time>
      </trkpt>
      <trkpt lat="45.4182" lon="5.90065">
        <ele>1830.4709472656</ele>
        <time>2017-05-29T07:45:32Z</time>
      </trkpt>
      <trkpt lat="45.41814" lon="5.90071">
        <ele>1829.4709472656</ele>
        <time>2017-05-29T07:45:42Z</time>
      </trkpt>
      <trkpt lat="45.41809" lon="5.90081">
        <ele>1829.4709472656</ele>
        <time>2017-05-29T07:45:54Z</time>
      </trkpt>
      <trkpt lat="45.41802" lon="5.90089">
        <ele>1827.4709472656</ele>
        <time>2017-05-29T07:46:00Z</time>
      </trkpt>
      <trkpt lat="45.41796" lon="5.90095">
        <ele>1823.4709472656</ele>
        <time>2017-05-29T07:46:07Z</time>
      </trkpt>
      <trkpt lat="45.41789" lon="5.90095">
        <ele>1825.4709472656</ele>
        <time>2017-05-29T07:46:15Z</time>
      </trkpt>
      <trkpt lat="45.41782" lon="5.90097">
        <ele>1823.4709472656</ele>
        <time>2017-05-29T07:46:23Z</time>
      </trkpt>
      <trkpt lat="45.41776" lon="5.90103">
        <ele>1817.4709472656</ele>
        <time>2017-05-29T07:46:33Z</time>
      </trkpt>
      <trkpt lat="45.41762" lon="5.90112">
        <ele>1820.4709472656</ele>
        <time>2017-05-29T07:46:44Z</time>
      </trkpt>
      <trkpt lat="45.41754" lon="5.90115">
        <ele>1817.4709472656</ele>
        <time>2017-05-29T07:47:28Z</time>
      </trkpt>
      <trkpt lat="45.41745" lon="5.90113">
        <ele>1819.4709472656</ele>
        <time>2017-05-29T07:47:33Z</time>
      </trkpt>
      <trkpt lat="45.41739" lon="5.90107">
        <ele>1815.4709472656</ele>
        <time>2017-05-29T07:47:49Z</time>
      </trkpt>
      <trkpt lat="45.4173" lon="5.90111">
        <ele>1817.4709472656</ele>
        <time>2017-05-29T07:48:07Z</time>
      </trkpt>
      <trkpt lat="45.41721" lon="5.90108">
        <ele>1817.4709472656</ele>
        <time>2017-05-29T07:48:17Z</time>
      </trkpt>
      <trkpt lat="45.41713" lon="5.90109">
        <ele>1814.4709472656</ele>
        <time>2017-05-29T07:48:24Z</time>
      </trkpt>
      <trkpt lat="45.41705" lon="5.90111">
        <ele>1816.4709472656</ele>
        <time>2017-05-29T07:48:31Z</time>
      </trkpt>
      <trkpt lat="45.41697" lon="5.90111">
        <ele>1813.4709472656</ele>
        <time>2017-05-29T07:48:40Z</time>
      </trkpt>
      <trkpt lat="45.41695" lon="5.90101">
        <ele>1820.4709472656</ele>
        <time>2017-05-29T07:48:53Z</time>
      </trkpt>
      <trkpt lat="45.41689" lon="5.90108">
        <ele>1821.4709472656</ele>
        <time>2017-05-29T07:49:22Z</time>
      </trkpt>
      <trkpt lat="45.41682" lon="5.9013">
        <ele>1814.4709472656</ele>
        <time>2017-05-29T07:49:33Z</time>
      </trkpt>
      <trkpt lat="45.41675" lon="5.90135">
        <ele>1811.4709472656</ele>
        <time>2017-05-29T07:49:40Z</time>
      </trkpt>
      <trkpt lat="45.41668" lon="5.90136">
        <ele>1810.4709472656</ele>
        <time>2017-05-29T07:49:47Z</time>
      </trkpt>
      <trkpt lat="45.41663" lon="5.90144">
        <ele>1807.4709472656</ele>
        <time>2017-05-29T07:49:55Z</time>
      </trkpt>
      <trkpt lat="45.41663" lon="5.90154">
        <ele>1803.4709472656</ele>
        <time>2017-05-29T07:50:00Z</time>
      </trkpt>
      <trkpt lat="45.41655" lon="5.90157">
        <ele>1809.4709472656</ele>
        <time>2017-05-29T07:50:07Z</time>
      </trkpt>
      <trkpt lat="45.4165" lon="5.90164">
        <ele>1803.4709472656</ele>
        <time>2017-05-29T07:50:24Z</time>
      </trkpt>
      <trkpt lat="45.41643" lon="5.90173">
        <ele>1802.4709472656</ele>
        <time>2017-05-29T07:50:30Z</time>
      </trkpt>
      <trkpt lat="45.41628" lon="5.90186">
        <ele>1791.4709472656</ele>
        <time>2017-05-29T07:51:00Z</time>
      </trkpt>
      <trkpt lat="45.41621" lon="5.90187">
        <ele>1789.4709472656</ele>
        <time>2017-05-29T07:51:06Z</time>
      </trkpt>
      <trkpt lat="45.41609" lon="5.90188">
        <ele>1788.4709472656</ele>
        <time>2017-05-29T07:51:16Z</time>
      </trkpt>
      <trkpt lat="45.41603" lon="5.90197">
        <ele>1787.4709472656</ele>
        <time>2017-05-29T07:51:21Z</time>
      </trkpt>
      <trkpt lat="45.41595" lon="5.902">
        <ele>1787.4709472656</ele>
        <time>2017-05-29T07:51:28Z</time>
      </trkpt>
      <trkpt lat="45.41588" lon="5.90203">
        <ele>1787.4709472656</ele>
        <time>2017-05-29T07:51:34Z</time>
      </trkpt>
      <trkpt lat="45.41577" lon="5.90205">
        <ele>1784.4699707031</ele>
        <time>2017-05-29T07:51:42Z</time>
      </trkpt>
      <trkpt lat="45.4157" lon="5.90208">
        <ele>1785.4699707031</ele>
        <time>2017-05-29T07:51:50Z</time>
      </trkpt>
      <trkpt lat="45.41557" lon="5.90206">
        <ele>1783.4699707031</ele>
        <time>2017-05-29T07:52:01Z</time>
      </trkpt>
      <trkpt lat="45.41549" lon="5.90209">
        <ele>1781.4699707031</ele>
        <time>2017-05-29T07:52:08Z</time>
      </trkpt>
      <trkpt lat="45.41541" lon="5.90208">
        <ele>1779.4699707031</ele>
        <time>2017-05-29T07:52:15Z</time>
      </trkpt>
      <trkpt lat="45.41532" lon="5.90209">
        <ele>1779.4699707031</ele>
        <time>2017-05-29T07:52:23Z</time>
      </trkpt>
      <trkpt lat="45.41525" lon="5.90204">
        <ele>1779.4699707031</ele>
        <time>2017-05-29T07:52:30Z</time>
      </trkpt>
      <trkpt lat="45.41519" lon="5.90197">
        <ele>1780.4699707031</ele>
        <time>2017-05-29T07:52:36Z</time>
      </trkpt>
      <trkpt lat="45.41513" lon="5.90193">
        <ele>1780.4699707031</ele>
        <time>2017-05-29T07:52:44Z</time>
      </trkpt>
      <trkpt lat="45.41505" lon="5.90193">
        <ele>1780.4699707031</ele>
        <time>2017-05-29T07:52:51Z</time>
      </trkpt>
      <trkpt lat="45.41495" lon="5.90189">
        <ele>1778.4699707031</ele>
        <time>2017-05-29T07:53:01Z</time>
      </trkpt>
      <trkpt lat="45.41488" lon="5.90193">
        <ele>1779.4699707031</ele>
        <time>2017-05-29T07:53:09Z</time>
      </trkpt>
      <trkpt lat="45.41473" lon="5.90183">
        <ele>1777.4699707031</ele>
        <time>2017-05-29T07:53:21Z</time>
      </trkpt>
      <trkpt lat="45.41465" lon="5.90179">
        <ele>1781.4699707031</ele>
        <time>2017-05-29T07:53:28Z</time>
      </trkpt>
      <trkpt lat="45.41456" lon="5.90172">
        <ele>1780.4699707031</ele>
        <time>2017-05-29T07:53:52Z</time>
      </trkpt>
      <trkpt lat="45.41448" lon="5.90175">
        <ele>1780.4699707031</ele>
        <time>2017-05-29T07:53:59Z</time>
      </trkpt>
      <trkpt lat="45.41442" lon="5.90184">
        <ele>1777.4699707031</ele>
        <time>2017-05-29T07:54:05Z</time>
      </trkpt>
      <trkpt lat="45.41435" lon="5.9019">
        <ele>1775.4699707031</ele>
        <time>2017-05-29T07:54:16Z</time>
      </trkpt>
      <trkpt lat="45.41428" lon="5.90195">
        <ele>1775.4699707031</ele>
        <time>2017-05-29T07:54:22Z</time>
      </trkpt>
      <trkpt lat="45.41423" lon="5.90202">
        <ele>1772.4699707031</ele>
        <time>2017-05-29T07:54:28Z</time>
      </trkpt>
      <trkpt lat="45.41412" lon="5.90198">
        <ele>1770.4699707031</ele>
        <time>2017-05-29T07:54:39Z</time>
      </trkpt>
      <trkpt lat="45.41405" lon="5.90202">
        <ele>1765.4699707031</ele>
        <time>2017-05-29T07:54:48Z</time>
      </trkpt>
      <trkpt lat="45.414" lon="5.90191">
        <ele>1766.4699707031</ele>
        <time>2017-05-29T07:54:53Z</time>
      </trkpt>
      <trkpt lat="45.41392" lon="5.90187">
        <ele>1764.4699707031</ele>
        <time>2017-05-29T07:55:00Z</time>
      </trkpt>
      <trkpt lat="45.41385" lon="5.90186">
        <ele>1761.4699707031</ele>
        <time>2017-05-29T07:55:08Z</time>
      </trkpt>
      <trkpt lat="45.41378" lon="5.90187">
        <ele>1757.4699707031</ele>
        <time>2017-05-29T07:55:43Z</time>
      </trkpt>
      <trkpt lat="45.41371" lon="5.90184">
        <ele>1759.4699707031</ele>
        <time>2017-05-29T07:56:00Z</time>
      </trkpt>
      <trkpt lat="45.41364" lon="5.90189">
        <ele>1757.4699707031</ele>
        <time>2017-05-29T07:56:09Z</time>
      </trkpt>
      <trkpt lat="45.41357" lon="5.9019">
        <ele>1753.4699707031</ele>
        <time>2017-05-29T07:56:18Z</time>
      </trkpt>
      <trkpt lat="45.4135" lon="5.90197">
        <ele>1751.4699707031</ele>
        <time>2017-05-29T07:56:26Z</time>
      </trkpt>
      <trkpt lat="45.41345" lon="5.90206">
        <ele>1749.4699707031</ele>
        <time>2017-05-29T07:56:35Z</time>
      </trkpt>
      <trkpt lat="45.41338" lon="5.90212">
        <ele>1748.4699707031</ele>
        <time>2017-05-29T07:56:41Z</time>
      </trkpt>
      <trkpt lat="45.41331" lon="5.90213">
        <ele>1748.4699707031</ele>
        <time>2017-05-29T07:56:52Z</time>
      </trkpt>
      <trkpt lat="45.41324" lon="5.90219">
        <ele>1749.4699707031</ele>
        <time>2017-05-29T07:56:58Z</time>
      </trkpt>
      <trkpt lat="45.41317" lon="5.90225">
        <ele>1749.4699707031</ele>
        <time>2017-05-29T07:57:06Z</time>
      </trkpt>
      <trkpt lat="45.41309" lon="5.90227">
        <ele>1748.4699707031</ele>
        <time>2017-05-29T07:57:13Z</time>
      </trkpt>
      <trkpt lat="45.41308" lon="5.90239">
        <ele>1741.4699707031</ele>
        <time>2017-05-29T07:57:17Z</time>
      </trkpt>
      <trkpt lat="45.41292" lon="5.90248">
        <ele>1740.4699707031</ele>
        <time>2017-05-29T07:57:30Z</time>
      </trkpt>
      <trkpt lat="45.41285" lon="5.90251">
        <ele>1740.4699707031</ele>
        <time>2017-05-29T07:57:37Z</time>
      </trkpt>
      <trkpt lat="45.41279" lon="5.90258">
        <ele>1739.4699707031</ele>
        <time>2017-05-29T07:57:41Z</time>
      </trkpt>
      <trkpt lat="45.41264" lon="5.90265">
        <ele>1733.4699707031</ele>
        <time>2017-05-29T07:57:51Z</time>
      </trkpt>
      <trkpt lat="45.41256" lon="5.90267">
        <ele>1731.4699707031</ele>
        <time>2017-05-29T07:57:57Z</time>
      </trkpt>
      <trkpt lat="45.41232" lon="5.90276">
        <ele>1730.4699707031</ele>
        <time>2017-05-29T07:58:13Z</time>
      </trkpt>
      <trkpt lat="45.41228" lon="5.90258">
        <ele>1728.4699707031</ele>
        <time>2017-05-29T07:58:47Z</time>
      </trkpt>
      <trkpt lat="45.41221" lon="5.90262">
        <ele>1729.4699707031</ele>
        <time>2017-05-29T07:58:54Z</time>
      </trkpt>
      <trkpt lat="45.41214" lon="5.90262">
        <ele>1728.4699707031</ele>
        <time>2017-05-29T07:59:00Z</time>
      </trkpt>
      <trkpt lat="45.41205" lon="5.90259">
        <ele>1729.4699707031</ele>
        <time>2017-05-29T07:59:05Z</time>
      </trkpt>
      <trkpt lat="45.41198" lon="5.90261">
        <ele>1727.4699707031</ele>
        <time>2017-05-29T07:59:13Z</time>
      </trkpt>
      <trkpt lat="45.41191" lon="5.90257">
        <ele>1728.4699707031</ele>
        <time>2017-05-29T07:59:21Z</time>
      </trkpt>
      <trkpt lat="45.41184" lon="5.90254">
        <ele>1730.4699707031</ele>
        <time>2017-05-29T07:59:30Z</time>
      </trkpt>
      <trkpt lat="45.41178" lon="5.90246">
        <ele>1731.4699707031</ele>
        <time>2017-05-29T07:59:36Z</time>
      </trkpt>
      <trkpt lat="45.41171" lon="5.90241">
        <ele>1731.4699707031</ele>
        <time>2017-05-29T07:59:43Z</time>
      </trkpt>
      <trkpt lat="45.41163" lon="5.90236">
        <ele>1733.4699707031</ele>
        <time>2017-05-29T07:59:52Z</time>
      </trkpt>
      <trkpt lat="45.41157" lon="5.90231">
        <ele>1732.4699707031</ele>
        <time>2017-05-29T07:59:57Z</time>
      </trkpt>
      <trkpt lat="45.4115" lon="5.90232">
        <ele>1729.4699707031</ele>
        <time>2017-05-29T08:00:04Z</time>
      </trkpt>
      <trkpt lat="45.41127" lon="5.90237">
        <ele>1728.4699707031</ele>
        <time>2017-05-29T08:00:25Z</time>
      </trkpt>
      <trkpt lat="45.41109" lon="5.90246">
        <ele>1730.4699707031</ele>
        <time>2017-05-29T08:00:46Z</time>
      </trkpt>
      <trkpt lat="45.41103" lon="5.90251">
        <ele>1729.4699707031</ele>
        <time>2017-05-29T08:01:24Z</time>
      </trkpt>
      <trkpt lat="45.41098" lon="5.90259">
        <ele>1727.4699707031</ele>
        <time>2017-05-29T08:01:33Z</time>
      </trkpt>
      <trkpt lat="45.41093" lon="5.90267">
        <ele>1723.4699707031</ele>
        <time>2017-05-29T08:02:08Z</time>
      </trkpt>
      <trkpt lat="45.41093" lon="5.90278">
        <ele>1720.4699707031</ele>
        <time>2017-05-29T08:02:28Z</time>
      </trkpt>
      <trkpt lat="45.41087" lon="5.90286">
        <ele>1722.4699707031</ele>
        <time>2017-05-29T08:02:49Z</time>
      </trkpt>
      <trkpt lat="45.41084" lon="5.90297">
        <ele>1721.4699707031</ele>
        <time>2017-05-29T08:03:09Z</time>
      </trkpt>
      <trkpt lat="45.41076" lon="5.90292">
        <ele>1723.4699707031</ele>
        <time>2017-05-29T08:03:24Z</time>
      </trkpt>
      <trkpt lat="45.41068" lon="5.90291">
        <ele>1723.4699707031</ele>
        <time>2017-05-29T08:03:33Z</time>
      </trkpt>
      <trkpt lat="45.41067" lon="5.90301">
        <ele>1719.4699707031</ele>
        <time>2017-05-29T08:03:39Z</time>
      </trkpt>
      <trkpt lat="45.41062" lon="5.9031">
        <ele>1713.4699707031</ele>
        <time>2017-05-29T08:03:47Z</time>
      </trkpt>
      <trkpt lat="45.41056" lon="5.90319">
        <ele>1712.4699707031</ele>
        <time>2017-05-29T08:03:54Z</time>
      </trkpt>
      <trkpt lat="45.41052" lon="5.90328">
        <ele>1708.4699707031</ele>
        <time>2017-05-29T08:04:03Z</time>
      </trkpt>
      <trkpt lat="45.41033" lon="5.90333">
        <ele>1698.4699707031</ele>
        <time>2017-05-29T08:04:25Z</time>
      </trkpt>
      <trkpt lat="45.41011" lon="5.90324">
        <ele>1695.4689941406</ele>
        <time>2017-05-29T08:04:42Z</time>
      </trkpt>
      <trkpt lat="45.40997" lon="5.90314">
        <ele>1696.4689941406</ele>
        <time>2017-05-29T08:04:54Z</time>
      </trkpt>
      <trkpt lat="45.40991" lon="5.9032">
        <ele>1692.4689941406</ele>
        <time>2017-05-29T08:05:02Z</time>
      </trkpt>
      <trkpt lat="45.40983" lon="5.90321">
        <ele>1691.4689941406</ele>
        <time>2017-05-29T08:05:08Z</time>
      </trkpt>
      <trkpt lat="45.40976" lon="5.90317">
        <ele>1691.4689941406</ele>
        <time>2017-05-29T08:05:14Z</time>
      </trkpt>
      <trkpt lat="45.40967" lon="5.9032">
        <ele>1689.4689941406</ele>
        <time>2017-05-29T08:05:21Z</time>
      </trkpt>
      <trkpt lat="45.40958" lon="5.90316">
        <ele>1690.4689941406</ele>
        <time>2017-05-29T08:05:29Z</time>
      </trkpt>
      <trkpt lat="45.40946" lon="5.90313">
        <ele>1689.4689941406</ele>
        <time>2017-05-29T08:05:40Z</time>
      </trkpt>
      <trkpt lat="45.40938" lon="5.90311">
        <ele>1688.4689941406</ele>
        <time>2017-05-29T08:05:47Z</time>
      </trkpt>
      <trkpt lat="45.40931" lon="5.90311">
        <ele>1688.4689941406</ele>
        <time>2017-05-29T08:05:55Z</time>
      </trkpt>
      <trkpt lat="45.40923" lon="5.90311">
        <ele>1687.4689941406</ele>
        <time>2017-05-29T08:06:01Z</time>
      </trkpt>
      <trkpt lat="45.40916" lon="5.90313">
        <ele>1686.4689941406</ele>
        <time>2017-05-29T08:06:09Z</time>
      </trkpt>
      <trkpt lat="45.40909" lon="5.90317">
        <ele>1686.4689941406</ele>
        <time>2017-05-29T08:06:13Z</time>
      </trkpt>
      <trkpt lat="45.409" lon="5.90317">
        <ele>1689.4689941406</ele>
        <time>2017-05-29T08:06:20Z</time>
      </trkpt>
      <trkpt lat="45.40893" lon="5.9032">
        <ele>1688.4689941406</ele>
        <time>2017-05-29T08:06:29Z</time>
      </trkpt>
      <trkpt lat="45.40886" lon="5.90323">
        <ele>1687.4689941406</ele>
        <time>2017-05-29T08:06:34Z</time>
      </trkpt>
      <trkpt lat="45.40881" lon="5.90331">
        <ele>1686.4689941406</ele>
        <time>2017-05-29T08:06:39Z</time>
      </trkpt>
      <trkpt lat="45.40876" lon="5.90338">
        <ele>1686.4689941406</ele>
        <time>2017-05-29T08:06:47Z</time>
      </trkpt>
      <trkpt lat="45.40869" lon="5.90337">
        <ele>1686.4689941406</ele>
        <time>2017-05-29T08:06:53Z</time>
      </trkpt>
      <trkpt lat="45.40862" lon="5.90329">
        <ele>1687.4689941406</ele>
        <time>2017-05-29T08:07:17Z</time>
      </trkpt>
      <trkpt lat="45.40855" lon="5.90332">
        <ele>1686.4689941406</ele>
        <time>2017-05-29T08:07:25Z</time>
      </trkpt>
      <trkpt lat="45.4084" lon="5.90322">
        <ele>1692.4689941406</ele>
        <time>2017-05-29T08:07:36Z</time>
      </trkpt>
      <trkpt lat="45.4083" lon="5.90322">
        <ele>1694.4689941406</ele>
        <time>2017-05-29T08:07:46Z</time>
      </trkpt>
      <trkpt lat="45.40823" lon="5.90318">
        <ele>1695.4689941406</ele>
        <time>2017-05-29T08:07:52Z</time>
      </trkpt>
      <trkpt lat="45.40817" lon="5.90311">
        <ele>1692.4689941406</ele>
        <time>2017-05-29T08:08:00Z</time>
      </trkpt>
      <trkpt lat="45.40812" lon="5.90305">
        <ele>1693.4689941406</ele>
        <time>2017-05-29T08:08:04Z</time>
      </trkpt>
      <trkpt lat="45.40804" lon="5.90303">
        <ele>1695.4689941406</ele>
        <time>2017-05-29T08:08:11Z</time>
      </trkpt>
      <trkpt lat="45.40797" lon="5.90301">
        <ele>1697.4689941406</ele>
        <time>2017-05-29T08:08:17Z</time>
      </trkpt>
      <trkpt lat="45.40796" lon="5.90311">
        <ele>1692.4689941406</ele>
        <time>2017-05-29T08:08:51Z</time>
      </trkpt>
      <trkpt lat="45.40789" lon="5.90316">
        <ele>1691.4689941406</ele>
        <time>2017-05-29T08:09:12Z</time>
      </trkpt>
      <trkpt lat="45.40782" lon="5.9032">
        <ele>1692.4689941406</ele>
        <time>2017-05-29T08:10:18Z</time>
      </trkpt>
      <trkpt lat="45.40774" lon="5.90322">
        <ele>1690.4689941406</ele>
        <time>2017-05-29T08:10:25Z</time>
      </trkpt>
      <trkpt lat="45.40767" lon="5.90328">
        <ele>1688.4689941406</ele>
        <time>2017-05-29T08:10:34Z</time>
      </trkpt>
      <trkpt lat="45.4076" lon="5.90328">
        <ele>1689.4689941406</ele>
        <time>2017-05-29T08:10:41Z</time>
      </trkpt>
      <trkpt lat="45.40752" lon="5.9033">
        <ele>1687.4689941406</ele>
        <time>2017-05-29T08:10:47Z</time>
      </trkpt>
      <trkpt lat="45.40738" lon="5.90338">
        <ele>1687.4689941406</ele>
        <time>2017-05-29T08:11:03Z</time>
      </trkpt>
      <trkpt lat="45.40731" lon="5.90339">
        <ele>1691.4689941406</ele>
        <time>2017-05-29T08:11:12Z</time>
      </trkpt>
      <trkpt lat="45.40727" lon="5.9035">
        <ele>1689.4689941406</ele>
        <time>2017-05-29T08:12:19Z</time>
      </trkpt>
      <trkpt lat="45.40726" lon="5.90361">
        <ele>1686.4689941406</ele>
        <time>2017-05-29T08:12:28Z</time>
      </trkpt>
      <trkpt lat="45.40729" lon="5.9038">
        <ele>1682.4689941406</ele>
        <time>2017-05-29T08:12:41Z</time>
      </trkpt>
      <trkpt lat="45.40729" lon="5.90391">
        <ele>1677.4689941406</ele>
        <time>2017-05-29T08:12:49Z</time>
      </trkpt>
      <trkpt lat="45.40729" lon="5.90402">
        <ele>1674.4689941406</ele>
        <time>2017-05-29T08:12:58Z</time>
      </trkpt>
      <trkpt lat="45.40729" lon="5.90412">
        <ele>1673.4689941406</ele>
        <time>2017-05-29T08:13:06Z</time>
      </trkpt>
      <trkpt lat="45.40728" lon="5.90424">
        <ele>1672.4689941406</ele>
        <time>2017-05-29T08:13:26Z</time>
      </trkpt>
      <trkpt lat="45.40731" lon="5.90434">
        <ele>1672.4689941406</ele>
        <time>2017-05-29T08:13:35Z</time>
      </trkpt>
      <trkpt lat="45.40733" lon="5.90444">
        <ele>1669.4689941406</ele>
        <time>2017-05-29T08:13:48Z</time>
      </trkpt>
      <trkpt lat="45.40732" lon="5.90455">
        <ele>1667.4689941406</ele>
        <time>2017-05-29T08:13:56Z</time>
      </trkpt>
      <trkpt lat="45.40736" lon="5.90465">
        <ele>1666.4689941406</ele>
        <time>2017-05-29T08:14:10Z</time>
      </trkpt>
      <trkpt lat="45.40744" lon="5.90472">
        <ele>1667.4689941406</ele>
        <time>2017-05-29T08:14:23Z</time>
      </trkpt>
      <trkpt lat="45.40751" lon="5.90477">
        <ele>1670.4689941406</ele>
        <time>2017-05-29T08:14:40Z</time>
      </trkpt>
      <trkpt lat="45.40754" lon="5.90487">
        <ele>1676.4689941406</ele>
        <time>2017-05-29T08:15:15Z</time>
      </trkpt>
      <trkpt lat="45.40757" lon="5.90496">
        <ele>1680.4689941406</ele>
        <time>2017-05-29T08:16:15Z</time>
      </trkpt>
      <trkpt lat="45.40765" lon="5.90497">
        <ele>1682.4689941406</ele>
        <time>2017-05-29T08:16:28Z</time>
      </trkpt>
      <trkpt lat="45.40772" lon="5.90502">
        <ele>1693.4689941406</ele>
        <time>2017-05-29T08:17:28Z</time>
      </trkpt>
      <trkpt lat="45.40779" lon="5.90504">
        <ele>1697.4689941406</ele>
        <time>2017-05-29T08:17:39Z</time>
      </trkpt>
      <trkpt lat="45.40782" lon="5.90515">
        <ele>1708.4689941406</ele>
        <time>2017-05-29T08:18:04Z</time>
      </trkpt>
      <trkpt lat="45.40786" lon="5.90524">
        <ele>1710.4689941406</ele>
        <time>2017-05-29T08:18:11Z</time>
      </trkpt>
      <trkpt lat="45.40792" lon="5.90531">
        <ele>1708.4689941406</ele>
        <time>2017-05-29T08:18:17Z</time>
      </trkpt>
      <trkpt lat="45.40799" lon="5.90535">
        <ele>1707.4689941406</ele>
        <time>2017-05-29T08:18:26Z</time>
      </trkpt>
      <trkpt lat="45.40815" lon="5.90552">
        <ele>1709.4689941406</ele>
        <time>2017-05-29T08:18:51Z</time>
      </trkpt>
      <trkpt lat="45.40821" lon="5.90558">
        <ele>1711.4689941406</ele>
        <time>2017-05-29T08:19:08Z</time>
      </trkpt>
      <trkpt lat="45.40828" lon="5.9056">
        <ele>1712.4689941406</ele>
        <time>2017-05-29T08:19:15Z</time>
      </trkpt>
      <trkpt lat="45.40838" lon="5.90563">
        <ele>1711.4689941406</ele>
        <time>2017-05-29T08:19:23Z</time>
      </trkpt>
      <trkpt lat="45.40846" lon="5.90563">
        <ele>1709.4689941406</ele>
        <time>2017-05-29T08:19:31Z</time>
      </trkpt>
      <trkpt lat="45.40853" lon="5.90567">
        <ele>1708.4689941406</ele>
        <time>2017-05-29T08:21:42Z</time>
      </trkpt>
      <trkpt lat="45.4086" lon="5.90571">
        <ele>1708.4699707031</ele>
        <time>2017-05-29T08:21:54Z</time>
      </trkpt>
      <trkpt lat="45.40867" lon="5.90574">
        <ele>1708.4699707031</ele>
        <time>2017-05-29T08:22:00Z</time>
      </trkpt>
      <trkpt lat="45.40875" lon="5.9057">
        <ele>1702.4699707031</ele>
        <time>2017-05-29T08:22:08Z</time>
      </trkpt>
      <trkpt lat="45.40882" lon="5.90573">
        <ele>1703.4699707031</ele>
        <time>2017-05-29T08:22:15Z</time>
      </trkpt>
      <trkpt lat="45.40891" lon="5.90573">
        <ele>1697.4699707031</ele>
        <time>2017-05-29T08:22:25Z</time>
      </trkpt>
      <trkpt lat="45.40897" lon="5.90579">
        <ele>1699.4699707031</ele>
        <time>2017-05-29T08:22:29Z</time>
      </trkpt>
      <trkpt lat="45.40903" lon="5.90586">
        <ele>1696.4699707031</ele>
        <time>2017-05-29T08:22:40Z</time>
      </trkpt>
      <trkpt lat="45.40931" lon="5.90593">
        <ele>1701.4699707031</ele>
        <time>2017-05-29T08:23:00Z</time>
      </trkpt>
      <trkpt lat="45.40939" lon="5.9059">
        <ele>1702.4699707031</ele>
        <time>2017-05-29T08:23:05Z</time>
      </trkpt>
      <trkpt lat="45.40947" lon="5.90593">
        <ele>1700.4699707031</ele>
        <time>2017-05-29T08:23:14Z</time>
      </trkpt>
      <trkpt lat="45.40956" lon="5.90591">
        <ele>1702.4699707031</ele>
        <time>2017-05-29T08:23:19Z</time>
      </trkpt>
      <trkpt lat="45.40963" lon="5.90598">
        <ele>1704.4699707031</ele>
        <time>2017-05-29T08:23:26Z</time>
      </trkpt>
      <trkpt lat="45.40978" lon="5.90607">
        <ele>1711.4699707031</ele>
        <time>2017-05-29T08:23:37Z</time>
      </trkpt>
      <trkpt lat="45.40985" lon="5.90607">
        <ele>1708.4699707031</ele>
        <time>2017-05-29T08:23:46Z</time>
      </trkpt>
      <trkpt lat="45.40993" lon="5.90614">
        <ele>1703.4699707031</ele>
        <time>2017-05-29T08:23:51Z</time>
      </trkpt>
      <trkpt lat="45.40999" lon="5.9062">
        <ele>1704.4699707031</ele>
        <time>2017-05-29T08:23:56Z</time>
      </trkpt>
      <trkpt lat="45.41006" lon="5.90625">
        <ele>1705.4699707031</ele>
        <time>2017-05-29T08:24:02Z</time>
      </trkpt>
      <trkpt lat="45.41014" lon="5.90629">
        <ele>1703.4699707031</ele>
        <time>2017-05-29T08:24:10Z</time>
      </trkpt>
      <trkpt lat="45.41022" lon="5.90631">
        <ele>1701.4699707031</ele>
        <time>2017-05-29T08:24:16Z</time>
      </trkpt>
      <trkpt lat="45.41025" lon="5.90642">
        <ele>1693.4699707031</ele>
        <time>2017-05-29T08:24:24Z</time>
      </trkpt>
      <trkpt lat="45.41039" lon="5.90649">
        <ele>1694.4699707031</ele>
        <time>2017-05-29T08:24:33Z</time>
      </trkpt>
      <trkpt lat="45.41054" lon="5.90657">
        <ele>1686.4699707031</ele>
        <time>2017-05-29T08:24:46Z</time>
      </trkpt>
      <trkpt lat="45.41059" lon="5.90664">
        <ele>1684.4699707031</ele>
        <time>2017-05-29T08:24:57Z</time>
      </trkpt>
      <trkpt lat="45.41065" lon="5.90672">
        <ele>1683.4699707031</ele>
        <time>2017-05-29T08:25:02Z</time>
      </trkpt>
      <trkpt lat="45.41073" lon="5.90678">
        <ele>1684.4699707031</ele>
        <time>2017-05-29T08:25:07Z</time>
      </trkpt>
      <trkpt lat="45.41081" lon="5.90681">
        <ele>1684.4699707031</ele>
        <time>2017-05-29T08:25:14Z</time>
      </trkpt>
      <trkpt lat="45.41088" lon="5.90684">
        <ele>1682.4699707031</ele>
        <time>2017-05-29T08:26:28Z</time>
      </trkpt>
      <trkpt lat="45.41096" lon="5.90685">
        <ele>1683.4699707031</ele>
        <time>2017-05-29T08:26:37Z</time>
      </trkpt>
      <trkpt lat="45.41111" lon="5.90679">
        <ele>1674.4699707031</ele>
        <time>2017-05-29T08:26:48Z</time>
      </trkpt>
      <trkpt lat="45.41118" lon="5.9068">
        <ele>1675.4699707031</ele>
        <time>2017-05-29T08:26:53Z</time>
      </trkpt>
      <trkpt lat="45.41125" lon="5.90684">
        <ele>1678.4699707031</ele>
        <time>2017-05-29T08:27:00Z</time>
      </trkpt>
      <trkpt lat="45.41133" lon="5.90682">
        <ele>1675.4699707031</ele>
        <time>2017-05-29T08:27:07Z</time>
      </trkpt>
      <trkpt lat="45.41141" lon="5.90684">
        <ele>1673.4699707031</ele>
        <time>2017-05-29T08:27:12Z</time>
      </trkpt>
      <trkpt lat="45.41156" lon="5.9069">
        <ele>1673.4699707031</ele>
        <time>2017-05-29T08:27:25Z</time>
      </trkpt>
      <trkpt lat="45.41164" lon="5.90687">
        <ele>1667.4699707031</ele>
        <time>2017-05-29T08:27:33Z</time>
      </trkpt>
      <trkpt lat="45.41171" lon="5.90682">
        <ele>1669.4699707031</ele>
        <time>2017-05-29T08:27:43Z</time>
      </trkpt>
      <trkpt lat="45.41175" lon="5.90691">
        <ele>1674.4699707031</ele>
        <time>2017-05-29T08:27:49Z</time>
      </trkpt>
      <trkpt lat="45.41183" lon="5.90696">
        <ele>1674.4699707031</ele>
        <time>2017-05-29T08:27:59Z</time>
      </trkpt>
      <trkpt lat="45.4119" lon="5.907">
        <ele>1674.4699707031</ele>
        <time>2017-05-29T08:28:04Z</time>
      </trkpt>
      <trkpt lat="45.41197" lon="5.90707">
        <ele>1675.4699707031</ele>
        <time>2017-05-29T08:28:11Z</time>
      </trkpt>
      <trkpt lat="45.41204" lon="5.90714">
        <ele>1676.4699707031</ele>
        <time>2017-05-29T08:28:18Z</time>
      </trkpt>
      <trkpt lat="45.41213" lon="5.9073">
        <ele>1674.4699707031</ele>
        <time>2017-05-29T08:28:31Z</time>
      </trkpt>
      <trkpt lat="45.4122" lon="5.90739">
        <ele>1679.4699707031</ele>
        <time>2017-05-29T08:28:36Z</time>
      </trkpt>
      <trkpt lat="45.41228" lon="5.90744">
        <ele>1677.4699707031</ele>
        <time>2017-05-29T08:28:43Z</time>
      </trkpt>
      <trkpt lat="45.41233" lon="5.90752">
        <ele>1675.4709472656</ele>
        <time>2017-05-29T08:28:52Z</time>
      </trkpt>
      <trkpt lat="45.41242" lon="5.90752">
        <ele>1672.4709472656</ele>
        <time>2017-05-29T08:28:59Z</time>
      </trkpt>
      <trkpt lat="45.41248" lon="5.90747">
        <ele>1672.4709472656</ele>
        <time>2017-05-29T08:29:05Z</time>
      </trkpt>
      <trkpt lat="45.41256" lon="5.90749">
        <ele>1671.4709472656</ele>
        <time>2017-05-29T08:29:14Z</time>
      </trkpt>
      <trkpt lat="45.41267" lon="5.90764">
        <ele>1670.4709472656</ele>
        <time>2017-05-29T08:29:24Z</time>
      </trkpt>
      <trkpt lat="45.41277" lon="5.9078">
        <ele>1673.4709472656</ele>
        <time>2017-05-29T08:29:32Z</time>
      </trkpt>
      <trkpt lat="45.41282" lon="5.90788">
        <ele>1670.4709472656</ele>
        <time>2017-05-29T08:29:45Z</time>
      </trkpt>
      <trkpt lat="45.41288" lon="5.90797">
        <ele>1667.4709472656</ele>
        <time>2017-05-29T08:30:15Z</time>
      </trkpt>
      <trkpt lat="45.41292" lon="5.90807">
        <ele>1668.4709472656</ele>
        <time>2017-05-29T08:30:21Z</time>
      </trkpt>
      <trkpt lat="45.41296" lon="5.90816">
        <ele>1669.4709472656</ele>
        <time>2017-05-29T08:30:29Z</time>
      </trkpt>
      <trkpt lat="45.41304" lon="5.9082">
        <ele>1669.4709472656</ele>
        <time>2017-05-29T08:30:42Z</time>
      </trkpt>
      <trkpt lat="45.4131" lon="5.90828">
        <ele>1670.4709472656</ele>
        <time>2017-05-29T08:30:49Z</time>
      </trkpt>
      <trkpt lat="45.41317" lon="5.90835">
        <ele>1671.4709472656</ele>
        <time>2017-05-29T08:30:55Z</time>
      </trkpt>
      <trkpt lat="45.41325" lon="5.90842">
        <ele>1670.4709472656</ele>
        <time>2017-05-29T08:31:01Z</time>
      </trkpt>
      <trkpt lat="45.41329" lon="5.90851">
        <ele>1671.4709472656</ele>
        <time>2017-05-29T08:31:08Z</time>
      </trkpt>
      <trkpt lat="45.41338" lon="5.90851">
        <ele>1665.4709472656</ele>
        <time>2017-05-29T08:31:15Z</time>
      </trkpt>
      <trkpt lat="45.4135" lon="5.90862">
        <ele>1661.4709472656</ele>
        <time>2017-05-29T08:31:29Z</time>
      </trkpt>
      <trkpt lat="45.41357" lon="5.90863">
        <ele>1655.4709472656</ele>
        <time>2017-05-29T08:31:36Z</time>
      </trkpt>
      <trkpt lat="45.41366" lon="5.90865">
        <ele>1653.4709472656</ele>
        <time>2017-05-29T08:31:42Z</time>
      </trkpt>
      <trkpt lat="45.41372" lon="5.9087">
        <ele>1653.4709472656</ele>
        <time>2017-05-29T08:31:49Z</time>
      </trkpt>
      <trkpt lat="45.4138" lon="5.90871">
        <ele>1652.4709472656</ele>
        <time>2017-05-29T08:31:55Z</time>
      </trkpt>
      <trkpt lat="45.41387" lon="5.90875">
        <ele>1655.4709472656</ele>
        <time>2017-05-29T08:32:01Z</time>
      </trkpt>
      <trkpt lat="45.41394" lon="5.90879">
        <ele>1657.4709472656</ele>
        <time>2017-05-29T08:32:06Z</time>
      </trkpt>
      <trkpt lat="45.41399" lon="5.90887">
        <ele>1655.4709472656</ele>
        <time>2017-05-29T08:32:15Z</time>
      </trkpt>
      <trkpt lat="45.41402" lon="5.90897">
        <ele>1658.4709472656</ele>
        <time>2017-05-29T08:32:20Z</time>
      </trkpt>
      <trkpt lat="45.4141" lon="5.90899">
        <ele>1658.4709472656</ele>
        <time>2017-05-29T08:32:27Z</time>
      </trkpt>
      <trkpt lat="45.41417" lon="5.90902">
        <ele>1657.4709472656</ele>
        <time>2017-05-29T08:32:34Z</time>
      </trkpt>
      <trkpt lat="45.41425" lon="5.90905">
        <ele>1655.4709472656</ele>
        <time>2017-05-29T08:32:41Z</time>
      </trkpt>
      <trkpt lat="45.4143" lon="5.90914">
        <ele>1652.4709472656</ele>
        <time>2017-05-29T08:33:02Z</time>
      </trkpt>
      <trkpt lat="45.4144" lon="5.90931">
        <ele>1657.4709472656</ele>
        <time>2017-05-29T08:33:08Z</time>
      </trkpt>
      <trkpt lat="45.41447" lon="5.90937">
        <ele>1659.4709472656</ele>
        <time>2017-05-29T08:33:15Z</time>
      </trkpt>
      <trkpt lat="45.41454" lon="5.90943">
        <ele>1660.4709472656</ele>
        <time>2017-05-29T08:33:23Z</time>
      </trkpt>
      <trkpt lat="45.41458" lon="5.90953">
        <ele>1654.4709472656</ele>
        <time>2017-05-29T08:33:29Z</time>
      </trkpt>
      <trkpt lat="45.41457" lon="5.90964">
        <ele>1653.4709472656</ele>
        <time>2017-05-29T08:33:34Z</time>
      </trkpt>
      <trkpt lat="45.41458" lon="5.90976">
        <ele>1652.4709472656</ele>
        <time>2017-05-29T08:33:44Z</time>
      </trkpt>
      <trkpt lat="45.41458" lon="5.90987">
        <ele>1651.4709472656</ele>
        <time>2017-05-29T08:33:49Z</time>
      </trkpt>
      <trkpt lat="45.41464" lon="5.90998">
        <ele>1653.4709472656</ele>
        <time>2017-05-29T08:33:57Z</time>
      </trkpt>
      <trkpt lat="45.41465" lon="5.91011">
        <ele>1652.4709472656</ele>
        <time>2017-05-29T08:34:04Z</time>
      </trkpt>
      <trkpt lat="45.41464" lon="5.91032">
        <ele>1649.4709472656</ele>
        <time>2017-05-29T08:34:11Z</time>
      </trkpt>
      <trkpt lat="45.41468" lon="5.91042">
        <ele>1646.4709472656</ele>
        <time>2017-05-29T08:34:19Z</time>
      </trkpt>
      <trkpt lat="45.4147" lon="5.91053">
        <ele>1649.4709472656</ele>
        <time>2017-05-29T08:34:25Z</time>
      </trkpt>
      <trkpt lat="45.41478" lon="5.91056">
        <ele>1649.4709472656</ele>
        <time>2017-05-29T08:34:31Z</time>
      </trkpt>
      <trkpt lat="45.41486" lon="5.91058">
        <ele>1651.4709472656</ele>
        <time>2017-05-29T08:34:39Z</time>
      </trkpt>
      <trkpt lat="45.41493" lon="5.91055">
        <ele>1653.4709472656</ele>
        <time>2017-05-29T08:34:45Z</time>
      </trkpt>
      <trkpt lat="45.41499" lon="5.91063">
        <ele>1660.4709472656</ele>
        <time>2017-05-29T08:34:57Z</time>
      </trkpt>
      <trkpt lat="45.41502" lon="5.91073">
        <ele>1659.4709472656</ele>
        <time>2017-05-29T08:35:05Z</time>
      </trkpt>
      <trkpt lat="45.41505" lon="5.91083">
        <ele>1657.4709472656</ele>
        <time>2017-05-29T08:35:12Z</time>
      </trkpt>
      <trkpt lat="45.41506" lon="5.91095">
        <ele>1656.4720458984</ele>
        <time>2017-05-29T08:35:18Z</time>
      </trkpt>
      <trkpt lat="45.41506" lon="5.91107">
        <ele>1658.4720458984</ele>
        <time>2017-05-29T08:35:26Z</time>
      </trkpt>
      <trkpt lat="45.41509" lon="5.91118">
        <ele>1656.4720458984</ele>
        <time>2017-05-29T08:35:32Z</time>
      </trkpt>
      <trkpt lat="45.41509" lon="5.91128">
        <ele>1658.4720458984</ele>
        <time>2017-05-29T08:35:37Z</time>
      </trkpt>
      <trkpt lat="45.41512" lon="5.91142">
        <ele>1660.4720458984</ele>
        <time>2017-05-29T08:35:44Z</time>
      </trkpt>
      <trkpt lat="45.41512" lon="5.91154">
        <ele>1661.4720458984</ele>
        <time>2017-05-29T08:35:53Z</time>
      </trkpt>
      <trkpt lat="45.41514" lon="5.91166">
        <ele>1663.4720458984</ele>
        <time>2017-05-29T08:35:59Z</time>
      </trkpt>
      <trkpt lat="45.41518" lon="5.91177">
        <ele>1662.4720458984</ele>
        <time>2017-05-29T08:36:10Z</time>
      </trkpt>
      <trkpt lat="45.41527" lon="5.91194">
        <ele>1662.4720458984</ele>
        <time>2017-05-29T08:36:17Z</time>
      </trkpt>
      <trkpt lat="45.41528" lon="5.91205">
        <ele>1659.4720458984</ele>
        <time>2017-05-29T08:36:26Z</time>
      </trkpt>
      <trkpt lat="45.41528" lon="5.91215">
        <ele>1659.4720458984</ele>
        <time>2017-05-29T08:36:31Z</time>
      </trkpt>
      <trkpt lat="45.41525" lon="5.91224">
        <ele>1658.4720458984</ele>
        <time>2017-05-29T08:36:36Z</time>
      </trkpt>
      <trkpt lat="45.41525" lon="5.91235">
        <ele>1658.4720458984</ele>
        <time>2017-05-29T08:36:44Z</time>
      </trkpt>
      <trkpt lat="45.41528" lon="5.91245">
        <ele>1663.4720458984</ele>
        <time>2017-05-29T08:36:54Z</time>
      </trkpt>
      <trkpt lat="45.41528" lon="5.91256">
        <ele>1664.4720458984</ele>
        <time>2017-05-29T08:37:06Z</time>
      </trkpt>
      <trkpt lat="45.41532" lon="5.91265">
        <ele>1665.4720458984</ele>
        <time>2017-05-29T08:37:14Z</time>
      </trkpt>
      <trkpt lat="45.41535" lon="5.91274">
        <ele>1661.4720458984</ele>
        <time>2017-05-29T08:37:22Z</time>
      </trkpt>
      <trkpt lat="45.41536" lon="5.91286">
        <ele>1662.4720458984</ele>
        <time>2017-05-29T08:37:31Z</time>
      </trkpt>
      <trkpt lat="45.41538" lon="5.91296">
        <ele>1660.4720458984</ele>
        <time>2017-05-29T08:37:39Z</time>
      </trkpt>
      <trkpt lat="45.41536" lon="5.91307">
        <ele>1662.4720458984</ele>
        <time>2017-05-29T08:37:45Z</time>
      </trkpt>
      <trkpt lat="45.41536" lon="5.91317">
        <ele>1659.4720458984</ele>
        <time>2017-05-29T08:37:51Z</time>
      </trkpt>
      <trkpt lat="45.41538" lon="5.91328">
        <ele>1661.4720458984</ele>
        <time>2017-05-29T08:37:57Z</time>
      </trkpt>
      <trkpt lat="45.41541" lon="5.91337">
        <ele>1666.4720458984</ele>
        <time>2017-05-29T08:38:03Z</time>
      </trkpt>
      <trkpt lat="45.41545" lon="5.91346">
        <ele>1665.4720458984</ele>
        <time>2017-05-29T08:38:12Z</time>
      </trkpt>
      <trkpt lat="45.41544" lon="5.91357">
        <ele>1665.4720458984</ele>
        <time>2017-05-29T08:38:17Z</time>
      </trkpt>
      <trkpt lat="45.41548" lon="5.91367">
        <ele>1668.4720458984</ele>
        <time>2017-05-29T08:38:25Z</time>
      </trkpt>
      <trkpt lat="45.41546" lon="5.91377">
        <ele>1668.4720458984</ele>
        <time>2017-05-29T08:38:30Z</time>
      </trkpt>
      <trkpt lat="45.41545" lon="5.91388">
        <ele>1668.4720458984</ele>
        <time>2017-05-29T08:38:39Z</time>
      </trkpt>
      <trkpt lat="45.41545" lon="5.91401">
        <ele>1670.4720458984</ele>
        <time>2017-05-29T08:38:46Z</time>
      </trkpt>
      <trkpt lat="45.41547" lon="5.91411">
        <ele>1668.4720458984</ele>
        <time>2017-05-29T08:38:53Z</time>
      </trkpt>
      <trkpt lat="45.41547" lon="5.91424">
        <ele>1670.4720458984</ele>
        <time>2017-05-29T08:39:02Z</time>
      </trkpt>
      <trkpt lat="45.41552" lon="5.91432">
        <ele>1673.4720458984</ele>
        <time>2017-05-29T08:39:10Z</time>
      </trkpt>
      <trkpt lat="45.41557" lon="5.91439">
        <ele>1675.4720458984</ele>
        <time>2017-05-29T08:39:22Z</time>
      </trkpt>
      <trkpt lat="45.41565" lon="5.91445">
        <ele>1672.4720458984</ele>
        <time>2017-05-29T08:39:28Z</time>
      </trkpt>
      <trkpt lat="45.41571" lon="5.91452">
        <ele>1671.4720458984</ele>
        <time>2017-05-29T08:39:34Z</time>
      </trkpt>
      <trkpt lat="45.41574" lon="5.91461">
        <ele>1673.4720458984</ele>
        <time>2017-05-29T08:39:41Z</time>
      </trkpt>
      <trkpt lat="45.41582" lon="5.91481">
        <ele>1678.4720458984</ele>
        <time>2017-05-29T08:39:52Z</time>
      </trkpt>
      <trkpt lat="45.41589" lon="5.91485">
        <ele>1676.4720458984</ele>
        <time>2017-05-29T08:39:59Z</time>
      </trkpt>
      <trkpt lat="45.4159" lon="5.91496">
        <ele>1674.4720458984</ele>
        <time>2017-05-29T08:40:06Z</time>
      </trkpt>
      <trkpt lat="45.4159" lon="5.91507">
        <ele>1679.4720458984</ele>
        <time>2017-05-29T08:40:13Z</time>
      </trkpt>
      <trkpt lat="45.41594" lon="5.91517">
        <ele>1682.4720458984</ele>
        <time>2017-05-29T08:40:19Z</time>
      </trkpt>
      <trkpt lat="45.416" lon="5.91524">
        <ele>1679.4720458984</ele>
        <time>2017-05-29T08:40:26Z</time>
      </trkpt>
      <trkpt lat="45.41605" lon="5.91532">
        <ele>1678.4720458984</ele>
        <time>2017-05-29T08:40:34Z</time>
      </trkpt>
      <trkpt lat="45.41611" lon="5.91542">
        <ele>1681.4720458984</ele>
        <time>2017-05-29T08:40:41Z</time>
      </trkpt>
      <trkpt lat="45.41616" lon="5.91551">
        <ele>1682.4720458984</ele>
        <time>2017-05-29T08:40:47Z</time>
      </trkpt>
      <trkpt lat="45.4162" lon="5.9156">
        <ele>1681.4720458984</ele>
        <time>2017-05-29T08:40:55Z</time>
      </trkpt>
      <trkpt lat="45.41624" lon="5.9157">
        <ele>1682.4720458984</ele>
        <time>2017-05-29T08:41:02Z</time>
      </trkpt>
      <trkpt lat="45.41626" lon="5.9158">
        <ele>1681.4720458984</ele>
        <time>2017-05-29T08:41:09Z</time>
      </trkpt>
      <trkpt lat="45.41627" lon="5.9159">
        <ele>1684.4720458984</ele>
        <time>2017-05-29T08:41:16Z</time>
      </trkpt>
      <trkpt lat="45.41625" lon="5.916">
        <ele>1688.4720458984</ele>
        <time>2017-05-29T08:41:23Z</time>
      </trkpt>
      <trkpt lat="45.41628" lon="5.91611">
        <ele>1688.4720458984</ele>
        <time>2017-05-29T08:41:30Z</time>
      </trkpt>
      <trkpt lat="45.41633" lon="5.9162">
        <ele>1685.4720458984</ele>
        <time>2017-05-29T08:41:37Z</time>
      </trkpt>
      <trkpt lat="45.41635" lon="5.9163">
        <ele>1681.4720458984</ele>
        <time>2017-05-29T08:42:36Z</time>
      </trkpt>
      <trkpt lat="45.41642" lon="5.91633">
        <ele>1683.4720458984</ele>
        <time>2017-05-29T08:42:42Z</time>
      </trkpt>
      <trkpt lat="45.41648" lon="5.91639">
        <ele>1687.4720458984</ele>
        <time>2017-05-29T08:42:49Z</time>
      </trkpt>
      <trkpt lat="45.41654" lon="5.91645">
        <ele>1690.4730224609</ele>
        <time>2017-05-29T08:42:57Z</time>
      </trkpt>
      <trkpt lat="45.4166" lon="5.91652">
        <ele>1693.4730224609</ele>
        <time>2017-05-29T08:43:10Z</time>
      </trkpt>
      <trkpt lat="45.41667" lon="5.91657">
        <ele>1696.4730224609</ele>
        <time>2017-05-29T08:43:19Z</time>
      </trkpt>
      <trkpt lat="45.41669" lon="5.91669">
        <ele>1697.4730224609</ele>
        <time>2017-05-29T08:43:25Z</time>
      </trkpt>
      <trkpt lat="45.41674" lon="5.91678">
        <ele>1696.4730224609</ele>
        <time>2017-05-29T08:43:33Z</time>
      </trkpt>
      <trkpt lat="45.41679" lon="5.91686">
        <ele>1699.4730224609</ele>
        <time>2017-05-29T08:44:14Z</time>
      </trkpt>
      <trkpt lat="45.41686" lon="5.91693">
        <ele>1695.4730224609</ele>
        <time>2017-05-29T08:44:18Z</time>
      </trkpt>
      <trkpt lat="45.41692" lon="5.917">
        <ele>1695.4730224609</ele>
        <time>2017-05-29T08:44:25Z</time>
      </trkpt>
      <trkpt lat="45.41699" lon="5.91704">
        <ele>1695.4730224609</ele>
        <time>2017-05-29T08:44:30Z</time>
      </trkpt>
      <trkpt lat="45.41704" lon="5.91711">
        <ele>1700.4730224609</ele>
        <time>2017-05-29T08:44:35Z</time>
      </trkpt>
      <trkpt lat="45.41709" lon="5.91719">
        <ele>1701.4730224609</ele>
        <time>2017-05-29T08:44:42Z</time>
      </trkpt>
      <trkpt lat="45.41716" lon="5.91725">
        <ele>1704.4730224609</ele>
        <time>2017-05-29T08:44:52Z</time>
      </trkpt>
      <trkpt lat="45.41722" lon="5.91732">
        <ele>1708.4730224609</ele>
        <time>2017-05-29T08:45:00Z</time>
      </trkpt>
      <trkpt lat="45.41729" lon="5.91739">
        <ele>1705.4730224609</ele>
        <time>2017-05-29T08:45:09Z</time>
      </trkpt>
      <trkpt lat="45.41732" lon="5.91751">
        <ele>1705.4730224609</ele>
        <time>2017-05-29T08:45:16Z</time>
      </trkpt>
      <trkpt lat="45.41736" lon="5.91759">
        <ele>1704.4730224609</ele>
        <time>2017-05-29T08:45:26Z</time>
      </trkpt>
      <trkpt lat="45.41742" lon="5.91768">
        <ele>1705.4730224609</ele>
        <time>2017-05-29T08:45:32Z</time>
      </trkpt>
      <trkpt lat="45.41747" lon="5.91776">
        <ele>1708.4730224609</ele>
        <time>2017-05-29T08:45:40Z</time>
      </trkpt>
      <trkpt lat="45.41751" lon="5.91791">
        <ele>1709.4730224609</ele>
        <time>2017-05-29T08:45:51Z</time>
      </trkpt>
      <trkpt lat="45.41756" lon="5.91799">
        <ele>1708.4730224609</ele>
        <time>2017-05-29T08:46:01Z</time>
      </trkpt>
      <trkpt lat="45.41764" lon="5.91818">
        <ele>1707.4730224609</ele>
        <time>2017-05-29T08:46:11Z</time>
      </trkpt>
      <trkpt lat="45.41768" lon="5.91829">
        <ele>1710.4730224609</ele>
        <time>2017-05-29T08:46:17Z</time>
      </trkpt>
      <trkpt lat="45.41773" lon="5.91837">
        <ele>1709.4730224609</ele>
        <time>2017-05-29T08:46:23Z</time>
      </trkpt>
      <trkpt lat="45.41776" lon="5.91846">
        <ele>1709.4730224609</ele>
        <time>2017-05-29T08:46:32Z</time>
      </trkpt>
      <trkpt lat="45.41782" lon="5.91855">
        <ele>1709.4730224609</ele>
        <time>2017-05-29T08:46:41Z</time>
      </trkpt>
      <trkpt lat="45.41787" lon="5.91865">
        <ele>1711.4730224609</ele>
        <time>2017-05-29T08:46:49Z</time>
      </trkpt>
      <trkpt lat="45.41791" lon="5.91874">
        <ele>1710.4730224609</ele>
        <time>2017-05-29T08:46:56Z</time>
      </trkpt>
      <trkpt lat="45.41794" lon="5.91884">
        <ele>1711.4730224609</ele>
        <time>2017-05-29T08:47:03Z</time>
      </trkpt>
      <trkpt lat="45.418" lon="5.91893">
        <ele>1713.4730224609</ele>
        <time>2017-05-29T08:47:11Z</time>
      </trkpt>
      <trkpt lat="45.41807" lon="5.91897">
        <ele>1712.4730224609</ele>
        <time>2017-05-29T08:47:18Z</time>
      </trkpt>
      <trkpt lat="45.41811" lon="5.91906">
        <ele>1718.4730224609</ele>
        <time>2017-05-29T08:47:32Z</time>
      </trkpt>
      <trkpt lat="45.41816" lon="5.91914">
        <ele>1721.4730224609</ele>
        <time>2017-05-29T08:47:39Z</time>
      </trkpt>
      <trkpt lat="45.41821" lon="5.91922">
        <ele>1722.4730224609</ele>
        <time>2017-05-29T08:47:48Z</time>
      </trkpt>
      <trkpt lat="45.41825" lon="5.91933">
        <ele>1724.4730224609</ele>
        <time>2017-05-29T08:47:55Z</time>
      </trkpt>
      <trkpt lat="45.41831" lon="5.91943">
        <ele>1721.4730224609</ele>
        <time>2017-05-29T08:48:03Z</time>
      </trkpt>
      <trkpt lat="45.41836" lon="5.91954">
        <ele>1722.4730224609</ele>
        <time>2017-05-29T08:48:10Z</time>
      </trkpt>
      <trkpt lat="45.41841" lon="5.91964">
        <ele>1723.4730224609</ele>
        <time>2017-05-29T08:48:16Z</time>
      </trkpt>
      <trkpt lat="45.41846" lon="5.91973">
        <ele>1724.4730224609</ele>
        <time>2017-05-29T08:48:22Z</time>
      </trkpt>
      <trkpt lat="45.4185" lon="5.91983">
        <ele>1725.4730224609</ele>
        <time>2017-05-29T08:48:29Z</time>
      </trkpt>
      <trkpt lat="45.41854" lon="5.91993">
        <ele>1727.4730224609</ele>
        <time>2017-05-29T08:48:36Z</time>
      </trkpt>
      <trkpt lat="45.41859" lon="5.92004">
        <ele>1729.4730224609</ele>
        <time>2017-05-29T08:48:47Z</time>
      </trkpt>
      <trkpt lat="45.41865" lon="5.92014">
        <ele>1726.4730224609</ele>
        <time>2017-05-29T08:48:58Z</time>
      </trkpt>
      <trkpt lat="45.4187" lon="5.92022">
        <ele>1727.4730224609</ele>
        <time>2017-05-29T08:49:07Z</time>
      </trkpt>
      <trkpt lat="45.41874" lon="5.92032">
        <ele>1730.4730224609</ele>
        <time>2017-05-29T08:49:14Z</time>
      </trkpt>
      <trkpt lat="45.41878" lon="5.92041">
        <ele>1732.4730224609</ele>
        <time>2017-05-29T08:49:20Z</time>
      </trkpt>
      <trkpt lat="45.41881" lon="5.92052">
        <ele>1732.4739990234</ele>
        <time>2017-05-29T08:49:27Z</time>
      </trkpt>
      <trkpt lat="45.41887" lon="5.92059">
        <ele>1727.4739990234</ele>
        <time>2017-05-29T08:49:36Z</time>
      </trkpt>
      <trkpt lat="45.4189" lon="5.92068">
        <ele>1727.4739990234</ele>
        <time>2017-05-29T08:49:41Z</time>
      </trkpt>
      <trkpt lat="45.41894" lon="5.92077">
        <ele>1732.4739990234</ele>
        <time>2017-05-29T08:49:51Z</time>
      </trkpt>
      <trkpt lat="45.41895" lon="5.9209">
        <ele>1732.4739990234</ele>
        <time>2017-05-29T08:49:59Z</time>
      </trkpt>
      <trkpt lat="45.41897" lon="5.92101">
        <ele>1736.4739990234</ele>
        <time>2017-05-29T08:50:06Z</time>
      </trkpt>
      <trkpt lat="45.41899" lon="5.92111">
        <ele>1737.4739990234</ele>
        <time>2017-05-29T08:50:22Z</time>
      </trkpt>
      <trkpt lat="45.41903" lon="5.9212">
        <ele>1735.4739990234</ele>
        <time>2017-05-29T08:50:28Z</time>
      </trkpt>
      <trkpt lat="45.41908" lon="5.9213">
        <ele>1737.4739990234</ele>
        <time>2017-05-29T08:50:36Z</time>
      </trkpt>
      <trkpt lat="45.41911" lon="5.92141">
        <ele>1739.4739990234</ele>
        <time>2017-05-29T08:50:44Z</time>
      </trkpt>
      <trkpt lat="45.4191" lon="5.92152">
        <ele>1736.4739990234</ele>
        <time>2017-05-29T08:50:50Z</time>
      </trkpt>
      <trkpt lat="45.41909" lon="5.92163">
        <ele>1736.4739990234</ele>
        <time>2017-05-29T08:50:56Z</time>
      </trkpt>
      <trkpt lat="45.41912" lon="5.92174">
        <ele>1735.4739990234</ele>
        <time>2017-05-29T08:51:05Z</time>
      </trkpt>
      <trkpt lat="45.41913" lon="5.92186">
        <ele>1733.4739990234</ele>
        <time>2017-05-29T08:51:11Z</time>
      </trkpt>
      <trkpt lat="45.41919" lon="5.92193">
        <ele>1737.4739990234</ele>
        <time>2017-05-29T08:51:19Z</time>
      </trkpt>
      <trkpt lat="45.41925" lon="5.92215">
        <ele>1737.4739990234</ele>
        <time>2017-05-29T08:51:37Z</time>
      </trkpt>
      <trkpt lat="45.41923" lon="5.92226">
        <ele>1739.4739990234</ele>
        <time>2017-05-29T08:51:48Z</time>
      </trkpt>
      <trkpt lat="45.41922" lon="5.92238">
        <ele>1737.4739990234</ele>
        <time>2017-05-29T08:51:53Z</time>
      </trkpt>
      <trkpt lat="45.41919" lon="5.92248">
        <ele>1735.4739990234</ele>
        <time>2017-05-29T08:51:59Z</time>
      </trkpt>
      <trkpt lat="45.41922" lon="5.92259">
        <ele>1736.4739990234</ele>
        <time>2017-05-29T08:52:15Z</time>
      </trkpt>
      <trkpt lat="45.41929" lon="5.92279">
        <ele>1738.4739990234</ele>
        <time>2017-05-29T08:52:27Z</time>
      </trkpt>
      <trkpt lat="45.41932" lon="5.92288">
        <ele>1743.4739990234</ele>
        <time>2017-05-29T08:52:33Z</time>
      </trkpt>
      <trkpt lat="45.41935" lon="5.92298">
        <ele>1742.4739990234</ele>
        <time>2017-05-29T08:52:50Z</time>
      </trkpt>
      <trkpt lat="45.41938" lon="5.92308">
        <ele>1743.4739990234</ele>
        <time>2017-05-29T08:53:22Z</time>
      </trkpt>
      <trkpt lat="45.4194" lon="5.92318">
        <ele>1748.4739990234</ele>
        <time>2017-05-29T08:53:29Z</time>
      </trkpt>
      <trkpt lat="45.41941" lon="5.9233">
        <ele>1749.4739990234</ele>
        <time>2017-05-29T08:53:38Z</time>
      </trkpt>
      <trkpt lat="45.41945" lon="5.92339">
        <ele>1750.4739990234</ele>
        <time>2017-05-29T08:53:45Z</time>
      </trkpt>
      <trkpt lat="45.41949" lon="5.92347">
        <ele>1749.4739990234</ele>
        <time>2017-05-29T08:53:51Z</time>
      </trkpt>
      <trkpt lat="45.4195" lon="5.92359">
        <ele>1752.4739990234</ele>
        <time>2017-05-29T08:53:58Z</time>
      </trkpt>
      <trkpt lat="45.41955" lon="5.92369">
        <ele>1752.4739990234</ele>
        <time>2017-05-29T08:54:07Z</time>
      </trkpt>
      <trkpt lat="45.41952" lon="5.92381">
        <ele>1753.4739990234</ele>
        <time>2017-05-29T08:54:13Z</time>
      </trkpt>
      <trkpt lat="45.41955" lon="5.92391">
        <ele>1751.4739990234</ele>
        <time>2017-05-29T08:54:21Z</time>
      </trkpt>
      <trkpt lat="45.41957" lon="5.92402">
        <ele>1751.4739990234</ele>
        <time>2017-05-29T08:54:34Z</time>
      </trkpt>
      <trkpt lat="45.41961" lon="5.92413">
        <ele>1748.4739990234</ele>
        <time>2017-05-29T08:54:49Z</time>
      </trkpt>
      <trkpt lat="45.41963" lon="5.92424">
        <ele>1751.4739990234</ele>
        <time>2017-05-29T08:54:55Z</time>
      </trkpt>
      <trkpt lat="45.41969" lon="5.92431">
        <ele>1754.4739990234</ele>
        <time>2017-05-29T08:55:03Z</time>
      </trkpt>
      <trkpt lat="45.41972" lon="5.9244">
        <ele>1754.4739990234</ele>
        <time>2017-05-29T08:55:16Z</time>
      </trkpt>
      <trkpt lat="45.41976" lon="5.9245">
        <ele>1757.4739990234</ele>
        <time>2017-05-29T08:55:27Z</time>
      </trkpt>
      <trkpt lat="45.41978" lon="5.92461">
        <ele>1760.4739990234</ele>
        <time>2017-05-29T08:55:39Z</time>
      </trkpt>
      <trkpt lat="45.41984" lon="5.92466">
        <ele>1760.4739990234</ele>
        <time>2017-05-29T08:55:46Z</time>
      </trkpt>
      <trkpt lat="45.4199" lon="5.92474">
        <ele>1760.4739990234</ele>
        <time>2017-05-29T08:55:55Z</time>
      </trkpt>
      <trkpt lat="45.41995" lon="5.92482">
        <ele>1763.4739990234</ele>
        <time>2017-05-29T08:56:01Z</time>
      </trkpt>
      <trkpt lat="45.42002" lon="5.9249">
        <ele>1765.4739990234</ele>
        <time>2017-05-29T08:56:14Z</time>
      </trkpt>
      <trkpt lat="45.42009" lon="5.92496">
        <ele>1768.4739990234</ele>
        <time>2017-05-29T08:56:22Z</time>
      </trkpt>
      <trkpt lat="45.42015" lon="5.92504">
        <ele>1765.4739990234</ele>
        <time>2017-05-29T08:56:29Z</time>
      </trkpt>
      <trkpt lat="45.42018" lon="5.92513">
        <ele>1766.4739990234</ele>
        <time>2017-05-29T08:56:41Z</time>
      </trkpt>
      <trkpt lat="45.42023" lon="5.92522">
        <ele>1771.4739990234</ele>
        <time>2017-05-29T08:57:03Z</time>
      </trkpt>
      <trkpt lat="45.42028" lon="5.9253">
        <ele>1772.4739990234</ele>
        <time>2017-05-29T08:57:10Z</time>
      </trkpt>
      <trkpt lat="45.42034" lon="5.92536">
        <ele>1770.4739990234</ele>
        <time>2017-05-29T08:57:17Z</time>
      </trkpt>
      <trkpt lat="45.42036" lon="5.92546">
        <ele>1769.4739990234</ele>
        <time>2017-05-29T08:57:25Z</time>
      </trkpt>
      <trkpt lat="45.42035" lon="5.92557">
        <ele>1769.4739990234</ele>
        <time>2017-05-29T08:57:32Z</time>
      </trkpt>
      <trkpt lat="45.42035" lon="5.92568">
        <ele>1767.4739990234</ele>
        <time>2017-05-29T08:57:38Z</time>
      </trkpt>
      <trkpt lat="45.42036" lon="5.92579">
        <ele>1771.4749755859</ele>
        <time>2017-05-29T08:57:59Z</time>
      </trkpt>
      <trkpt lat="45.42035" lon="5.9259">
        <ele>1774.4749755859</ele>
        <time>2017-05-29T08:58:09Z</time>
      </trkpt>
      <trkpt lat="45.42039" lon="5.92611">
        <ele>1774.4749755859</ele>
        <time>2017-05-29T08:58:17Z</time>
      </trkpt>
      <trkpt lat="45.42044" lon="5.92619">
        <ele>1775.4749755859</ele>
        <time>2017-05-29T08:58:23Z</time>
      </trkpt>
      <trkpt lat="45.42049" lon="5.92627">
        <ele>1772.4749755859</ele>
        <time>2017-05-29T08:58:38Z</time>
      </trkpt>
      <trkpt lat="45.42056" lon="5.92632">
        <ele>1773.4749755859</ele>
        <time>2017-05-29T08:58:45Z</time>
      </trkpt>
      <trkpt lat="45.42061" lon="5.9264">
        <ele>1772.4749755859</ele>
        <time>2017-05-29T08:59:02Z</time>
      </trkpt>
      <trkpt lat="45.42067" lon="5.92648">
        <ele>1774.4749755859</ele>
        <time>2017-05-29T08:59:09Z</time>
      </trkpt>
      <trkpt lat="45.42073" lon="5.92655">
        <ele>1776.4749755859</ele>
        <time>2017-05-29T08:59:15Z</time>
      </trkpt>
      <trkpt lat="45.4208" lon="5.92661">
        <ele>1777.4749755859</ele>
        <time>2017-05-29T08:59:22Z</time>
      </trkpt>
      <trkpt lat="45.42087" lon="5.92664">
        <ele>1778.4749755859</ele>
        <time>2017-05-29T08:59:27Z</time>
      </trkpt>
      <trkpt lat="45.4209" lon="5.92675">
        <ele>1776.4749755859</ele>
        <time>2017-05-29T08:59:33Z</time>
      </trkpt>
      <trkpt lat="45.42094" lon="5.92683">
        <ele>1776.4749755859</ele>
        <time>2017-05-29T08:59:39Z</time>
      </trkpt>
      <trkpt lat="45.42099" lon="5.92693">
        <ele>1779.4749755859</ele>
        <time>2017-05-29T08:59:46Z</time>
      </trkpt>
      <trkpt lat="45.42105" lon="5.927">
        <ele>1782.4749755859</ele>
        <time>2017-05-29T08:59:51Z</time>
      </trkpt>
      <trkpt lat="45.42111" lon="5.92706">
        <ele>1780.4749755859</ele>
        <time>2017-05-29T09:00:17Z</time>
      </trkpt>
      <trkpt lat="45.42115" lon="5.92715">
        <ele>1782.4749755859</ele>
        <time>2017-05-29T09:00:24Z</time>
      </trkpt>
      <trkpt lat="45.42121" lon="5.92736">
        <ele>1781.4749755859</ele>
        <time>2017-05-29T09:00:36Z</time>
      </trkpt>
      <trkpt lat="45.42128" lon="5.92739">
        <ele>1784.4749755859</ele>
        <time>2017-05-29T09:00:42Z</time>
      </trkpt>
      <trkpt lat="45.42135" lon="5.92744">
        <ele>1786.4749755859</ele>
        <time>2017-05-29T09:00:47Z</time>
      </trkpt>
      <trkpt lat="45.42141" lon="5.92752">
        <ele>1782.4749755859</ele>
        <time>2017-05-29T09:00:55Z</time>
      </trkpt>
      <trkpt lat="45.42142" lon="5.92763">
        <ele>1784.4749755859</ele>
        <time>2017-05-29T09:01:01Z</time>
      </trkpt>
      <trkpt lat="45.4214" lon="5.92775">
        <ele>1785.4749755859</ele>
        <time>2017-05-29T09:01:07Z</time>
      </trkpt>
      <trkpt lat="45.42142" lon="5.92786">
        <ele>1786.4749755859</ele>
        <time>2017-05-29T09:01:14Z</time>
      </trkpt>
      <trkpt lat="45.42146" lon="5.92795">
        <ele>1782.4749755859</ele>
        <time>2017-05-29T09:01:27Z</time>
      </trkpt>
      <trkpt lat="45.42147" lon="5.92806">
        <ele>1781.4749755859</ele>
        <time>2017-05-29T09:01:37Z</time>
      </trkpt>
      <trkpt lat="45.42142" lon="5.92814">
        <ele>1782.4749755859</ele>
        <time>2017-05-29T09:01:55Z</time>
      </trkpt>
      <trkpt lat="45.42139" lon="5.92824">
        <ele>1783.4749755859</ele>
        <time>2017-05-29T09:02:07Z</time>
      </trkpt>
      <trkpt lat="45.42134" lon="5.92831">
        <ele>1785.4749755859</ele>
        <time>2017-05-29T09:02:12Z</time>
      </trkpt>
      <trkpt lat="45.42133" lon="5.92842">
        <ele>1786.4749755859</ele>
        <time>2017-05-29T09:02:21Z</time>
      </trkpt>
      <trkpt lat="45.4213" lon="5.92851">
        <ele>1790.4749755859</ele>
        <time>2017-05-29T09:02:27Z</time>
      </trkpt>
      <trkpt lat="45.42128" lon="5.92863">
        <ele>1792.4749755859</ele>
        <time>2017-05-29T09:02:36Z</time>
      </trkpt>
      <trkpt lat="45.42131" lon="5.92873">
        <ele>1793.4749755859</ele>
        <time>2017-05-29T09:02:57Z</time>
      </trkpt>
      <trkpt lat="45.42126" lon="5.92883">
        <ele>1794.4749755859</ele>
        <time>2017-05-29T09:03:09Z</time>
      </trkpt>
      <trkpt lat="45.42131" lon="5.92891">
        <ele>1791.4749755859</ele>
        <time>2017-05-29T09:03:20Z</time>
      </trkpt>
      <trkpt lat="45.42134" lon="5.92902">
        <ele>1793.4749755859</ele>
        <time>2017-05-29T09:03:26Z</time>
      </trkpt>
      <trkpt lat="45.42136" lon="5.92913">
        <ele>1798.4749755859</ele>
        <time>2017-05-29T09:03:32Z</time>
      </trkpt>
      <trkpt lat="45.42137" lon="5.92923">
        <ele>1800.4749755859</ele>
        <time>2017-05-29T09:03:38Z</time>
      </trkpt>
      <trkpt lat="45.42138" lon="5.92933">
        <ele>1796.4749755859</ele>
        <time>2017-05-29T09:03:46Z</time>
      </trkpt>
      <trkpt lat="45.42145" lon="5.92936">
        <ele>1795.4749755859</ele>
        <time>2017-05-29T09:03:55Z</time>
      </trkpt>
      <trkpt lat="45.42151" lon="5.92942">
        <ele>1796.4749755859</ele>
        <time>2017-05-29T09:04:03Z</time>
      </trkpt>
      <trkpt lat="45.42158" lon="5.9295">
        <ele>1796.4749755859</ele>
        <time>2017-05-29T09:04:12Z</time>
      </trkpt>
      <trkpt lat="45.42161" lon="5.92959">
        <ele>1798.4749755859</ele>
        <time>2017-05-29T09:04:28Z</time>
      </trkpt>
      <trkpt lat="45.42169" lon="5.92962">
        <ele>1798.4749755859</ele>
        <time>2017-05-29T09:04:36Z</time>
      </trkpt>
      <trkpt lat="45.42176" lon="5.92969">
        <ele>1795.4749755859</ele>
        <time>2017-05-29T09:04:45Z</time>
      </trkpt>
      <trkpt lat="45.42182" lon="5.92977">
        <ele>1795.4749755859</ele>
        <time>2017-05-29T09:04:52Z</time>
      </trkpt>
      <trkpt lat="45.42188" lon="5.92959">
        <ele>1788.4749755859</ele>
        <time>2017-05-29T09:05:55Z</time>
      </trkpt>
      <trkpt lat="45.42195" lon="5.92956">
        <ele>1788.4749755859</ele>
        <time>2017-05-29T09:06:02Z</time>
      </trkpt>
      <trkpt lat="45.42199" lon="5.92946">
        <ele>1784.4749755859</ele>
        <time>2017-05-29T09:06:21Z</time>
      </trkpt>
      <trkpt lat="45.42206" lon="5.92947">
        <ele>1782.4749755859</ele>
        <time>2017-05-29T09:06:28Z</time>
      </trkpt>
      <trkpt lat="45.42213" lon="5.92945">
        <ele>1778.4749755859</ele>
        <time>2017-05-29T09:06:50Z</time>
      </trkpt>
      <trkpt lat="45.42219" lon="5.92938">
        <ele>1775.4749755859</ele>
        <time>2017-05-29T09:06:56Z</time>
      </trkpt>
      <trkpt lat="45.42226" lon="5.92936">
        <ele>1773.4749755859</ele>
        <time>2017-05-29T09:07:07Z</time>
      </trkpt>
      <trkpt lat="45.42233" lon="5.92936">
        <ele>1773.4749755859</ele>
        <time>2017-05-29T09:07:23Z</time>
      </trkpt>
      <trkpt lat="45.42241" lon="5.92934">
        <ele>1770.4749755859</ele>
        <time>2017-05-29T09:07:32Z</time>
      </trkpt>
      <trkpt lat="45.4225" lon="5.92935">
        <ele>1768.4749755859</ele>
        <time>2017-05-29T09:07:40Z</time>
      </trkpt>
      <trkpt lat="45.42258" lon="5.92939">
        <ele>1765.4749755859</ele>
        <time>2017-05-29T09:07:48Z</time>
      </trkpt>
      <trkpt lat="45.42265" lon="5.9294">
        <ele>1763.4749755859</ele>
        <time>2017-05-29T09:07:57Z</time>
      </trkpt>
      <trkpt lat="45.42272" lon="5.92939">
        <ele>1760.4749755859</ele>
        <time>2017-05-29T09:08:03Z</time>
      </trkpt>
      <trkpt lat="45.4228" lon="5.92939">
        <ele>1759.4749755859</ele>
        <time>2017-05-29T09:08:10Z</time>
      </trkpt>
      <trkpt lat="45.42287" lon="5.92942">
        <ele>1759.4749755859</ele>
        <time>2017-05-29T09:08:19Z</time>
      </trkpt>
      <trkpt lat="45.4229" lon="5.92952">
        <ele>1759.4759521484</ele>
        <time>2017-05-29T09:08:26Z</time>
      </trkpt>
      <trkpt lat="45.42295" lon="5.9296">
        <ele>1758.4759521484</ele>
        <time>2017-05-29T09:08:32Z</time>
      </trkpt>
      <trkpt lat="45.42302" lon="5.92968">
        <ele>1756.4759521484</ele>
        <time>2017-05-29T09:08:39Z</time>
      </trkpt>
      <trkpt lat="45.42307" lon="5.92977">
        <ele>1756.4759521484</ele>
        <time>2017-05-29T09:08:45Z</time>
      </trkpt>
      <trkpt lat="45.42311" lon="5.92987">
        <ele>1752.4759521484</ele>
        <time>2017-05-29T09:08:52Z</time>
      </trkpt>
      <trkpt lat="45.42315" lon="5.92996">
        <ele>1749.4759521484</ele>
        <time>2017-05-29T09:08:58Z</time>
      </trkpt>
      <trkpt lat="45.4232" lon="5.93004">
        <ele>1747.4759521484</ele>
        <time>2017-05-29T09:09:08Z</time>
      </trkpt>
      <trkpt lat="45.42316" lon="5.93013">
        <ele>1746.4759521484</ele>
        <time>2017-05-29T09:09:41Z</time>
      </trkpt>
      <trkpt lat="45.42322" lon="5.93019">
        <ele>1747.4759521484</ele>
        <time>2017-05-29T09:10:07Z</time>
      </trkpt>
      <trkpt lat="45.42329" lon="5.93022">
        <ele>1749.4759521484</ele>
        <time>2017-05-29T09:10:26Z</time>
      </trkpt>
      <trkpt lat="45.42336" lon="5.93027">
        <ele>1749.4759521484</ele>
        <time>2017-05-29T09:12:06Z</time>
      </trkpt>
      <trkpt lat="45.4234" lon="5.93036">
        <ele>1752.4759521484</ele>
        <time>2017-05-29T09:12:16Z</time>
      </trkpt>
      <trkpt lat="45.42345" lon="5.93046">
        <ele>1753.4759521484</ele>
        <time>2017-05-29T09:12:23Z</time>
      </trkpt>
      <trkpt lat="45.42351" lon="5.93051">
        <ele>1755.4759521484</ele>
        <time>2017-05-29T09:12:29Z</time>
      </trkpt>
      <trkpt lat="45.42357" lon="5.93058">
        <ele>1757.4759521484</ele>
        <time>2017-05-29T09:12:35Z</time>
      </trkpt>
      <trkpt lat="45.4236" lon="5.93068">
        <ele>1759.4759521484</ele>
        <time>2017-05-29T09:12:43Z</time>
      </trkpt>
      <trkpt lat="45.42364" lon="5.93078">
        <ele>1759.4759521484</ele>
        <time>2017-05-29T09:12:49Z</time>
      </trkpt>
      <trkpt lat="45.42369" lon="5.93086">
        <ele>1757.4759521484</ele>
        <time>2017-05-29T09:13:03Z</time>
      </trkpt>
      <trkpt lat="45.42372" lon="5.93097">
        <ele>1756.4759521484</ele>
        <time>2017-05-29T09:13:14Z</time>
      </trkpt>
      <trkpt lat="45.42371" lon="5.93108">
        <ele>1756.4759521484</ele>
        <time>2017-05-29T09:14:00Z</time>
      </trkpt>
      <trkpt lat="45.42373" lon="5.93119">
        <ele>1756.4759521484</ele>
        <time>2017-05-29T09:14:06Z</time>
      </trkpt>
      <trkpt lat="45.42371" lon="5.93131">
        <ele>1753.4759521484</ele>
        <time>2017-05-29T09:14:15Z</time>
      </trkpt>
      <trkpt lat="45.42369" lon="5.93143">
        <ele>1754.4759521484</ele>
        <time>2017-05-29T09:14:22Z</time>
      </trkpt>
      <trkpt lat="45.42369" lon="5.93155">
        <ele>1755.4759521484</ele>
        <time>2017-05-29T09:14:30Z</time>
      </trkpt>
      <trkpt lat="45.42369" lon="5.93166">
        <ele>1754.4759521484</ele>
        <time>2017-05-29T09:14:36Z</time>
      </trkpt>
      <trkpt lat="45.42368" lon="5.93177">
        <ele>1755.4759521484</ele>
        <time>2017-05-29T09:14:53Z</time>
      </trkpt>
      <trkpt lat="45.42372" lon="5.93187">
        <ele>1755.4759521484</ele>
        <time>2017-05-29T09:14:59Z</time>
      </trkpt>
      <trkpt lat="45.42377" lon="5.93195">
        <ele>1753.4759521484</ele>
        <time>2017-05-29T09:15:07Z</time>
      </trkpt>
      <trkpt lat="45.42382" lon="5.93202">
        <ele>1757.4759521484</ele>
        <time>2017-05-29T09:15:15Z</time>
      </trkpt>
      <trkpt lat="45.42384" lon="5.93212">
        <ele>1760.4759521484</ele>
        <time>2017-05-29T09:15:24Z</time>
      </trkpt>
      <trkpt lat="45.42389" lon="5.9322">
        <ele>1760.4759521484</ele>
        <time>2017-05-29T09:15:32Z</time>
      </trkpt>
      <trkpt lat="45.42393" lon="5.93229">
        <ele>1761.4759521484</ele>
        <time>2017-05-29T09:15:40Z</time>
      </trkpt>
      <trkpt lat="45.424" lon="5.93234">
        <ele>1759.4759521484</ele>
        <time>2017-05-29T09:15:46Z</time>
      </trkpt>
      <trkpt lat="45.42407" lon="5.9324">
        <ele>1764.4759521484</ele>
        <time>2017-05-29T09:15:52Z</time>
      </trkpt>
      <trkpt lat="45.42414" lon="5.93246">
        <ele>1767.4759521484</ele>
        <time>2017-05-29T09:16:02Z</time>
      </trkpt>
      <trkpt lat="45.42421" lon="5.93245">
        <ele>1771.4759521484</ele>
        <time>2017-05-29T09:16:10Z</time>
      </trkpt>
      <trkpt lat="45.42428" lon="5.93249">
        <ele>1773.4759521484</ele>
        <time>2017-05-29T09:16:17Z</time>
      </trkpt>
      <trkpt lat="45.42435" lon="5.93256">
        <ele>1773.4759521484</ele>
        <time>2017-05-29T09:16:24Z</time>
      </trkpt>
      <trkpt lat="45.42441" lon="5.9326">
        <ele>1772.4759521484</ele>
        <time>2017-05-29T09:16:31Z</time>
      </trkpt>
      <trkpt lat="45.42449" lon="5.93263">
        <ele>1770.4759521484</ele>
        <time>2017-05-29T09:16:38Z</time>
      </trkpt>
      <trkpt lat="45.42457" lon="5.93268">
        <ele>1771.4759521484</ele>
        <time>2017-05-29T09:16:45Z</time>
      </trkpt>
      <trkpt lat="45.42463" lon="5.93275">
        <ele>1770.4759521484</ele>
        <time>2017-05-29T09:16:52Z</time>
      </trkpt>
      <trkpt lat="45.4247" lon="5.93277">
        <ele>1771.4759521484</ele>
        <time>2017-05-29T09:16:57Z</time>
      </trkpt>
      <trkpt lat="45.42477" lon="5.93276">
        <ele>1771.4759521484</ele>
        <time>2017-05-29T09:17:04Z</time>
      </trkpt>
      <trkpt lat="45.42485" lon="5.93276">
        <ele>1771.4759521484</ele>
        <time>2017-05-29T09:17:17Z</time>
      </trkpt>
      <trkpt lat="45.42492" lon="5.93278">
        <ele>1769.4759521484</ele>
        <time>2017-05-29T09:17:24Z</time>
      </trkpt>
      <trkpt lat="45.42499" lon="5.93283">
        <ele>1771.4759521484</ele>
        <time>2017-05-29T09:17:30Z</time>
      </trkpt>
      <trkpt lat="45.42505" lon="5.93289">
        <ele>1770.4759521484</ele>
        <time>2017-05-29T09:17:37Z</time>
      </trkpt>
      <trkpt lat="45.42512" lon="5.93294">
        <ele>1770.4759521484</ele>
        <time>2017-05-29T09:17:47Z</time>
      </trkpt>
      <trkpt lat="45.42518" lon="5.93301">
        <ele>1769.4759521484</ele>
        <time>2017-05-29T09:17:53Z</time>
      </trkpt>
      <trkpt lat="45.42525" lon="5.93305">
        <ele>1769.4759521484</ele>
        <time>2017-05-29T09:18:01Z</time>
      </trkpt>
      <trkpt lat="45.4253" lon="5.93313">
        <ele>1770.4759521484</ele>
        <time>2017-05-29T09:18:07Z</time>
      </trkpt>
      <trkpt lat="45.42537" lon="5.93316">
        <ele>1771.4759521484</ele>
        <time>2017-05-29T09:18:15Z</time>
      </trkpt>
      <trkpt lat="45.42542" lon="5.93325">
        <ele>1772.4759521484</ele>
        <time>2017-05-29T09:18:21Z</time>
      </trkpt>
      <trkpt lat="45.42549" lon="5.93332">
        <ele>1772.4770507812</ele>
        <time>2017-05-29T09:18:29Z</time>
      </trkpt>
      <trkpt lat="45.42554" lon="5.93338">
        <ele>1771.4770507812</ele>
        <time>2017-05-29T09:18:36Z</time>
      </trkpt>
      <trkpt lat="45.4256" lon="5.93345">
        <ele>1771.4770507812</ele>
        <time>2017-05-29T09:18:43Z</time>
      </trkpt>
      <trkpt lat="45.42565" lon="5.93353">
        <ele>1770.4770507812</ele>
        <time>2017-05-29T09:18:53Z</time>
      </trkpt>
      <trkpt lat="45.42572" lon="5.93354">
        <ele>1768.4770507812</ele>
        <time>2017-05-29T09:19:09Z</time>
      </trkpt>
      <trkpt lat="45.42578" lon="5.93361">
        <ele>1771.4770507812</ele>
        <time>2017-05-29T09:19:23Z</time>
      </trkpt>
      <trkpt lat="45.42584" lon="5.93369">
        <ele>1772.4770507812</ele>
        <time>2017-05-29T09:19:30Z</time>
      </trkpt>
      <trkpt lat="45.4259" lon="5.93374">
        <ele>1773.4770507812</ele>
        <time>2017-05-29T09:19:40Z</time>
      </trkpt>
      <trkpt lat="45.42597" lon="5.93376">
        <ele>1776.4770507812</ele>
        <time>2017-05-29T09:20:05Z</time>
      </trkpt>
      <trkpt lat="45.42602" lon="5.93385">
        <ele>1770.4770507812</ele>
        <time>2017-05-29T09:20:16Z</time>
      </trkpt>
      <trkpt lat="45.42609" lon="5.93388">
        <ele>1770.4770507812</ele>
        <time>2017-05-29T09:20:23Z</time>
      </trkpt>
      <trkpt lat="45.42616" lon="5.93392">
        <ele>1770.4770507812</ele>
        <time>2017-05-29T09:20:29Z</time>
      </trkpt>
      <trkpt lat="45.42622" lon="5.93397">
        <ele>1771.4770507812</ele>
        <time>2017-05-29T09:20:36Z</time>
      </trkpt>
      <trkpt lat="45.42629" lon="5.93403">
        <ele>1771.4770507812</ele>
        <time>2017-05-29T09:20:44Z</time>
      </trkpt>
      <trkpt lat="45.42636" lon="5.93408">
        <ele>1772.4770507812</ele>
        <time>2017-05-29T09:20:52Z</time>
      </trkpt>
      <trkpt lat="45.42643" lon="5.93412">
        <ele>1773.4770507812</ele>
        <time>2017-05-29T09:20:59Z</time>
      </trkpt>
      <trkpt lat="45.42649" lon="5.93418">
        <ele>1776.4770507812</ele>
        <time>2017-05-29T09:21:05Z</time>
      </trkpt>
      <trkpt lat="45.42655" lon="5.93424">
        <ele>1777.4770507812</ele>
        <time>2017-05-29T09:21:13Z</time>
      </trkpt>
      <trkpt lat="45.42663" lon="5.93427">
        <ele>1777.4770507812</ele>
        <time>2017-05-29T09:21:20Z</time>
      </trkpt>
      <trkpt lat="45.4267" lon="5.9343">
        <ele>1779.4770507812</ele>
        <time>2017-05-29T09:21:27Z</time>
      </trkpt>
      <trkpt lat="45.42676" lon="5.93437">
        <ele>1779.4770507812</ele>
        <time>2017-05-29T09:21:42Z</time>
      </trkpt>
      <trkpt lat="45.42683" lon="5.93442">
        <ele>1779.4770507812</ele>
        <time>2017-05-29T09:21:49Z</time>
      </trkpt>
      <trkpt lat="45.4269" lon="5.93445">
        <ele>1779.4770507812</ele>
        <time>2017-05-29T09:21:58Z</time>
      </trkpt>
      <trkpt lat="45.42695" lon="5.93453">
        <ele>1778.4770507812</ele>
        <time>2017-05-29T09:22:04Z</time>
      </trkpt>
      <trkpt lat="45.42702" lon="5.93458">
        <ele>1778.4770507812</ele>
        <time>2017-05-29T09:22:20Z</time>
      </trkpt>
      <trkpt lat="45.42709" lon="5.9346">
        <ele>1780.4770507812</ele>
        <time>2017-05-29T09:22:29Z</time>
      </trkpt>
      <trkpt lat="45.42717" lon="5.93463">
        <ele>1778.4770507812</ele>
        <time>2017-05-29T09:22:36Z</time>
      </trkpt>
      <trkpt lat="45.42724" lon="5.93469">
        <ele>1780.4770507812</ele>
        <time>2017-05-29T09:22:43Z</time>
      </trkpt>
      <trkpt lat="45.42731" lon="5.93469">
        <ele>1779.4770507812</ele>
        <time>2017-05-29T09:23:03Z</time>
      </trkpt>
      <trkpt lat="45.42738" lon="5.93476">
        <ele>1778.4770507812</ele>
        <time>2017-05-29T09:23:12Z</time>
      </trkpt>
      <trkpt lat="45.42745" lon="5.93479">
        <ele>1778.4770507812</ele>
        <time>2017-05-29T09:23:20Z</time>
      </trkpt>
      <trkpt lat="45.42752" lon="5.93481">
        <ele>1777.4770507812</ele>
        <time>2017-05-29T09:23:27Z</time>
      </trkpt>
      <trkpt lat="45.42759" lon="5.93488">
        <ele>1779.4770507812</ele>
        <time>2017-05-29T09:23:35Z</time>
      </trkpt>
      <trkpt lat="45.42767" lon="5.93489">
        <ele>1776.4770507812</ele>
        <time>2017-05-29T09:23:47Z</time>
      </trkpt>
      <trkpt lat="45.42773" lon="5.93496">
        <ele>1778.4770507812</ele>
        <time>2017-05-29T09:23:56Z</time>
      </trkpt>
      <trkpt lat="45.4278" lon="5.93502">
        <ele>1780.4770507812</ele>
        <time>2017-05-29T09:24:04Z</time>
      </trkpt>
      <trkpt lat="45.42787" lon="5.93504">
        <ele>1779.4770507812</ele>
        <time>2017-05-29T09:24:38Z</time>
      </trkpt>
      <trkpt lat="45.42794" lon="5.93509">
        <ele>1779.4770507812</ele>
        <time>2017-05-29T09:24:57Z</time>
      </trkpt>
      <trkpt lat="45.42802" lon="5.9351">
        <ele>1780.4770507812</ele>
        <time>2017-05-29T09:25:10Z</time>
      </trkpt>
      <trkpt lat="45.4281" lon="5.93512">
        <ele>1778.4770507812</ele>
        <time>2017-05-29T09:25:18Z</time>
      </trkpt>
      <trkpt lat="45.42818" lon="5.93516">
        <ele>1778.4770507812</ele>
        <time>2017-05-29T09:25:35Z</time>
      </trkpt>
      <trkpt lat="45.42824" lon="5.93512">
        <ele>1772.4770507812</ele>
        <time>2017-05-29T09:26:08Z</time>
      </trkpt>
      <trkpt lat="45.4283" lon="5.9352">
        <ele>1775.4770507812</ele>
        <time>2017-05-29T09:26:17Z</time>
      </trkpt>
      <trkpt lat="45.42834" lon="5.9353">
        <ele>1777.4770507812</ele>
        <time>2017-05-29T09:26:26Z</time>
      </trkpt>
      <trkpt lat="45.4284" lon="5.93537">
        <ele>1777.4770507812</ele>
        <time>2017-05-29T09:26:33Z</time>
      </trkpt>
      <trkpt lat="45.42847" lon="5.93542">
        <ele>1777.4770507812</ele>
        <time>2017-05-29T09:26:40Z</time>
      </trkpt>
      <trkpt lat="45.42854" lon="5.93544">
        <ele>1776.4770507812</ele>
        <time>2017-05-29T09:27:07Z</time>
      </trkpt>
      <trkpt lat="45.42862" lon="5.93541">
        <ele>1777.4770507812</ele>
        <time>2017-05-29T09:27:14Z</time>
      </trkpt>
      <trkpt lat="45.42869" lon="5.93534">
        <ele>1772.4770507812</ele>
        <time>2017-05-29T09:27:22Z</time>
      </trkpt>
      <trkpt lat="45.42877" lon="5.93531">
        <ele>1772.4770507812</ele>
        <time>2017-05-29T09:27:31Z</time>
      </trkpt>
      <trkpt lat="45.42884" lon="5.93526">
        <ele>1768.4770507812</ele>
        <time>2017-05-29T09:27:37Z</time>
      </trkpt>
      <trkpt lat="45.42892" lon="5.93528">
        <ele>1764.4770507812</ele>
        <time>2017-05-29T09:27:55Z</time>
      </trkpt>
      <trkpt lat="45.42899" lon="5.9353">
        <ele>1767.4770507812</ele>
        <time>2017-05-29T09:28:18Z</time>
      </trkpt>
      <trkpt lat="45.42906" lon="5.93528">
        <ele>1769.4770507812</ele>
        <time>2017-05-29T09:28:27Z</time>
      </trkpt>
      <trkpt lat="45.42914" lon="5.9353">
        <ele>1766.4780273438</ele>
        <time>2017-05-29T09:28:42Z</time>
      </trkpt>
      <trkpt lat="45.42922" lon="5.93533">
        <ele>1762.4780273438</ele>
        <time>2017-05-29T09:29:01Z</time>
      </trkpt>
      <trkpt lat="45.4293" lon="5.93535">
        <ele>1761.4780273438</ele>
        <time>2017-05-29T09:29:08Z</time>
      </trkpt>
      <trkpt lat="45.42937" lon="5.93537">
        <ele>1761.4780273438</ele>
        <time>2017-05-29T09:29:20Z</time>
      </trkpt>
      <trkpt lat="45.42945" lon="5.93537">
        <ele>1760.4780273438</ele>
        <time>2017-05-29T09:29:26Z</time>
      </trkpt>
      <trkpt lat="45.42952" lon="5.93539">
        <ele>1760.4780273438</ele>
        <time>2017-05-29T09:29:34Z</time>
      </trkpt>
      <trkpt lat="45.42952" lon="5.93551">
        <ele>1765.4780273438</ele>
        <time>2017-05-29T09:29:40Z</time>
      </trkpt>
      <trkpt lat="45.42953" lon="5.93562">
        <ele>1768.4780273438</ele>
        <time>2017-05-29T09:29:46Z</time>
      </trkpt>
      <trkpt lat="45.42956" lon="5.93571">
        <ele>1770.4780273438</ele>
        <time>2017-05-29T09:29:54Z</time>
      </trkpt>
      <trkpt lat="45.42963" lon="5.93576">
        <ele>1770.4780273438</ele>
        <time>2017-05-29T09:30:09Z</time>
      </trkpt>
      <trkpt lat="45.42969" lon="5.93581">
        <ele>1771.4780273438</ele>
        <time>2017-05-29T09:30:14Z</time>
      </trkpt>
      <trkpt lat="45.42975" lon="5.93589">
        <ele>1769.4780273438</ele>
        <time>2017-05-29T09:30:23Z</time>
      </trkpt>
      <trkpt lat="45.42982" lon="5.93591">
        <ele>1767.4780273438</ele>
        <time>2017-05-29T09:30:55Z</time>
      </trkpt>
      <trkpt lat="45.42988" lon="5.93598">
        <ele>1770.4780273438</ele>
        <time>2017-05-29T09:31:03Z</time>
      </trkpt>
      <trkpt lat="45.42996" lon="5.93597">
        <ele>1768.4780273438</ele>
        <time>2017-05-29T09:31:11Z</time>
      </trkpt>
      <trkpt lat="45.43005" lon="5.93599">
        <ele>1764.4780273438</ele>
        <time>2017-05-29T09:31:24Z</time>
      </trkpt>
      <trkpt lat="45.43013" lon="5.93603">
        <ele>1764.4780273438</ele>
        <time>2017-05-29T09:31:30Z</time>
      </trkpt>
      <trkpt lat="45.4302" lon="5.93607">
        <ele>1764.4780273438</ele>
        <time>2017-05-29T09:31:37Z</time>
      </trkpt>
      <trkpt lat="45.43027" lon="5.93608">
        <ele>1763.4780273438</ele>
        <time>2017-05-29T09:31:44Z</time>
      </trkpt>
      <trkpt lat="45.43035" lon="5.93609">
        <ele>1762.4780273438</ele>
        <time>2017-05-29T09:31:50Z</time>
      </trkpt>
      <trkpt lat="45.43042" lon="5.93611">
        <ele>1759.4780273438</ele>
        <time>2017-05-29T09:32:02Z</time>
      </trkpt>
      <trkpt lat="45.43049" lon="5.93612">
        <ele>1762.4780273438</ele>
        <time>2017-05-29T09:32:21Z</time>
      </trkpt>
      <trkpt lat="45.43054" lon="5.93621">
        <ele>1765.4780273438</ele>
        <time>2017-05-29T09:32:29Z</time>
      </trkpt>
      <trkpt lat="45.43059" lon="5.9363">
        <ele>1767.4780273438</ele>
        <time>2017-05-29T09:32:43Z</time>
      </trkpt>
      <trkpt lat="45.43062" lon="5.93642">
        <ele>1770.4780273438</ele>
        <time>2017-05-29T09:32:52Z</time>
      </trkpt>
      <trkpt lat="45.43068" lon="5.93648">
        <ele>1770.4780273438</ele>
        <time>2017-05-29T09:33:02Z</time>
      </trkpt>
      <trkpt lat="45.43073" lon="5.93656">
        <ele>1774.4780273438</ele>
        <time>2017-05-29T09:33:19Z</time>
      </trkpt>
      <trkpt lat="45.43078" lon="5.93663">
        <ele>1775.4780273438</ele>
        <time>2017-05-29T09:33:30Z</time>
      </trkpt>
      <trkpt lat="45.43083" lon="5.9367">
        <ele>1772.4780273438</ele>
        <time>2017-05-29T09:33:44Z</time>
      </trkpt>
      <trkpt lat="45.4309" lon="5.93674">
        <ele>1771.4780273438</ele>
        <time>2017-05-29T09:34:01Z</time>
      </trkpt>
      <trkpt lat="45.43097" lon="5.93678">
        <ele>1776.4780273438</ele>
        <time>2017-05-29T09:34:11Z</time>
      </trkpt>
      <trkpt lat="45.43104" lon="5.93684">
        <ele>1775.4780273438</ele>
        <time>2017-05-29T09:34:19Z</time>
      </trkpt>
      <trkpt lat="45.43112" lon="5.93684">
        <ele>1774.4780273438</ele>
        <time>2017-05-29T09:34:25Z</time>
      </trkpt>
      <trkpt lat="45.43119" lon="5.93686">
        <ele>1776.4780273438</ele>
        <time>2017-05-29T09:34:36Z</time>
      </trkpt>
      <trkpt lat="45.43126" lon="5.9369">
        <ele>1777.4780273438</ele>
        <time>2017-05-29T09:34:45Z</time>
      </trkpt>
      <trkpt lat="45.43133" lon="5.93689">
        <ele>1778.4780273438</ele>
        <time>2017-05-29T09:34:52Z</time>
      </trkpt>
      <trkpt lat="45.43127" lon="5.93683">
        <ele>1782.4780273438</ele>
        <time>2017-05-29T09:35:53Z</time>
      </trkpt>
      <trkpt lat="45.43125" lon="5.93673">
        <ele>1783.4780273438</ele>
        <time>2017-05-29T09:36:49Z</time>
      </trkpt>
      <trkpt lat="45.43133" lon="5.93677">
        <ele>1795.4780273438</ele>
        <time>2017-05-29T09:38:15Z</time>
      </trkpt>
      <trkpt lat="45.4314" lon="5.93677">
        <ele>1804.4780273438</ele>
        <time>2017-05-29T09:39:15Z</time>
      </trkpt>
      <trkpt lat="45.43146" lon="5.93671">
        <ele>1803.4780273438</ele>
        <time>2017-05-29T09:39:39Z</time>
      </trkpt>
      <trkpt lat="45.43142" lon="5.93688">
        <ele>1803.4780273438</ele>
        <time>2017-05-29T09:39:46Z</time>
      </trkpt>
      <trkpt lat="45.43144" lon="5.93678">
        <ele>1805.4780273438</ele>
        <time>2017-05-29T09:39:51Z</time>
      </trkpt>
      <trkpt lat="45.43147" lon="5.93668">
        <ele>1806.4780273438</ele>
        <time>2017-05-29T09:39:55Z</time>
      </trkpt>
      <trkpt lat="45.4315" lon="5.93679">
        <ele>1807.4780273438</ele>
        <time>2017-05-29T09:40:16Z</time>
      </trkpt>
      <trkpt lat="45.43158" lon="5.93684">
        <ele>1809.4780273438</ele>
        <time>2017-05-29T09:40:23Z</time>
      </trkpt>
      <trkpt lat="45.4315" lon="5.93682">
        <ele>1809.4780273438</ele>
        <time>2017-05-29T09:42:53Z</time>
      </trkpt>
      <trkpt lat="45.43147" lon="5.9367">
        <ele>1810.4780273438</ele>
        <time>2017-05-29T09:44:19Z</time>
      </trkpt>
      <trkpt lat="45.43141" lon="5.93665">
        <ele>1810.4780273438</ele>
        <time>2017-05-29T09:46:22Z</time>
      </trkpt>
      <trkpt lat="45.43133" lon="5.9367">
        <ele>1815.4780273438</ele>
        <time>2017-05-29T09:46:38Z</time>
      </trkpt>
      <trkpt lat="45.43127" lon="5.93676">
        <ele>1818.4780273438</ele>
        <time>2017-05-29T09:47:18Z</time>
      </trkpt>
      <trkpt lat="45.43125" lon="5.93666">
        <ele>1804.4780273438</ele>
        <time>2017-05-29T09:49:16Z</time>
      </trkpt>
      <trkpt lat="45.4312" lon="5.93655">
        <ele>1804.4780273438</ele>
        <time>2017-05-29T09:49:37Z</time>
      </trkpt>
      <trkpt lat="45.43117" lon="5.93646">
        <ele>1802.4780273438</ele>
        <time>2017-05-29T09:49:42Z</time>
      </trkpt>
      <trkpt lat="45.43117" lon="5.93635">
        <ele>1803.4780273438</ele>
        <time>2017-05-29T09:50:13Z</time>
      </trkpt>
      <trkpt lat="45.43122" lon="5.93626">
        <ele>1802.4780273438</ele>
        <time>2017-05-29T09:50:23Z</time>
      </trkpt>
      <trkpt lat="45.43125" lon="5.93616">
        <ele>1816.4780273438</ele>
        <time>2017-05-29T09:52:36Z</time>
      </trkpt>
      <trkpt lat="45.43133" lon="5.93616">
        <ele>1814.4780273438</ele>
        <time>2017-05-29T09:53:12Z</time>
      </trkpt>
      <trkpt lat="45.43137" lon="5.93624">
        <ele>1820.4780273438</ele>
        <time>2017-05-29T09:53:19Z</time>
      </trkpt>
      <trkpt lat="45.43144" lon="5.93628">
        <ele>1823.4780273438</ele>
        <time>2017-05-29T09:53:27Z</time>
      </trkpt>
      <trkpt lat="45.43149" lon="5.93637">
        <ele>1825.4780273438</ele>
        <time>2017-05-29T09:53:35Z</time>
      </trkpt>
      <trkpt lat="45.43151" lon="5.93648">
        <ele>1829.4780273438</ele>
        <time>2017-05-29T09:53:43Z</time>
      </trkpt>
      <trkpt lat="45.43157" lon="5.93654">
        <ele>1828.4780273438</ele>
        <time>2017-05-29T09:53:52Z</time>
      </trkpt>
      <trkpt lat="45.43162" lon="5.93662">
        <ele>1831.4780273438</ele>
        <time>2017-05-29T09:54:05Z</time>
      </trkpt>
      <trkpt lat="45.43167" lon="5.93671">
        <ele>1830.4780273438</ele>
        <time>2017-05-29T09:54:14Z</time>
      </trkpt>
      <trkpt lat="45.43164" lon="5.93661">
        <ele>1828.4780273438</ele>
        <time>2017-05-29T09:55:07Z</time>
      </trkpt>
      <trkpt lat="45.43162" lon="5.9365">
        <ele>1829.4780273438</ele>
        <time>2017-05-29T09:55:15Z</time>
      </trkpt>
      <trkpt lat="45.43157" lon="5.93642">
        <ele>1830.4780273438</ele>
        <time>2017-05-29T09:55:26Z</time>
      </trkpt>
      <trkpt lat="45.43151" lon="5.93636">
        <ele>1830.4780273438</ele>
        <time>2017-05-29T10:01:04Z</time>
      </trkpt>
      <trkpt lat="45.43145" lon="5.93644">
        <ele>1831.4780273438</ele>
        <time>2017-05-29T10:01:16Z</time>
      </trkpt>
      <trkpt lat="45.43147" lon="5.93654">
        <ele>1834.4780273438</ele>
        <time>2017-05-29T10:01:25Z</time>
      </trkpt>
      <trkpt lat="45.43143" lon="5.93662">
        <ele>1833.4780273438</ele>
        <time>2017-05-29T10:01:52Z</time>
      </trkpt>
      <trkpt lat="45.43148" lon="5.93653">
        <ele>1833.4780273438</ele>
        <time>2017-05-29T10:02:42Z</time>
      </trkpt>
      <trkpt lat="45.43152" lon="5.93643">
        <ele>1833.4780273438</ele>
        <time>2017-05-29T10:02:49Z</time>
      </trkpt>
      <trkpt lat="45.43158" lon="5.93635">
        <ele>1837.4780273438</ele>
        <time>2017-05-29T10:09:41Z</time>
      </trkpt>
      <trkpt lat="45.43151" lon="5.93627">
        <ele>1834.4780273438</ele>
        <time>2017-05-29T10:13:05Z</time>
      </trkpt>
      <trkpt lat="45.4315" lon="5.93617">
        <ele>1835.4780273438</ele>
        <time>2017-05-29T10:13:13Z</time>
      </trkpt>
      <trkpt lat="45.43146" lon="5.93608">
        <ele>1834.4780273438</ele>
        <time>2017-05-29T10:13:20Z</time>
      </trkpt>
      <trkpt lat="45.43142" lon="5.93599">
        <ele>1833.4780273438</ele>
        <time>2017-05-29T10:13:28Z</time>
      </trkpt>
      <trkpt lat="45.43136" lon="5.93592">
        <ele>1832.4780273438</ele>
        <time>2017-05-29T10:13:33Z</time>
      </trkpt>
      <trkpt lat="45.43131" lon="5.93584">
        <ele>1831.4780273438</ele>
        <time>2017-05-29T10:13:41Z</time>
      </trkpt>
      <trkpt lat="45.43124" lon="5.93577">
        <ele>1831.4780273438</ele>
        <time>2017-05-29T10:13:49Z</time>
      </trkpt>
      <trkpt lat="45.4312" lon="5.93569">
        <ele>1827.4780273438</ele>
        <time>2017-05-29T10:14:02Z</time>
      </trkpt>
      <trkpt lat="45.43122" lon="5.93558">
        <ele>1825.4780273438</ele>
        <time>2017-05-29T10:14:18Z</time>
      </trkpt>
      <trkpt lat="45.43116" lon="5.93537">
        <ele>1822.4780273438</ele>
        <time>2017-05-29T10:14:35Z</time>
      </trkpt>
      <trkpt lat="45.43108" lon="5.93516">
        <ele>1826.4780273438</ele>
        <time>2017-05-29T10:14:52Z</time>
      </trkpt>
      <trkpt lat="45.431" lon="5.93515">
        <ele>1826.4780273438</ele>
        <time>2017-05-29T10:15:01Z</time>
      </trkpt>
      <trkpt lat="45.43092" lon="5.93515">
        <ele>1826.4780273438</ele>
        <time>2017-05-29T10:15:10Z</time>
      </trkpt>
      <trkpt lat="45.43085" lon="5.93511">
        <ele>1827.4780273438</ele>
        <time>2017-05-29T10:15:21Z</time>
      </trkpt>
      <trkpt lat="45.43073" lon="5.93512">
        <ele>1825.4780273438</ele>
        <time>2017-05-29T10:15:54Z</time>
      </trkpt>
      <trkpt lat="45.43067" lon="5.93519">
        <ele>1826.4780273438</ele>
        <time>2017-05-29T10:16:02Z</time>
      </trkpt>
      <trkpt lat="45.43059" lon="5.93516">
        <ele>1828.4780273438</ele>
        <time>2017-05-29T10:16:11Z</time>
      </trkpt>
      <trkpt lat="45.43053" lon="5.93522">
        <ele>1829.4780273438</ele>
        <time>2017-05-29T10:16:18Z</time>
      </trkpt>
      <trkpt lat="45.43047" lon="5.93515">
        <ele>1829.4780273438</ele>
        <time>2017-05-29T10:16:24Z</time>
      </trkpt>
      <trkpt lat="45.43042" lon="5.93506">
        <ele>1828.4780273438</ele>
        <time>2017-05-29T10:16:33Z</time>
      </trkpt>
      <trkpt lat="45.43037" lon="5.93497">
        <ele>1831.4780273438</ele>
        <time>2017-05-29T10:16:41Z</time>
      </trkpt>
      <trkpt lat="45.43031" lon="5.9349">
        <ele>1832.4780273438</ele>
        <time>2017-05-29T10:16:54Z</time>
      </trkpt>
      <trkpt lat="45.43024" lon="5.93492">
        <ele>1830.4780273438</ele>
        <time>2017-05-29T10:17:03Z</time>
      </trkpt>
      <trkpt lat="45.43016" lon="5.93488">
        <ele>1830.4780273438</ele>
        <time>2017-05-29T10:17:12Z</time>
      </trkpt>
      <trkpt lat="45.4301" lon="5.93482">
        <ele>1830.4780273438</ele>
        <time>2017-05-29T10:17:19Z</time>
      </trkpt>
      <trkpt lat="45.43006" lon="5.93472">
        <ele>1824.4780273438</ele>
        <time>2017-05-29T10:17:37Z</time>
      </trkpt>
      <trkpt lat="45.43005" lon="5.9346">
        <ele>1824.4780273438</ele>
        <time>2017-05-29T10:17:50Z</time>
      </trkpt>
      <trkpt lat="45.43" lon="5.93453">
        <ele>1822.4780273438</ele>
        <time>2017-05-29T10:18:00Z</time>
      </trkpt>
      <trkpt lat="45.42992" lon="5.9345">
        <ele>1822.4780273438</ele>
        <time>2017-05-29T10:18:09Z</time>
      </trkpt>
      <trkpt lat="45.42988" lon="5.9344">
        <ele>1822.4780273438</ele>
        <time>2017-05-29T10:18:13Z</time>
      </trkpt>
      <trkpt lat="45.4298" lon="5.93436">
        <ele>1820.4780273438</ele>
        <time>2017-05-29T10:18:21Z</time>
      </trkpt>
      <trkpt lat="45.42975" lon="5.93428">
        <ele>1819.4780273438</ele>
        <time>2017-05-29T10:18:32Z</time>
      </trkpt>
      <trkpt lat="45.42969" lon="5.93417">
        <ele>1818.4770507812</ele>
        <time>2017-05-29T10:18:41Z</time>
      </trkpt>
      <trkpt lat="45.4296" lon="5.93413">
        <ele>1812.4770507812</ele>
        <time>2017-05-29T10:18:47Z</time>
      </trkpt>
      <trkpt lat="45.42954" lon="5.93406">
        <ele>1813.4770507812</ele>
        <time>2017-05-29T10:18:54Z</time>
      </trkpt>
      <trkpt lat="45.42949" lon="5.93398">
        <ele>1816.4770507812</ele>
        <time>2017-05-29T10:19:00Z</time>
      </trkpt>
      <trkpt lat="45.42943" lon="5.93391">
        <ele>1820.4770507812</ele>
        <time>2017-05-29T10:19:09Z</time>
      </trkpt>
      <trkpt lat="45.42939" lon="5.9338">
        <ele>1821.4770507812</ele>
        <time>2017-05-29T10:19:13Z</time>
      </trkpt>
      <trkpt lat="45.42933" lon="5.93374">
        <ele>1821.4770507812</ele>
        <time>2017-05-29T10:19:24Z</time>
      </trkpt>
      <trkpt lat="45.42923" lon="5.93368">
        <ele>1819.4770507812</ele>
        <time>2017-05-29T10:19:32Z</time>
      </trkpt>
      <trkpt lat="45.42919" lon="5.93359">
        <ele>1820.4770507812</ele>
        <time>2017-05-29T10:19:48Z</time>
      </trkpt>
      <trkpt lat="45.42917" lon="5.93349">
        <ele>1820.4770507812</ele>
        <time>2017-05-29T10:19:55Z</time>
      </trkpt>
      <trkpt lat="45.42914" lon="5.93338">
        <ele>1822.4770507812</ele>
        <time>2017-05-29T10:20:01Z</time>
      </trkpt>
      <trkpt lat="45.42906" lon="5.93333">
        <ele>1817.4770507812</ele>
        <time>2017-05-29T10:20:08Z</time>
      </trkpt>
      <trkpt lat="45.42897" lon="5.93325">
        <ele>1809.4770507812</ele>
        <time>2017-05-29T10:20:15Z</time>
      </trkpt>
      <trkpt lat="45.42891" lon="5.9332">
        <ele>1809.4770507812</ele>
        <time>2017-05-29T10:20:23Z</time>
      </trkpt>
      <trkpt lat="45.42884" lon="5.9331">
        <ele>1813.4770507812</ele>
        <time>2017-05-29T10:20:34Z</time>
      </trkpt>
      <trkpt lat="45.42872" lon="5.93295">
        <ele>1817.4770507812</ele>
        <time>2017-05-29T10:20:45Z</time>
      </trkpt>
      <trkpt lat="45.42868" lon="5.93286">
        <ele>1815.4770507812</ele>
        <time>2017-05-29T10:20:55Z</time>
      </trkpt>
      <trkpt lat="45.42863" lon="5.93273">
        <ele>1816.4770507812</ele>
        <time>2017-05-29T10:21:10Z</time>
      </trkpt>
      <trkpt lat="45.42856" lon="5.93266">
        <ele>1813.4770507812</ele>
        <time>2017-05-29T10:21:18Z</time>
      </trkpt>
      <trkpt lat="45.42848" lon="5.93261">
        <ele>1808.4770507812</ele>
        <time>2017-05-29T10:21:27Z</time>
      </trkpt>
      <trkpt lat="45.42848" lon="5.9325">
        <ele>1807.4770507812</ele>
        <time>2017-05-29T10:21:34Z</time>
      </trkpt>
      <trkpt lat="45.42843" lon="5.93242">
        <ele>1804.4770507812</ele>
        <time>2017-05-29T10:21:44Z</time>
      </trkpt>
      <trkpt lat="45.42841" lon="5.93232">
        <ele>1804.4770507812</ele>
        <time>2017-05-29T10:21:51Z</time>
      </trkpt>
      <trkpt lat="45.42836" lon="5.93223">
        <ele>1801.4770507812</ele>
        <time>2017-05-29T10:21:57Z</time>
      </trkpt>
      <trkpt lat="45.42829" lon="5.93218">
        <ele>1799.4770507812</ele>
        <time>2017-05-29T10:22:04Z</time>
      </trkpt>
      <trkpt lat="45.42826" lon="5.93207">
        <ele>1798.4770507812</ele>
        <time>2017-05-29T10:22:12Z</time>
      </trkpt>
      <trkpt lat="45.4282" lon="5.93202">
        <ele>1799.4770507812</ele>
        <time>2017-05-29T10:22:17Z</time>
      </trkpt>
      <trkpt lat="45.42819" lon="5.93191">
        <ele>1800.4770507812</ele>
        <time>2017-05-29T10:22:39Z</time>
      </trkpt>
      <trkpt lat="45.42819" lon="5.9318">
        <ele>1792.4770507812</ele>
        <time>2017-05-29T10:23:27Z</time>
      </trkpt>
      <trkpt lat="45.4281" lon="5.93175">
        <ele>1794.4770507812</ele>
        <time>2017-05-29T10:23:35Z</time>
      </trkpt>
      <trkpt lat="45.42802" lon="5.9317">
        <ele>1795.4770507812</ele>
        <time>2017-05-29T10:23:43Z</time>
      </trkpt>
      <trkpt lat="45.42798" lon="5.93162">
        <ele>1790.4770507812</ele>
        <time>2017-05-29T10:23:52Z</time>
      </trkpt>
      <trkpt lat="45.42794" lon="5.93152">
        <ele>1791.4770507812</ele>
        <time>2017-05-29T10:24:03Z</time>
      </trkpt>
      <trkpt lat="45.42788" lon="5.93146">
        <ele>1790.4770507812</ele>
        <time>2017-05-29T10:24:08Z</time>
      </trkpt>
      <trkpt lat="45.4278" lon="5.93142">
        <ele>1786.4770507812</ele>
        <time>2017-05-29T10:24:18Z</time>
      </trkpt>
      <trkpt lat="45.42773" lon="5.93139">
        <ele>1787.4770507812</ele>
        <time>2017-05-29T10:24:31Z</time>
      </trkpt>
      <trkpt lat="45.42768" lon="5.9313">
        <ele>1786.4770507812</ele>
        <time>2017-05-29T10:24:41Z</time>
      </trkpt>
      <trkpt lat="45.42763" lon="5.93122">
        <ele>1785.4770507812</ele>
        <time>2017-05-29T10:24:47Z</time>
      </trkpt>
      <trkpt lat="45.42761" lon="5.93111">
        <ele>1787.4770507812</ele>
        <time>2017-05-29T10:24:52Z</time>
      </trkpt>
      <trkpt lat="45.42755" lon="5.93104">
        <ele>1780.4770507812</ele>
        <time>2017-05-29T10:24:59Z</time>
      </trkpt>
      <trkpt lat="45.42745" lon="5.93087">
        <ele>1777.4770507812</ele>
        <time>2017-05-29T10:25:10Z</time>
      </trkpt>
      <trkpt lat="45.42742" lon="5.93077">
        <ele>1775.4770507812</ele>
        <time>2017-05-29T10:25:21Z</time>
      </trkpt>
      <trkpt lat="45.42741" lon="5.93067">
        <ele>1770.4770507812</ele>
        <time>2017-05-29T10:25:50Z</time>
      </trkpt>
      <trkpt lat="45.42735" lon="5.93053">
        <ele>1768.4770507812</ele>
        <time>2017-05-29T10:26:13Z</time>
      </trkpt>
      <trkpt lat="45.4273" lon="5.93044">
        <ele>1769.4770507812</ele>
        <time>2017-05-29T10:26:27Z</time>
      </trkpt>
      <trkpt lat="45.42725" lon="5.93036">
        <ele>1770.4759521484</ele>
        <time>2017-05-29T10:26:39Z</time>
      </trkpt>
      <trkpt lat="45.42722" lon="5.93025">
        <ele>1769.4759521484</ele>
        <time>2017-05-29T10:26:52Z</time>
      </trkpt>
      <trkpt lat="45.42715" lon="5.93022">
        <ele>1763.4759521484</ele>
        <time>2017-05-29T10:26:58Z</time>
      </trkpt>
      <trkpt lat="45.42708" lon="5.93018">
        <ele>1756.4759521484</ele>
        <time>2017-05-29T10:27:07Z</time>
      </trkpt>
      <trkpt lat="45.42707" lon="5.93008">
        <ele>1760.4759521484</ele>
        <time>2017-05-29T10:27:17Z</time>
      </trkpt>
      <trkpt lat="45.42706" lon="5.92998">
        <ele>1757.4759521484</ele>
        <time>2017-05-29T10:27:28Z</time>
      </trkpt>
      <trkpt lat="45.427" lon="5.9299">
        <ele>1754.4759521484</ele>
        <time>2017-05-29T10:27:37Z</time>
      </trkpt>
      <trkpt lat="45.42692" lon="5.92987">
        <ele>1749.4759521484</ele>
        <time>2017-05-29T10:29:06Z</time>
      </trkpt>
      <trkpt lat="45.42686" lon="5.9298">
        <ele>1747.4759521484</ele>
        <time>2017-05-29T10:29:15Z</time>
      </trkpt>
      <trkpt lat="45.42681" lon="5.9297">
        <ele>1749.4759521484</ele>
        <time>2017-05-29T10:29:32Z</time>
      </trkpt>
      <trkpt lat="45.42683" lon="5.9296">
        <ele>1751.4759521484</ele>
        <time>2017-05-29T10:29:39Z</time>
      </trkpt>
      <trkpt lat="45.42684" lon="5.9295">
        <ele>1748.4759521484</ele>
        <time>2017-05-29T10:29:48Z</time>
      </trkpt>
      <trkpt lat="45.42699" lon="5.92956">
        <ele>1746.4759521484</ele>
        <time>2017-05-29T10:29:59Z</time>
      </trkpt>
      <trkpt lat="45.42707" lon="5.92958">
        <ele>1738.4759521484</ele>
        <time>2017-05-29T10:30:15Z</time>
      </trkpt>
      <trkpt lat="45.42715" lon="5.92959">
        <ele>1738.4759521484</ele>
        <time>2017-05-29T10:30:21Z</time>
      </trkpt>
      <trkpt lat="45.42724" lon="5.92961">
        <ele>1737.4759521484</ele>
        <time>2017-05-29T10:30:27Z</time>
      </trkpt>
      <trkpt lat="45.42732" lon="5.92962">
        <ele>1737.4759521484</ele>
        <time>2017-05-29T10:30:33Z</time>
      </trkpt>
      <trkpt lat="45.42739" lon="5.92966">
        <ele>1736.4759521484</ele>
        <time>2017-05-29T10:30:41Z</time>
      </trkpt>
      <trkpt lat="45.42747" lon="5.92961">
        <ele>1735.4759521484</ele>
        <time>2017-05-29T10:30:51Z</time>
      </trkpt>
      <trkpt lat="45.4275" lon="5.92952">
        <ele>1733.4759521484</ele>
        <time>2017-05-29T10:31:01Z</time>
      </trkpt>
      <trkpt lat="45.42752" lon="5.9294">
        <ele>1731.4759521484</ele>
        <time>2017-05-29T10:31:48Z</time>
      </trkpt>
      <trkpt lat="45.4275" lon="5.92929">
        <ele>1729.4759521484</ele>
        <time>2017-05-29T10:31:56Z</time>
      </trkpt>
      <trkpt lat="45.42742" lon="5.92914">
        <ele>1728.4759521484</ele>
        <time>2017-05-29T10:32:06Z</time>
      </trkpt>
      <trkpt lat="45.42742" lon="5.92902">
        <ele>1726.4759521484</ele>
        <time>2017-05-29T10:32:16Z</time>
      </trkpt>
      <trkpt lat="45.4274" lon="5.92892">
        <ele>1723.4759521484</ele>
        <time>2017-05-29T10:32:23Z</time>
      </trkpt>
      <trkpt lat="45.42737" lon="5.92883">
        <ele>1723.4759521484</ele>
        <time>2017-05-29T10:32:31Z</time>
      </trkpt>
      <trkpt lat="45.42731" lon="5.92874">
        <ele>1722.4759521484</ele>
        <time>2017-05-29T10:32:39Z</time>
      </trkpt>
      <trkpt lat="45.42729" lon="5.92864">
        <ele>1718.4759521484</ele>
        <time>2017-05-29T10:32:50Z</time>
      </trkpt>
      <trkpt lat="45.42723" lon="5.92853">
        <ele>1717.4759521484</ele>
        <time>2017-05-29T10:33:03Z</time>
      </trkpt>
      <trkpt lat="45.4272" lon="5.92843">
        <ele>1716.4759521484</ele>
        <time>2017-05-29T10:33:15Z</time>
      </trkpt>
      <trkpt lat="45.42713" lon="5.92835">
        <ele>1716.4759521484</ele>
        <time>2017-05-29T10:33:20Z</time>
      </trkpt>
      <trkpt lat="45.42708" lon="5.92825">
        <ele>1712.4759521484</ele>
        <time>2017-05-29T10:33:28Z</time>
      </trkpt>
      <trkpt lat="45.42709" lon="5.92814">
        <ele>1712.4759521484</ele>
        <time>2017-05-29T10:33:39Z</time>
      </trkpt>
      <trkpt lat="45.42716" lon="5.92816">
        <ele>1710.4759521484</ele>
        <time>2017-05-29T10:33:52Z</time>
      </trkpt>
      <trkpt lat="45.42717" lon="5.92806">
        <ele>1704.4759521484</ele>
        <time>2017-05-29T10:33:58Z</time>
      </trkpt>
      <trkpt lat="45.4272" lon="5.92797">
        <ele>1706.4759521484</ele>
        <time>2017-05-29T10:34:17Z</time>
      </trkpt>
      <trkpt lat="45.42727" lon="5.92792">
        <ele>1704.4759521484</ele>
        <time>2017-05-29T10:34:23Z</time>
      </trkpt>
      <trkpt lat="45.42728" lon="5.92781">
        <ele>1704.4759521484</ele>
        <time>2017-05-29T10:34:34Z</time>
      </trkpt>
      <trkpt lat="45.42727" lon="5.9277">
        <ele>1704.4759521484</ele>
        <time>2017-05-29T10:34:41Z</time>
      </trkpt>
      <trkpt lat="45.42724" lon="5.92761">
        <ele>1701.4759521484</ele>
        <time>2017-05-29T10:34:49Z</time>
      </trkpt>
      <trkpt lat="45.42723" lon="5.9275">
        <ele>1700.4759521484</ele>
        <time>2017-05-29T10:35:00Z</time>
      </trkpt>
      <trkpt lat="45.42723" lon="5.92738">
        <ele>1700.4759521484</ele>
        <time>2017-05-29T10:35:06Z</time>
      </trkpt>
      <trkpt lat="45.42723" lon="5.92727">
        <ele>1691.4759521484</ele>
        <time>2017-05-29T10:35:21Z</time>
      </trkpt>
      <trkpt lat="45.42727" lon="5.92717">
        <ele>1689.4759521484</ele>
        <time>2017-05-29T10:35:27Z</time>
      </trkpt>
      <trkpt lat="45.4273" lon="5.92708">
        <ele>1682.4759521484</ele>
        <time>2017-05-29T10:35:37Z</time>
      </trkpt>
      <trkpt lat="45.42737" lon="5.92701">
        <ele>1685.4759521484</ele>
        <time>2017-05-29T10:35:48Z</time>
      </trkpt>
      <trkpt lat="45.42751" lon="5.92689">
        <ele>1681.4759521484</ele>
        <time>2017-05-29T10:35:59Z</time>
      </trkpt>
      <trkpt lat="45.42758" lon="5.92685">
        <ele>1676.4759521484</ele>
        <time>2017-05-29T10:36:13Z</time>
      </trkpt>
      <trkpt lat="45.42764" lon="5.92679">
        <ele>1673.4759521484</ele>
        <time>2017-05-29T10:36:27Z</time>
      </trkpt>
      <trkpt lat="45.42769" lon="5.9267">
        <ele>1671.4759521484</ele>
        <time>2017-05-29T10:36:39Z</time>
      </trkpt>
      <trkpt lat="45.42777" lon="5.9267">
        <ele>1671.4759521484</ele>
        <time>2017-05-29T10:36:57Z</time>
      </trkpt>
      <trkpt lat="45.42785" lon="5.92665">
        <ele>1671.4759521484</ele>
        <time>2017-05-29T10:37:11Z</time>
      </trkpt>
      <trkpt lat="45.42792" lon="5.92663">
        <ele>1670.4759521484</ele>
        <time>2017-05-29T10:37:20Z</time>
      </trkpt>
      <trkpt lat="45.428" lon="5.92664">
        <ele>1669.4759521484</ele>
        <time>2017-05-29T10:37:26Z</time>
      </trkpt>
      <trkpt lat="45.42808" lon="5.92663">
        <ele>1671.4759521484</ele>
        <time>2017-05-29T10:37:31Z</time>
      </trkpt>
      <trkpt lat="45.42814" lon="5.92657">
        <ele>1669.4759521484</ele>
        <time>2017-05-29T10:37:40Z</time>
      </trkpt>
      <trkpt lat="45.42821" lon="5.92652">
        <ele>1667.4759521484</ele>
        <time>2017-05-29T10:37:51Z</time>
      </trkpt>
      <trkpt lat="45.42828" lon="5.92649">
        <ele>1667.4759521484</ele>
        <time>2017-05-29T10:38:00Z</time>
      </trkpt>
      <trkpt lat="45.4284" lon="5.9264">
        <ele>1664.4759521484</ele>
        <time>2017-05-29T10:38:10Z</time>
      </trkpt>
      <trkpt lat="45.42842" lon="5.92629">
        <ele>1661.4759521484</ele>
        <time>2017-05-29T10:38:22Z</time>
      </trkpt>
      <trkpt lat="45.42837" lon="5.9262">
        <ele>1659.4759521484</ele>
        <time>2017-05-29T10:38:40Z</time>
      </trkpt>
      <trkpt lat="45.42846" lon="5.92619">
        <ele>1659.4759521484</ele>
        <time>2017-05-29T10:38:49Z</time>
      </trkpt>
      <trkpt lat="45.42854" lon="5.92618">
        <ele>1654.4759521484</ele>
        <time>2017-05-29T10:39:03Z</time>
      </trkpt>
      <trkpt lat="45.42858" lon="5.92608">
        <ele>1654.4759521484</ele>
        <time>2017-05-29T10:39:12Z</time>
      </trkpt>
      <trkpt lat="45.42858" lon="5.92598">
        <ele>1650.4759521484</ele>
        <time>2017-05-29T10:39:45Z</time>
      </trkpt>
      <trkpt lat="45.42862" lon="5.92587">
        <ele>1651.4759521484</ele>
        <time>2017-05-29T10:39:56Z</time>
      </trkpt>
      <trkpt lat="45.42868" lon="5.9258">
        <ele>1651.4759521484</ele>
        <time>2017-05-29T10:40:04Z</time>
      </trkpt>
      <trkpt lat="45.42876" lon="5.92581">
        <ele>1646.4759521484</ele>
        <time>2017-05-29T10:40:25Z</time>
      </trkpt>
      <trkpt lat="45.42881" lon="5.92572">
        <ele>1644.4759521484</ele>
        <time>2017-05-29T10:40:33Z</time>
      </trkpt>
      <trkpt lat="45.42887" lon="5.92565">
        <ele>1644.4759521484</ele>
        <time>2017-05-29T10:40:39Z</time>
      </trkpt>
      <trkpt lat="45.42891" lon="5.92555">
        <ele>1645.4759521484</ele>
        <time>2017-05-29T10:40:46Z</time>
      </trkpt>
      <trkpt lat="45.42889" lon="5.92545">
        <ele>1635.4759521484</ele>
        <time>2017-05-29T10:41:03Z</time>
      </trkpt>
      <trkpt lat="45.42883" lon="5.92537">
        <ele>1634.4759521484</ele>
        <time>2017-05-29T10:41:09Z</time>
      </trkpt>
      <trkpt lat="45.4288" lon="5.92527">
        <ele>1635.4759521484</ele>
        <time>2017-05-29T10:41:14Z</time>
      </trkpt>
      <trkpt lat="45.42879" lon="5.92514">
        <ele>1634.4759521484</ele>
        <time>2017-05-29T10:41:23Z</time>
      </trkpt>
      <trkpt lat="45.42885" lon="5.92509">
        <ele>1634.4759521484</ele>
        <time>2017-05-29T10:41:30Z</time>
      </trkpt>
      <trkpt lat="45.42892" lon="5.92504">
        <ele>1633.4759521484</ele>
        <time>2017-05-29T10:41:36Z</time>
      </trkpt>
      <trkpt lat="45.42897" lon="5.92496">
        <ele>1632.4759521484</ele>
        <time>2017-05-29T10:41:46Z</time>
      </trkpt>
      <trkpt lat="45.42899" lon="5.92486">
        <ele>1629.4759521484</ele>
        <time>2017-05-29T10:41:54Z</time>
      </trkpt>
      <trkpt lat="45.42904" lon="5.92479">
        <ele>1626.4759521484</ele>
        <time>2017-05-29T10:42:03Z</time>
      </trkpt>
      <trkpt lat="45.42912" lon="5.92474">
        <ele>1623.4759521484</ele>
        <time>2017-05-29T10:42:13Z</time>
      </trkpt>
      <trkpt lat="45.42917" lon="5.92465">
        <ele>1617.4759521484</ele>
        <time>2017-05-29T10:42:24Z</time>
      </trkpt>
      <trkpt lat="45.42922" lon="5.92456">
        <ele>1616.4759521484</ele>
        <time>2017-05-29T10:42:29Z</time>
      </trkpt>
      <trkpt lat="45.42926" lon="5.92447">
        <ele>1615.4759521484</ele>
        <time>2017-05-29T10:42:35Z</time>
      </trkpt>
      <trkpt lat="45.42927" lon="5.92436">
        <ele>1612.4759521484</ele>
        <time>2017-05-29T10:42:41Z</time>
      </trkpt>
      <trkpt lat="45.42927" lon="5.92425">
        <ele>1613.4759521484</ele>
        <time>2017-05-29T10:42:47Z</time>
      </trkpt>
      <trkpt lat="45.42926" lon="5.92415">
        <ele>1613.4759521484</ele>
        <time>2017-05-29T10:42:56Z</time>
      </trkpt>
      <trkpt lat="45.42925" lon="5.92404">
        <ele>1612.4759521484</ele>
        <time>2017-05-29T10:43:04Z</time>
      </trkpt>
      <trkpt lat="45.42926" lon="5.92393">
        <ele>1614.4759521484</ele>
        <time>2017-05-29T10:43:12Z</time>
      </trkpt>
      <trkpt lat="45.42929" lon="5.92383">
        <ele>1617.4759521484</ele>
        <time>2017-05-29T10:43:17Z</time>
      </trkpt>
      <trkpt lat="45.42928" lon="5.92372">
        <ele>1614.4759521484</ele>
        <time>2017-05-29T10:43:25Z</time>
      </trkpt>
      <trkpt lat="45.42931" lon="5.9236">
        <ele>1612.4759521484</ele>
        <time>2017-05-29T10:43:33Z</time>
      </trkpt>
      <trkpt lat="45.42934" lon="5.9235">
        <ele>1611.4759521484</ele>
        <time>2017-05-29T10:43:39Z</time>
      </trkpt>
      <trkpt lat="45.42933" lon="5.92339">
        <ele>1609.4759521484</ele>
        <time>2017-05-29T10:43:46Z</time>
      </trkpt>
      <trkpt lat="45.42935" lon="5.92325">
        <ele>1610.4759521484</ele>
        <time>2017-05-29T10:46:17Z</time>
      </trkpt>
      <trkpt lat="45.42933" lon="5.92314">
        <ele>1609.4759521484</ele>
        <time>2017-05-29T10:46:24Z</time>
      </trkpt>
      <trkpt lat="45.42933" lon="5.92302">
        <ele>1608.4759521484</ele>
        <time>2017-05-29T10:46:30Z</time>
      </trkpt>
      <trkpt lat="45.42934" lon="5.92292">
        <ele>1608.4759521484</ele>
        <time>2017-05-29T10:46:40Z</time>
      </trkpt>
      <trkpt lat="45.42937" lon="5.92282">
        <ele>1608.4759521484</ele>
        <time>2017-05-29T10:46:46Z</time>
      </trkpt>
      <trkpt lat="45.42944" lon="5.92275">
        <ele>1607.4759521484</ele>
        <time>2017-05-29T10:46:54Z</time>
      </trkpt>
      <trkpt lat="45.42951" lon="5.9227">
        <ele>1605.4759521484</ele>
        <time>2017-05-29T10:47:00Z</time>
      </trkpt>
      <trkpt lat="45.42958" lon="5.92263">
        <ele>1603.4759521484</ele>
        <time>2017-05-29T10:47:08Z</time>
      </trkpt>
      <trkpt lat="45.42963" lon="5.92254">
        <ele>1601.4759521484</ele>
        <time>2017-05-29T10:47:15Z</time>
      </trkpt>
      <trkpt lat="45.42969" lon="5.92249">
        <ele>1600.4759521484</ele>
        <time>2017-05-29T10:47:20Z</time>
      </trkpt>
      <trkpt lat="45.42974" lon="5.92241">
        <ele>1601.4759521484</ele>
        <time>2017-05-29T10:47:26Z</time>
      </trkpt>
      <trkpt lat="45.42979" lon="5.92232">
        <ele>1600.4759521484</ele>
        <time>2017-05-29T10:47:32Z</time>
      </trkpt>
      <trkpt lat="45.4298" lon="5.9222">
        <ele>1599.4759521484</ele>
        <time>2017-05-29T10:47:37Z</time>
      </trkpt>
      <trkpt lat="45.42985" lon="5.92212">
        <ele>1599.4759521484</ele>
        <time>2017-05-29T10:47:44Z</time>
      </trkpt>
      <trkpt lat="45.4299" lon="5.92201">
        <ele>1596.4759521484</ele>
        <time>2017-05-29T10:47:54Z</time>
      </trkpt>
      <trkpt lat="45.42996" lon="5.92195">
        <ele>1596.4759521484</ele>
        <time>2017-05-29T10:48:01Z</time>
      </trkpt>
      <trkpt lat="45.43011" lon="5.92196">
        <ele>1591.4759521484</ele>
        <time>2017-05-29T10:48:20Z</time>
      </trkpt>
      <trkpt lat="45.43019" lon="5.92198">
        <ele>1590.4759521484</ele>
        <time>2017-05-29T10:48:29Z</time>
      </trkpt>
      <trkpt lat="45.43033" lon="5.92198">
        <ele>1589.4759521484</ele>
        <time>2017-05-29T10:48:38Z</time>
      </trkpt>
      <trkpt lat="45.43046" lon="5.92208">
        <ele>1597.4759521484</ele>
        <time>2017-05-29T10:48:44Z</time>
      </trkpt>
      <trkpt lat="45.43052" lon="5.92213">
        <ele>1595.4759521484</ele>
        <time>2017-05-29T10:48:53Z</time>
      </trkpt>
      <trkpt lat="45.43061" lon="5.92213">
        <ele>1596.4759521484</ele>
        <time>2017-05-29T10:48:58Z</time>
      </trkpt>
      <trkpt lat="45.43067" lon="5.92219">
        <ele>1594.4759521484</ele>
        <time>2017-05-29T10:49:06Z</time>
      </trkpt>
      <trkpt lat="45.43075" lon="5.92221">
        <ele>1591.4759521484</ele>
        <time>2017-05-29T10:49:14Z</time>
      </trkpt>
      <trkpt lat="45.43083" lon="5.92226">
        <ele>1591.4759521484</ele>
        <time>2017-05-29T10:49:20Z</time>
      </trkpt>
      <trkpt lat="45.4309" lon="5.92226">
        <ele>1589.4759521484</ele>
        <time>2017-05-29T10:49:38Z</time>
      </trkpt>
      <trkpt lat="45.43097" lon="5.92225">
        <ele>1585.4759521484</ele>
        <time>2017-05-29T10:50:20Z</time>
      </trkpt>
      <trkpt lat="45.43104" lon="5.92224">
        <ele>1585.4759521484</ele>
        <time>2017-05-29T10:50:25Z</time>
      </trkpt>
      <trkpt lat="45.43112" lon="5.92226">
        <ele>1586.4759521484</ele>
        <time>2017-05-29T10:50:32Z</time>
      </trkpt>
      <trkpt lat="45.43119" lon="5.92231">
        <ele>1587.4759521484</ele>
        <time>2017-05-29T10:50:41Z</time>
      </trkpt>
      <trkpt lat="45.43126" lon="5.92235">
        <ele>1586.4759521484</ele>
        <time>2017-05-29T10:50:47Z</time>
      </trkpt>
      <trkpt lat="45.43134" lon="5.9224">
        <ele>1586.4759521484</ele>
        <time>2017-05-29T10:50:50Z</time>
      </trkpt>
      <trkpt lat="45.43141" lon="5.92235">
        <ele>1583.4759521484</ele>
        <time>2017-05-29T10:50:59Z</time>
      </trkpt>
      <trkpt lat="45.43147" lon="5.92228">
        <ele>1582.4759521484</ele>
        <time>2017-05-29T10:51:07Z</time>
      </trkpt>
      <trkpt lat="45.43152" lon="5.92219">
        <ele>1577.4759521484</ele>
        <time>2017-05-29T10:51:32Z</time>
      </trkpt>
      <trkpt lat="45.43161" lon="5.92214">
        <ele>1579.4759521484</ele>
        <time>2017-05-29T10:51:38Z</time>
      </trkpt>
      <trkpt lat="45.43168" lon="5.92207">
        <ele>1577.4759521484</ele>
        <time>2017-05-29T10:51:46Z</time>
      </trkpt>
      <trkpt lat="45.43176" lon="5.92203">
        <ele>1570.4759521484</ele>
        <time>2017-05-29T10:51:53Z</time>
      </trkpt>
      <trkpt lat="45.43184" lon="5.92203">
        <ele>1566.4759521484</ele>
        <time>2017-05-29T10:51:58Z</time>
      </trkpt>
      <trkpt lat="45.43191" lon="5.92198">
        <ele>1572.4759521484</ele>
        <time>2017-05-29T10:52:06Z</time>
      </trkpt>
      <trkpt lat="45.432" lon="5.92194">
        <ele>1573.4759521484</ele>
        <time>2017-05-29T10:52:12Z</time>
      </trkpt>
      <trkpt lat="45.43208" lon="5.92192">
        <ele>1574.4759521484</ele>
        <time>2017-05-29T10:52:18Z</time>
      </trkpt>
      <trkpt lat="45.43215" lon="5.92189">
        <ele>1576.4759521484</ele>
        <time>2017-05-29T10:52:23Z</time>
      </trkpt>
      <trkpt lat="45.4322" lon="5.92182">
        <ele>1572.4759521484</ele>
        <time>2017-05-29T10:52:28Z</time>
      </trkpt>
      <trkpt lat="45.43227" lon="5.92173">
        <ele>1571.4759521484</ele>
        <time>2017-05-29T10:52:33Z</time>
      </trkpt>
      <trkpt lat="45.43232" lon="5.92165">
        <ele>1569.4759521484</ele>
        <time>2017-05-29T10:52:38Z</time>
      </trkpt>
      <trkpt lat="45.43238" lon="5.92159">
        <ele>1569.4759521484</ele>
        <time>2017-05-29T10:52:42Z</time>
      </trkpt>
      <trkpt lat="45.43243" lon="5.92151">
        <ele>1568.4759521484</ele>
        <time>2017-05-29T10:52:48Z</time>
      </trkpt>
      <trkpt lat="45.43249" lon="5.92145">
        <ele>1569.4759521484</ele>
        <time>2017-05-29T10:52:56Z</time>
      </trkpt>
      <trkpt lat="45.43253" lon="5.92136">
        <ele>1570.4759521484</ele>
        <time>2017-05-29T10:53:03Z</time>
      </trkpt>
      <trkpt lat="45.43255" lon="5.92124">
        <ele>1567.4759521484</ele>
        <time>2017-05-29T10:53:10Z</time>
      </trkpt>
      <trkpt lat="45.43257" lon="5.92106">
        <ele>1566.4759521484</ele>
        <time>2017-05-29T10:53:19Z</time>
      </trkpt>
      <trkpt lat="45.43256" lon="5.92095">
        <ele>1568.4759521484</ele>
        <time>2017-05-29T10:53:27Z</time>
      </trkpt>
      <trkpt lat="45.43255" lon="5.92084">
        <ele>1572.4759521484</ele>
        <time>2017-05-29T10:53:34Z</time>
      </trkpt>
      <trkpt lat="45.43252" lon="5.92075">
        <ele>1575.4759521484</ele>
        <time>2017-05-29T10:53:41Z</time>
      </trkpt>
      <trkpt lat="45.43257" lon="5.92066">
        <ele>1576.4759521484</ele>
        <time>2017-05-29T10:53:47Z</time>
      </trkpt>
      <trkpt lat="45.43257" lon="5.92056">
        <ele>1578.4759521484</ele>
        <time>2017-05-29T10:53:56Z</time>
      </trkpt>
      <trkpt lat="45.43252" lon="5.92047">
        <ele>1574.4759521484</ele>
        <time>2017-05-29T10:54:02Z</time>
      </trkpt>
      <trkpt lat="45.43251" lon="5.92036">
        <ele>1575.4759521484</ele>
        <time>2017-05-29T10:54:11Z</time>
      </trkpt>
      <trkpt lat="45.43246" lon="5.92027">
        <ele>1576.4759521484</ele>
        <time>2017-05-29T10:54:19Z</time>
      </trkpt>
      <trkpt lat="45.43241" lon="5.92018">
        <ele>1575.4759521484</ele>
        <time>2017-05-29T10:54:29Z</time>
      </trkpt>
      <trkpt lat="45.43233" lon="5.92014">
        <ele>1573.4759521484</ele>
        <time>2017-05-29T10:54:34Z</time>
      </trkpt>
      <trkpt lat="45.43226" lon="5.92014">
        <ele>1575.4759521484</ele>
        <time>2017-05-29T10:54:42Z</time>
      </trkpt>
      <trkpt lat="45.43219" lon="5.92007">
        <ele>1575.4759521484</ele>
        <time>2017-05-29T10:54:57Z</time>
      </trkpt>
      <trkpt lat="45.43206" lon="5.91994">
        <ele>1570.4759521484</ele>
        <time>2017-05-29T10:55:07Z</time>
      </trkpt>
      <trkpt lat="45.43212" lon="5.91988">
        <ele>1572.4759521484</ele>
        <time>2017-05-29T10:55:17Z</time>
      </trkpt>
      <trkpt lat="45.43219" lon="5.91991">
        <ele>1570.4759521484</ele>
        <time>2017-05-29T10:55:26Z</time>
      </trkpt>
      <trkpt lat="45.43226" lon="5.91994">
        <ele>1570.4759521484</ele>
        <time>2017-05-29T10:55:31Z</time>
      </trkpt>
      <trkpt lat="45.43235" lon="5.91992">
        <ele>1571.4759521484</ele>
        <time>2017-05-29T10:55:38Z</time>
      </trkpt>
      <trkpt lat="45.43242" lon="5.91989">
        <ele>1576.4759521484</ele>
        <time>2017-05-29T10:55:45Z</time>
      </trkpt>
      <trkpt lat="45.43249" lon="5.91987">
        <ele>1577.4759521484</ele>
        <time>2017-05-29T10:55:51Z</time>
      </trkpt>
      <trkpt lat="45.43255" lon="5.91981">
        <ele>1574.4759521484</ele>
        <time>2017-05-29T10:56:00Z</time>
      </trkpt>
      <trkpt lat="45.4326" lon="5.9197">
        <ele>1572.4759521484</ele>
        <time>2017-05-29T10:56:37Z</time>
      </trkpt>
      <trkpt lat="45.43262" lon="5.9196">
        <ele>1573.4759521484</ele>
        <time>2017-05-29T10:56:43Z</time>
      </trkpt>
      <trkpt lat="45.43265" lon="5.91949">
        <ele>1575.4759521484</ele>
        <time>2017-05-29T10:56:49Z</time>
      </trkpt>
      <trkpt lat="45.43268" lon="5.91939">
        <ele>1573.4759521484</ele>
        <time>2017-05-29T10:56:58Z</time>
      </trkpt>
      <trkpt lat="45.43271" lon="5.91927">
        <ele>1572.4759521484</ele>
        <time>2017-05-29T10:57:05Z</time>
      </trkpt>
      <trkpt lat="45.43273" lon="5.91917">
        <ele>1571.4759521484</ele>
        <time>2017-05-29T10:57:15Z</time>
      </trkpt>
      <trkpt lat="45.4328" lon="5.91912">
        <ele>1572.4759521484</ele>
        <time>2017-05-29T10:57:22Z</time>
      </trkpt>
      <trkpt lat="45.43284" lon="5.91903">
        <ele>1571.4759521484</ele>
        <time>2017-05-29T10:57:46Z</time>
      </trkpt>
      <trkpt lat="45.43291" lon="5.91897">
        <ele>1572.4759521484</ele>
        <time>2017-05-29T10:57:56Z</time>
      </trkpt>
      <trkpt lat="45.43293" lon="5.91887">
        <ele>1572.4759521484</ele>
        <time>2017-05-29T10:58:03Z</time>
      </trkpt>
      <trkpt lat="45.43298" lon="5.91877">
        <ele>1575.4759521484</ele>
        <time>2017-05-29T10:58:21Z</time>
      </trkpt>
      <trkpt lat="45.43306" lon="5.91873">
        <ele>1576.4759521484</ele>
        <time>2017-05-29T10:58:30Z</time>
      </trkpt>
      <trkpt lat="45.43314" lon="5.91872">
        <ele>1575.4759521484</ele>
        <time>2017-05-29T10:58:37Z</time>
      </trkpt>
      <trkpt lat="45.43321" lon="5.91868">
        <ele>1582.4759521484</ele>
        <time>2017-05-29T10:58:43Z</time>
      </trkpt>
      <trkpt lat="45.43328" lon="5.91868">
        <ele>1578.4759521484</ele>
        <time>2017-05-29T10:58:54Z</time>
      </trkpt>
      <trkpt lat="45.43329" lon="5.91878">
        <ele>1576.4759521484</ele>
        <time>2017-05-29T10:59:10Z</time>
      </trkpt>
      <trkpt lat="45.43337" lon="5.91884">
        <ele>1573.4759521484</ele>
        <time>2017-05-29T10:59:28Z</time>
      </trkpt>
      <trkpt lat="45.43345" lon="5.91885">
        <ele>1573.4759521484</ele>
        <time>2017-05-29T10:59:38Z</time>
      </trkpt>
      <trkpt lat="45.43349" lon="5.91894">
        <ele>1574.4759521484</ele>
        <time>2017-05-29T10:59:49Z</time>
      </trkpt>
      <trkpt lat="45.43355" lon="5.91902">
        <ele>1571.4759521484</ele>
        <time>2017-05-29T10:59:57Z</time>
      </trkpt>
      <trkpt lat="45.43362" lon="5.91906">
        <ele>1569.4759521484</ele>
        <time>2017-05-29T11:00:21Z</time>
      </trkpt>
      <trkpt lat="45.43363" lon="5.91895">
        <ele>1571.4759521484</ele>
        <time>2017-05-29T11:00:32Z</time>
      </trkpt>
      <trkpt lat="45.43367" lon="5.91886">
        <ele>1574.4759521484</ele>
        <time>2017-05-29T11:00:48Z</time>
      </trkpt>
      <trkpt lat="45.43372" lon="5.91878">
        <ele>1574.4759521484</ele>
        <time>2017-05-29T11:01:02Z</time>
      </trkpt>
      <trkpt lat="45.43379" lon="5.91877">
        <ele>1572.4759521484</ele>
        <time>2017-05-29T11:01:39Z</time>
      </trkpt>
      <trkpt lat="45.43387" lon="5.91884">
        <ele>1567.4759521484</ele>
        <time>2017-05-29T11:01:59Z</time>
      </trkpt>
      <trkpt lat="45.43393" lon="5.91892">
        <ele>1564.4759521484</ele>
        <time>2017-05-29T11:02:07Z</time>
      </trkpt>
      <trkpt lat="45.434" lon="5.91898">
        <ele>1564.4759521484</ele>
        <time>2017-05-29T11:02:16Z</time>
      </trkpt>
      <trkpt lat="45.43406" lon="5.91905">
        <ele>1561.4759521484</ele>
        <time>2017-05-29T11:02:23Z</time>
      </trkpt>
      <trkpt lat="45.43409" lon="5.91915">
        <ele>1560.4759521484</ele>
        <time>2017-05-29T11:02:29Z</time>
      </trkpt>
      <trkpt lat="45.43413" lon="5.91924">
        <ele>1560.4759521484</ele>
        <time>2017-05-29T11:02:36Z</time>
      </trkpt>
      <trkpt lat="45.43419" lon="5.9193">
        <ele>1562.4759521484</ele>
        <time>2017-05-29T11:02:43Z</time>
      </trkpt>
      <trkpt lat="45.43424" lon="5.9194">
        <ele>1560.4770507812</ele>
        <time>2017-05-29T11:02:56Z</time>
      </trkpt>
      <trkpt lat="45.4343" lon="5.91949">
        <ele>1560.4770507812</ele>
        <time>2017-05-29T11:03:01Z</time>
      </trkpt>
      <trkpt lat="45.43436" lon="5.91957">
        <ele>1561.4770507812</ele>
        <time>2017-05-29T11:03:06Z</time>
      </trkpt>
      <trkpt lat="45.43438" lon="5.91968">
        <ele>1560.4770507812</ele>
        <time>2017-05-29T11:03:16Z</time>
      </trkpt>
      <trkpt lat="45.43443" lon="5.91977">
        <ele>1559.4770507812</ele>
        <time>2017-05-29T11:03:21Z</time>
      </trkpt>
      <trkpt lat="45.43445" lon="5.91988">
        <ele>1561.4770507812</ele>
        <time>2017-05-29T11:03:29Z</time>
      </trkpt>
      <trkpt lat="45.4345" lon="5.91997">
        <ele>1555.4770507812</ele>
        <time>2017-05-29T11:03:36Z</time>
      </trkpt>
      <trkpt lat="45.43452" lon="5.92009">
        <ele>1555.4770507812</ele>
        <time>2017-05-29T11:03:42Z</time>
      </trkpt>
      <trkpt lat="45.43458" lon="5.92016">
        <ele>1553.4770507812</ele>
        <time>2017-05-29T11:03:48Z</time>
      </trkpt>
      <trkpt lat="45.43465" lon="5.92021">
        <ele>1551.4770507812</ele>
        <time>2017-05-29T11:03:53Z</time>
      </trkpt>
      <trkpt lat="45.43471" lon="5.92028">
        <ele>1550.4770507812</ele>
        <time>2017-05-29T11:04:00Z</time>
      </trkpt>
      <trkpt lat="45.43476" lon="5.92037">
        <ele>1552.4770507812</ele>
        <time>2017-05-29T11:04:11Z</time>
      </trkpt>
      <trkpt lat="45.4348" lon="5.92045">
        <ele>1551.4770507812</ele>
        <time>2017-05-29T11:04:19Z</time>
      </trkpt>
      <trkpt lat="45.43483" lon="5.92056">
        <ele>1551.4770507812</ele>
        <time>2017-05-29T11:04:32Z</time>
      </trkpt>
      <trkpt lat="45.43484" lon="5.92068">
        <ele>1546.4770507812</ele>
        <time>2017-05-29T11:04:46Z</time>
      </trkpt>
      <trkpt lat="45.43489" lon="5.92075">
        <ele>1543.4770507812</ele>
        <time>2017-05-29T11:04:51Z</time>
      </trkpt>
      <trkpt lat="45.43495" lon="5.92084">
        <ele>1545.4770507812</ele>
        <time>2017-05-29T11:04:57Z</time>
      </trkpt>
      <trkpt lat="45.43497" lon="5.92094">
        <ele>1541.4770507812</ele>
        <time>2017-05-29T11:05:03Z</time>
      </trkpt>
      <trkpt lat="45.435" lon="5.92116">
        <ele>1544.4770507812</ele>
        <time>2017-05-29T11:05:09Z</time>
      </trkpt>
      <trkpt lat="45.43503" lon="5.92127">
        <ele>1543.4770507812</ele>
        <time>2017-05-29T11:05:14Z</time>
      </trkpt>
      <trkpt lat="45.43506" lon="5.92141">
        <ele>1548.4770507812</ele>
        <time>2017-05-29T11:05:21Z</time>
      </trkpt>
      <trkpt lat="45.43511" lon="5.92165">
        <ele>1550.4770507812</ele>
        <time>2017-05-29T11:05:30Z</time>
      </trkpt>
      <trkpt lat="45.4352" lon="5.92186">
        <ele>1546.4770507812</ele>
        <time>2017-05-29T11:05:37Z</time>
      </trkpt>
      <trkpt lat="45.43528" lon="5.92205">
        <ele>1545.4770507812</ele>
        <time>2017-05-29T11:05:46Z</time>
      </trkpt>
      <trkpt lat="45.43531" lon="5.92215">
        <ele>1546.4770507812</ele>
        <time>2017-05-29T11:05:54Z</time>
      </trkpt>
      <trkpt lat="45.43533" lon="5.92227">
        <ele>1546.4770507812</ele>
        <time>2017-05-29T11:06:01Z</time>
      </trkpt>
      <trkpt lat="45.43535" lon="5.92239">
        <ele>1545.4770507812</ele>
        <time>2017-05-29T11:06:06Z</time>
      </trkpt>
      <trkpt lat="45.43541" lon="5.92258">
        <ele>1547.4770507812</ele>
        <time>2017-05-29T11:06:15Z</time>
      </trkpt>
      <trkpt lat="45.43548" lon="5.92261">
        <ele>1541.4770507812</ele>
        <time>2017-05-29T11:06:34Z</time>
      </trkpt>
      <trkpt lat="45.43555" lon="5.92253">
        <ele>1543.4770507812</ele>
        <time>2017-05-29T11:06:41Z</time>
      </trkpt>
      <trkpt lat="45.43562" lon="5.92247">
        <ele>1536.4770507812</ele>
        <time>2017-05-29T11:06:51Z</time>
      </trkpt>
      <trkpt lat="45.43566" lon="5.92238">
        <ele>1535.4770507812</ele>
        <time>2017-05-29T11:06:57Z</time>
      </trkpt>
      <trkpt lat="45.43579" lon="5.92224">
        <ele>1540.4770507812</ele>
        <time>2017-05-29T11:07:07Z</time>
      </trkpt>
      <trkpt lat="45.43583" lon="5.92214">
        <ele>1540.4770507812</ele>
        <time>2017-05-29T11:07:18Z</time>
      </trkpt>
      <trkpt lat="45.43589" lon="5.92209">
        <ele>1541.4770507812</ele>
        <time>2017-05-29T11:07:23Z</time>
      </trkpt>
      <trkpt lat="45.43598" lon="5.92204">
        <ele>1540.4770507812</ele>
        <time>2017-05-29T11:07:34Z</time>
      </trkpt>
      <trkpt lat="45.43605" lon="5.92198">
        <ele>1539.4770507812</ele>
        <time>2017-05-29T11:07:42Z</time>
      </trkpt>
      <trkpt lat="45.43618" lon="5.92188">
        <ele>1538.4770507812</ele>
        <time>2017-05-29T11:07:48Z</time>
      </trkpt>
      <trkpt lat="45.43626" lon="5.92186">
        <ele>1540.4770507812</ele>
        <time>2017-05-29T11:07:51Z</time>
      </trkpt>
      <trkpt lat="45.43633" lon="5.92184">
        <ele>1541.4770507812</ele>
        <time>2017-05-29T11:08:28Z</time>
      </trkpt>
      <trkpt lat="45.4364" lon="5.92186">
        <ele>1539.4770507812</ele>
        <time>2017-05-29T11:08:35Z</time>
      </trkpt>
      <trkpt lat="45.43647" lon="5.92191">
        <ele>1535.4770507812</ele>
        <time>2017-05-29T11:08:43Z</time>
      </trkpt>
      <trkpt lat="45.43658" lon="5.92209">
        <ele>1535.4770507812</ele>
        <time>2017-05-29T11:08:50Z</time>
      </trkpt>
      <trkpt lat="45.43666" lon="5.92217">
        <ele>1539.4770507812</ele>
        <time>2017-05-29T11:08:57Z</time>
      </trkpt>
      <trkpt lat="45.43672" lon="5.92225">
        <ele>1541.4770507812</ele>
        <time>2017-05-29T11:09:05Z</time>
      </trkpt>
      <trkpt lat="45.43679" lon="5.92227">
        <ele>1536.4770507812</ele>
        <time>2017-05-29T11:09:12Z</time>
      </trkpt>
      <trkpt lat="45.43686" lon="5.92231">
        <ele>1533.4770507812</ele>
        <time>2017-05-29T11:09:19Z</time>
      </trkpt>
      <trkpt lat="45.43694" lon="5.92233">
        <ele>1532.4770507812</ele>
        <time>2017-05-29T11:09:24Z</time>
      </trkpt>
      <trkpt lat="45.43701" lon="5.9224">
        <ele>1531.4770507812</ele>
        <time>2017-05-29T11:09:28Z</time>
      </trkpt>
      <trkpt lat="45.43712" lon="5.92241">
        <ele>1533.4770507812</ele>
        <time>2017-05-29T11:09:34Z</time>
      </trkpt>
      <trkpt lat="45.43719" lon="5.9224">
        <ele>1533.4770507812</ele>
        <time>2017-05-29T11:09:37Z</time>
      </trkpt>
      <trkpt lat="45.43734" lon="5.92233">
        <ele>1542.4780273438</ele>
        <time>2017-05-29T11:09:46Z</time>
      </trkpt>
      <trkpt lat="45.4375" lon="5.92228">
        <ele>1539.4780273438</ele>
        <time>2017-05-29T11:09:57Z</time>
      </trkpt>
      <trkpt lat="45.43757" lon="5.92224">
        <ele>1531.4780273438</ele>
        <time>2017-05-29T11:10:03Z</time>
      </trkpt>
      <trkpt lat="45.4376" lon="5.92213">
        <ele>1531.4780273438</ele>
        <time>2017-05-29T11:10:10Z</time>
      </trkpt>
      <trkpt lat="45.43765" lon="5.92204">
        <ele>1527.4780273438</ele>
        <time>2017-05-29T11:10:18Z</time>
      </trkpt>
      <trkpt lat="45.43771" lon="5.92197">
        <ele>1526.4780273438</ele>
        <time>2017-05-29T11:10:27Z</time>
      </trkpt>
      <trkpt lat="45.43768" lon="5.92177">
        <ele>1528.4780273438</ele>
        <time>2017-05-29T11:10:38Z</time>
      </trkpt>
      <trkpt lat="45.43769" lon="5.92166">
        <ele>1531.4780273438</ele>
        <time>2017-05-29T11:10:49Z</time>
      </trkpt>
      <trkpt lat="45.43771" lon="5.92155">
        <ele>1530.4770507812</ele>
        <time>2017-05-29T11:10:54Z</time>
      </trkpt>
      <trkpt lat="45.43777" lon="5.92147">
        <ele>1529.4770507812</ele>
        <time>2017-05-29T11:11:01Z</time>
      </trkpt>
      <trkpt lat="45.43786" lon="5.92144">
        <ele>1528.4780273438</ele>
        <time>2017-05-29T11:11:06Z</time>
      </trkpt>
      <trkpt lat="45.43794" lon="5.92144">
        <ele>1529.4780273438</ele>
        <time>2017-05-29T11:11:14Z</time>
      </trkpt>
      <trkpt lat="45.43804" lon="5.92142">
        <ele>1529.4780273438</ele>
        <time>2017-05-29T11:11:19Z</time>
      </trkpt>
      <trkpt lat="45.43819" lon="5.92152">
        <ele>1529.4780273438</ele>
        <time>2017-05-29T11:11:28Z</time>
      </trkpt>
      <trkpt lat="45.43826" lon="5.92157">
        <ele>1527.4780273438</ele>
        <time>2017-05-29T11:11:35Z</time>
      </trkpt>
      <trkpt lat="45.43832" lon="5.92162">
        <ele>1522.4780273438</ele>
        <time>2017-05-29T11:11:44Z</time>
      </trkpt>
      <trkpt lat="45.43839" lon="5.92169">
        <ele>1518.4780273438</ele>
        <time>2017-05-29T11:11:52Z</time>
      </trkpt>
      <trkpt lat="45.43846" lon="5.92175">
        <ele>1517.4780273438</ele>
        <time>2017-05-29T11:11:59Z</time>
      </trkpt>
      <trkpt lat="45.43853" lon="5.92179">
        <ele>1516.4780273438</ele>
        <time>2017-05-29T11:12:05Z</time>
      </trkpt>
      <trkpt lat="45.43861" lon="5.92183">
        <ele>1517.4780273438</ele>
        <time>2017-05-29T11:12:11Z</time>
      </trkpt>
      <trkpt lat="45.43873" lon="5.92182">
        <ele>1511.4780273438</ele>
        <time>2017-05-29T11:12:20Z</time>
      </trkpt>
      <trkpt lat="45.43883" lon="5.92194">
        <ele>1511.4780273438</ele>
        <time>2017-05-29T11:12:40Z</time>
      </trkpt>
      <trkpt lat="45.43887" lon="5.92204">
        <ele>1508.4780273438</ele>
        <time>2017-05-29T11:12:49Z</time>
      </trkpt>
      <trkpt lat="45.43891" lon="5.92216">
        <ele>1508.4780273438</ele>
        <time>2017-05-29T11:12:57Z</time>
      </trkpt>
      <trkpt lat="45.43898" lon="5.92221">
        <ele>1506.4780273438</ele>
        <time>2017-05-29T11:13:02Z</time>
      </trkpt>
      <trkpt lat="45.43906" lon="5.92226">
        <ele>1502.4780273438</ele>
        <time>2017-05-29T11:13:20Z</time>
      </trkpt>
      <trkpt lat="45.43914" lon="5.92226">
        <ele>1500.4780273438</ele>
        <time>2017-05-29T11:13:28Z</time>
      </trkpt>
      <trkpt lat="45.43923" lon="5.9223">
        <ele>1495.4780273438</ele>
        <time>2017-05-29T11:13:39Z</time>
      </trkpt>
      <trkpt lat="45.43936" lon="5.92223">
        <ele>1495.4780273438</ele>
        <time>2017-05-29T11:13:45Z</time>
      </trkpt>
      <trkpt lat="45.43947" lon="5.92209">
        <ele>1497.4780273438</ele>
        <time>2017-05-29T11:13:51Z</time>
      </trkpt>
      <trkpt lat="45.43952" lon="5.92201">
        <ele>1495.4780273438</ele>
        <time>2017-05-29T11:13:56Z</time>
      </trkpt>
      <trkpt lat="45.43965" lon="5.92186">
        <ele>1491.4780273438</ele>
        <time>2017-05-29T11:14:04Z</time>
      </trkpt>
      <trkpt lat="45.43971" lon="5.92178">
        <ele>1492.4780273438</ele>
        <time>2017-05-29T11:14:08Z</time>
      </trkpt>
      <trkpt lat="45.43983" lon="5.92167">
        <ele>1492.4780273438</ele>
        <time>2017-05-29T11:14:15Z</time>
      </trkpt>
      <trkpt lat="45.43992" lon="5.92166">
        <ele>1490.4780273438</ele>
        <time>2017-05-29T11:14:20Z</time>
      </trkpt>
      <trkpt lat="45.44006" lon="5.92174">
        <ele>1491.4780273438</ele>
        <time>2017-05-29T11:14:27Z</time>
      </trkpt>
      <trkpt lat="45.44014" lon="5.92179">
        <ele>1492.4780273438</ele>
        <time>2017-05-29T11:14:33Z</time>
      </trkpt>
      <trkpt lat="45.44021" lon="5.92182">
        <ele>1489.4780273438</ele>
        <time>2017-05-29T11:14:41Z</time>
      </trkpt>
      <trkpt lat="45.4403" lon="5.9219">
        <ele>1494.4780273438</ele>
        <time>2017-05-29T11:14:51Z</time>
      </trkpt>
      <trkpt lat="45.44037" lon="5.92195">
        <ele>1494.4780273438</ele>
        <time>2017-05-29T11:14:57Z</time>
      </trkpt>
      <trkpt lat="45.4405" lon="5.92207">
        <ele>1495.4780273438</ele>
        <time>2017-05-29T11:15:09Z</time>
      </trkpt>
      <trkpt lat="45.44055" lon="5.92215">
        <ele>1496.4780273438</ele>
        <time>2017-05-29T11:15:15Z</time>
      </trkpt>
      <trkpt lat="45.44061" lon="5.92224">
        <ele>1495.4780273438</ele>
        <time>2017-05-29T11:15:22Z</time>
      </trkpt>
      <trkpt lat="45.44065" lon="5.92232">
        <ele>1495.4780273438</ele>
        <time>2017-05-29T11:15:30Z</time>
      </trkpt>
      <trkpt lat="45.44071" lon="5.92241">
        <ele>1499.4780273438</ele>
        <time>2017-05-29T11:15:38Z</time>
      </trkpt>
      <trkpt lat="45.44076" lon="5.92249">
        <ele>1503.4780273438</ele>
        <time>2017-05-29T11:15:43Z</time>
      </trkpt>
      <trkpt lat="45.44081" lon="5.92259">
        <ele>1503.4780273438</ele>
        <time>2017-05-29T11:15:53Z</time>
      </trkpt>
      <trkpt lat="45.44078" lon="5.92248">
        <ele>1504.4780273438</ele>
        <time>2017-05-29T11:19:00Z</time>
      </trkpt>
      <trkpt lat="45.4408" lon="5.92238">
        <ele>1505.4780273438</ele>
        <time>2017-05-29T11:19:08Z</time>
      </trkpt>
      <trkpt lat="45.4408" lon="5.92227">
        <ele>1505.4780273438</ele>
        <time>2017-05-29T11:19:17Z</time>
      </trkpt>
      <trkpt lat="45.44074" lon="5.92206">
        <ele>1506.4780273438</ele>
        <time>2017-05-29T11:19:30Z</time>
      </trkpt>
      <trkpt lat="45.44073" lon="5.92196">
        <ele>1510.4780273438</ele>
        <time>2017-05-29T11:19:36Z</time>
      </trkpt>
      <trkpt lat="45.44069" lon="5.92186">
        <ele>1510.4780273438</ele>
        <time>2017-05-29T11:19:44Z</time>
      </trkpt>
      <trkpt lat="45.44067" lon="5.92176">
        <ele>1507.4780273438</ele>
        <time>2017-05-29T11:19:52Z</time>
      </trkpt>
      <trkpt lat="45.4407" lon="5.92165">
        <ele>1512.4780273438</ele>
        <time>2017-05-29T11:20:04Z</time>
      </trkpt>
      <trkpt lat="45.44067" lon="5.92144">
        <ele>1510.4780273438</ele>
        <time>2017-05-29T11:20:14Z</time>
      </trkpt>
      <trkpt lat="45.44069" lon="5.92132">
        <ele>1512.4780273438</ele>
        <time>2017-05-29T11:20:22Z</time>
      </trkpt>
      <trkpt lat="45.44073" lon="5.92123">
        <ele>1513.4780273438</ele>
        <time>2017-05-29T11:20:28Z</time>
      </trkpt>
      <trkpt lat="45.44076" lon="5.92113">
        <ele>1513.4780273438</ele>
        <time>2017-05-29T11:20:36Z</time>
      </trkpt>
      <trkpt lat="45.44077" lon="5.92102">
        <ele>1514.4780273438</ele>
        <time>2017-05-29T11:20:44Z</time>
      </trkpt>
      <trkpt lat="45.44081" lon="5.92093">
        <ele>1515.4780273438</ele>
        <time>2017-05-29T11:20:50Z</time>
      </trkpt>
      <trkpt lat="45.44091" lon="5.92076">
        <ele>1518.4780273438</ele>
        <time>2017-05-29T11:20:58Z</time>
      </trkpt>
      <trkpt lat="45.44098" lon="5.92066">
        <ele>1521.4780273438</ele>
        <time>2017-05-29T11:21:02Z</time>
      </trkpt>
      <trkpt lat="45.44109" lon="5.92049">
        <ele>1524.4780273438</ele>
        <time>2017-05-29T11:21:11Z</time>
      </trkpt>
      <trkpt lat="45.44114" lon="5.92039">
        <ele>1522.4780273438</ele>
        <time>2017-05-29T11:21:16Z</time>
      </trkpt>
      <trkpt lat="45.44123" lon="5.92023">
        <ele>1524.4780273438</ele>
        <time>2017-05-29T11:21:24Z</time>
      </trkpt>
      <trkpt lat="45.44131" lon="5.92006">
        <ele>1523.4780273438</ele>
        <time>2017-05-29T11:21:35Z</time>
      </trkpt>
      <trkpt lat="45.44133" lon="5.91996">
        <ele>1523.4780273438</ele>
        <time>2017-05-29T11:21:40Z</time>
      </trkpt>
      <trkpt lat="45.44138" lon="5.91987">
        <ele>1523.4780273438</ele>
        <time>2017-05-29T11:21:48Z</time>
      </trkpt>
      <trkpt lat="45.44143" lon="5.91979">
        <ele>1523.4780273438</ele>
        <time>2017-05-29T11:21:55Z</time>
      </trkpt>
      <trkpt lat="45.44146" lon="5.91968">
        <ele>1522.4780273438</ele>
        <time>2017-05-29T11:22:03Z</time>
      </trkpt>
      <trkpt lat="45.44157" lon="5.9195">
        <ele>1527.4780273438</ele>
        <time>2017-05-29T11:22:13Z</time>
      </trkpt>
      <trkpt lat="45.44161" lon="5.91935">
        <ele>1529.4780273438</ele>
        <time>2017-05-29T11:22:22Z</time>
      </trkpt>
      <trkpt lat="45.44167" lon="5.91923">
        <ele>1527.4780273438</ele>
        <time>2017-05-29T11:22:28Z</time>
      </trkpt>
      <trkpt lat="45.44176" lon="5.91904">
        <ele>1528.4780273438</ele>
        <time>2017-05-29T11:22:37Z</time>
      </trkpt>
      <trkpt lat="45.44177" lon="5.91893">
        <ele>1526.4780273438</ele>
        <time>2017-05-29T11:22:42Z</time>
      </trkpt>
      <trkpt lat="45.44183" lon="5.91885">
        <ele>1528.4780273438</ele>
        <time>2017-05-29T11:22:47Z</time>
      </trkpt>
      <trkpt lat="45.44177" lon="5.91882">
        <ele>1528.4780273438</ele>
        <time>2017-05-29T11:22:58Z</time>
      </trkpt>
      <trkpt lat="45.44184" lon="5.91875">
        <ele>1529.4780273438</ele>
        <time>2017-05-29T11:23:30Z</time>
      </trkpt>
      <trkpt lat="45.44191" lon="5.91868">
        <ele>1528.4780273438</ele>
        <time>2017-05-29T11:23:39Z</time>
      </trkpt>
      <trkpt lat="45.44198" lon="5.91866">
        <ele>1524.4780273438</ele>
        <time>2017-05-29T11:23:55Z</time>
      </trkpt>
      <trkpt lat="45.442" lon="5.91856">
        <ele>1524.4780273438</ele>
        <time>2017-05-29T11:24:22Z</time>
      </trkpt>
      <trkpt lat="45.44204" lon="5.91847">
        <ele>1522.4780273438</ele>
        <time>2017-05-29T11:24:29Z</time>
      </trkpt>
      <trkpt lat="45.44211" lon="5.91843">
        <ele>1521.4780273438</ele>
        <time>2017-05-29T11:24:39Z</time>
      </trkpt>
      <trkpt lat="45.44218" lon="5.91841">
        <ele>1518.4780273438</ele>
        <time>2017-05-29T11:24:47Z</time>
      </trkpt>
      <trkpt lat="45.44226" lon="5.91841">
        <ele>1514.4780273438</ele>
        <time>2017-05-29T11:25:01Z</time>
      </trkpt>
      <trkpt lat="45.44233" lon="5.91843">
        <ele>1513.4780273438</ele>
        <time>2017-05-29T11:25:11Z</time>
      </trkpt>
      <trkpt lat="45.44231" lon="5.91829">
        <ele>1505.4780273438</ele>
        <time>2017-05-29T11:25:27Z</time>
      </trkpt>
      <trkpt lat="45.44228" lon="5.91819">
        <ele>1501.4780273438</ele>
        <time>2017-05-29T11:25:37Z</time>
      </trkpt>
      <trkpt lat="45.44225" lon="5.91809">
        <ele>1499.4780273438</ele>
        <time>2017-05-29T11:25:44Z</time>
      </trkpt>
      <trkpt lat="45.44232" lon="5.91808">
        <ele>1502.4780273438</ele>
        <time>2017-05-29T11:26:10Z</time>
      </trkpt>
      <trkpt lat="45.44239" lon="5.91802">
        <ele>1499.4780273438</ele>
        <time>2017-05-29T11:26:15Z</time>
      </trkpt>
      <trkpt lat="45.44234" lon="5.91792">
        <ele>1493.4780273438</ele>
        <time>2017-05-29T11:26:24Z</time>
      </trkpt>
      <trkpt lat="45.44233" lon="5.91782">
        <ele>1488.4780273438</ele>
        <time>2017-05-29T11:26:32Z</time>
      </trkpt>
      <trkpt lat="45.44239" lon="5.91776">
        <ele>1487.4780273438</ele>
        <time>2017-05-29T11:26:41Z</time>
      </trkpt>
      <trkpt lat="45.44245" lon="5.91785">
        <ele>1489.4780273438</ele>
        <time>2017-05-29T11:26:59Z</time>
      </trkpt>
      <trkpt lat="45.44251" lon="5.9179">
        <ele>1488.4780273438</ele>
        <time>2017-05-29T11:27:12Z</time>
      </trkpt>
      <trkpt lat="45.4426" lon="5.91803">
        <ele>1489.4780273438</ele>
        <time>2017-05-29T11:27:24Z</time>
      </trkpt>
      <trkpt lat="45.44269" lon="5.9181">
        <ele>1486.4780273438</ele>
        <time>2017-05-29T11:27:57Z</time>
      </trkpt>
      <trkpt lat="45.44279" lon="5.91825">
        <ele>1484.4780273438</ele>
        <time>2017-05-29T11:28:05Z</time>
      </trkpt>
      <trkpt lat="45.44284" lon="5.91833">
        <ele>1480.4780273438</ele>
        <time>2017-05-29T11:28:10Z</time>
      </trkpt>
      <trkpt lat="45.44292" lon="5.91839">
        <ele>1479.4780273438</ele>
        <time>2017-05-29T11:28:16Z</time>
      </trkpt>
      <trkpt lat="45.44295" lon="5.91849">
        <ele>1475.4780273438</ele>
        <time>2017-05-29T11:28:23Z</time>
      </trkpt>
      <trkpt lat="45.44297" lon="5.91859">
        <ele>1472.4780273438</ele>
        <time>2017-05-29T11:28:29Z</time>
      </trkpt>
      <trkpt lat="45.44304" lon="5.91859">
        <ele>1473.4780273438</ele>
        <time>2017-05-29T11:28:39Z</time>
      </trkpt>
      <trkpt lat="45.44305" lon="5.91848">
        <ele>1463.4780273438</ele>
        <time>2017-05-29T11:28:55Z</time>
      </trkpt>
      <trkpt lat="45.44313" lon="5.91841">
        <ele>1462.4780273438</ele>
        <time>2017-05-29T11:29:03Z</time>
      </trkpt>
      <trkpt lat="45.44319" lon="5.91833">
        <ele>1454.4780273438</ele>
        <time>2017-05-29T11:29:20Z</time>
      </trkpt>
      <trkpt lat="45.44324" lon="5.91826">
        <ele>1448.4780273438</ele>
        <time>2017-05-29T11:29:31Z</time>
      </trkpt>
      <trkpt lat="45.44327" lon="5.91816">
        <ele>1444.4780273438</ele>
        <time>2017-05-29T11:29:38Z</time>
      </trkpt>
      <trkpt lat="45.44334" lon="5.91808">
        <ele>1435.4780273438</ele>
        <time>2017-05-29T11:30:06Z</time>
      </trkpt>
      <trkpt lat="45.44344" lon="5.9179">
        <ele>1427.4780273438</ele>
        <time>2017-05-29T11:30:13Z</time>
      </trkpt>
      <trkpt lat="45.4434" lon="5.91778">
        <ele>1422.4780273438</ele>
        <time>2017-05-29T11:30:34Z</time>
      </trkpt>
      <trkpt lat="45.4434" lon="5.91768">
        <ele>1419.4780273438</ele>
        <time>2017-05-29T11:30:40Z</time>
      </trkpt>
      <trkpt lat="45.44344" lon="5.91742">
        <ele>1414.4780273438</ele>
        <time>2017-05-29T11:31:13Z</time>
      </trkpt>
      <trkpt lat="45.44345" lon="5.9173">
        <ele>1415.4780273438</ele>
        <time>2017-05-29T11:31:32Z</time>
      </trkpt>
      <trkpt lat="45.44339" lon="5.91722">
        <ele>1408.4780273438</ele>
        <time>2017-05-29T11:31:47Z</time>
      </trkpt>
      <trkpt lat="45.44332" lon="5.91718">
        <ele>1403.4780273438</ele>
        <time>2017-05-29T11:31:57Z</time>
      </trkpt>
      <trkpt lat="45.44337" lon="5.91709">
        <ele>1393.4780273438</ele>
        <time>2017-05-29T11:32:17Z</time>
      </trkpt>
      <trkpt lat="45.44338" lon="5.91699">
        <ele>1388.4780273438</ele>
        <time>2017-05-29T11:32:26Z</time>
      </trkpt>
      <trkpt lat="45.44332" lon="5.91694">
        <ele>1385.4780273438</ele>
        <time>2017-05-29T11:32:34Z</time>
      </trkpt>
      <trkpt lat="45.44324" lon="5.91688">
        <ele>1383.4780273438</ele>
        <time>2017-05-29T11:32:43Z</time>
      </trkpt>
      <trkpt lat="45.44317" lon="5.91683">
        <ele>1381.4780273438</ele>
        <time>2017-05-29T11:32:49Z</time>
      </trkpt>
      <trkpt lat="45.44314" lon="5.91672">
        <ele>1371.4780273438</ele>
        <time>2017-05-29T11:33:33Z</time>
      </trkpt>
      <trkpt lat="45.44308" lon="5.91665">
        <ele>1366.4780273438</ele>
        <time>2017-05-29T11:33:43Z</time>
      </trkpt>
      <trkpt lat="45.44309" lon="5.91654">
        <ele>1363.4780273438</ele>
        <time>2017-05-29T11:33:51Z</time>
      </trkpt>
      <trkpt lat="45.44315" lon="5.91648">
        <ele>1363.4780273438</ele>
        <time>2017-05-29T11:33:58Z</time>
      </trkpt>
      <trkpt lat="45.44314" lon="5.91637">
        <ele>1364.4780273438</ele>
        <time>2017-05-29T11:34:05Z</time>
      </trkpt>
      <trkpt lat="45.44307" lon="5.91633">
        <ele>1358.4780273438</ele>
        <time>2017-05-29T11:34:14Z</time>
      </trkpt>
      <trkpt lat="45.44299" lon="5.9163">
        <ele>1356.4780273438</ele>
        <time>2017-05-29T11:34:20Z</time>
      </trkpt>
      <trkpt lat="45.44292" lon="5.91622">
        <ele>1345.4780273438</ele>
        <time>2017-05-29T11:34:37Z</time>
      </trkpt>
      <trkpt lat="45.44285" lon="5.91619">
        <ele>1342.4780273438</ele>
        <time>2017-05-29T11:34:42Z</time>
      </trkpt>
      <trkpt lat="45.44281" lon="5.91628">
        <ele>1339.4780273438</ele>
        <time>2017-05-29T11:34:51Z</time>
      </trkpt>
      <trkpt lat="45.44273" lon="5.91627">
        <ele>1339.4780273438</ele>
        <time>2017-05-29T11:34:57Z</time>
      </trkpt>
      <trkpt lat="45.44266" lon="5.91631">
        <ele>1335.4780273438</ele>
        <time>2017-05-29T11:35:11Z</time>
      </trkpt>
      <trkpt lat="45.44264" lon="5.9162">
        <ele>1336.4780273438</ele>
        <time>2017-05-29T11:36:03Z</time>
      </trkpt>
      <trkpt lat="45.44256" lon="5.91617">
        <ele>1333.4780273438</ele>
        <time>2017-05-29T11:36:09Z</time>
      </trkpt>
      <trkpt lat="45.44251" lon="5.9161">
        <ele>1330.4780273438</ele>
        <time>2017-05-29T11:36:17Z</time>
      </trkpt>
      <trkpt lat="45.44254" lon="5.91601">
        <ele>1326.4780273438</ele>
        <time>2017-05-29T11:36:27Z</time>
      </trkpt>
      <trkpt lat="45.44257" lon="5.91591">
        <ele>1319.4780273438</ele>
        <time>2017-05-29T11:36:41Z</time>
      </trkpt>
      <trkpt lat="45.44271" lon="5.91581">
        <ele>1314.4780273438</ele>
        <time>2017-05-29T11:36:49Z</time>
      </trkpt>
      <trkpt lat="45.44276" lon="5.91572">
        <ele>1311.4780273438</ele>
        <time>2017-05-29T11:36:55Z</time>
      </trkpt>
      <trkpt lat="45.44282" lon="5.91565">
        <ele>1311.4780273438</ele>
        <time>2017-05-29T11:37:00Z</time>
      </trkpt>
      <trkpt lat="45.44292" lon="5.91548">
        <ele>1307.4780273438</ele>
        <time>2017-05-29T11:37:08Z</time>
      </trkpt>
      <trkpt lat="45.44295" lon="5.91538">
        <ele>1307.4780273438</ele>
        <time>2017-05-29T11:37:15Z</time>
      </trkpt>
      <trkpt lat="45.44298" lon="5.91528">
        <ele>1304.4780273438</ele>
        <time>2017-05-29T11:37:20Z</time>
      </trkpt>
      <trkpt lat="45.44301" lon="5.91517">
        <ele>1303.4780273438</ele>
        <time>2017-05-29T11:37:25Z</time>
      </trkpt>
      <trkpt lat="45.44305" lon="5.91508">
        <ele>1303.4780273438</ele>
        <time>2017-05-29T11:37:31Z</time>
      </trkpt>
      <trkpt lat="45.44313" lon="5.91503">
        <ele>1297.4780273438</ele>
        <time>2017-05-29T11:37:37Z</time>
      </trkpt>
      <trkpt lat="45.44319" lon="5.91494">
        <ele>1293.4780273438</ele>
        <time>2017-05-29T11:37:42Z</time>
      </trkpt>
      <trkpt lat="45.44325" lon="5.91486">
        <ele>1290.4780273438</ele>
        <time>2017-05-29T11:37:50Z</time>
      </trkpt>
      <trkpt lat="45.44329" lon="5.91473">
        <ele>1286.4780273438</ele>
        <time>2017-05-29T11:37:56Z</time>
      </trkpt>
      <trkpt lat="45.44337" lon="5.91454">
        <ele>1285.4780273438</ele>
        <time>2017-05-29T11:38:06Z</time>
      </trkpt>
      <trkpt lat="45.44332" lon="5.91435">
        <ele>1274.4780273438</ele>
        <time>2017-05-29T11:38:17Z</time>
      </trkpt>
      <trkpt lat="45.44328" lon="5.91423">
        <ele>1272.4780273438</ele>
        <time>2017-05-29T11:38:24Z</time>
      </trkpt>
      <trkpt lat="45.44327" lon="5.91413">
        <ele>1271.4780273438</ele>
        <time>2017-05-29T11:38:28Z</time>
      </trkpt>
      <trkpt lat="45.44326" lon="5.91402">
        <ele>1268.4780273438</ele>
        <time>2017-05-29T11:38:35Z</time>
      </trkpt>
      <trkpt lat="45.4433" lon="5.91392">
        <ele>1268.4780273438</ele>
        <time>2017-05-29T11:38:41Z</time>
      </trkpt>
      <trkpt lat="45.44336" lon="5.91385">
        <ele>1264.4780273438</ele>
        <time>2017-05-29T11:38:48Z</time>
      </trkpt>
      <trkpt lat="45.44339" lon="5.91374">
        <ele>1263.4780273438</ele>
        <time>2017-05-29T11:38:54Z</time>
      </trkpt>
      <trkpt lat="45.44344" lon="5.91365">
        <ele>1261.4780273438</ele>
        <time>2017-05-29T11:38:59Z</time>
      </trkpt>
      <trkpt lat="45.44347" lon="5.91356">
        <ele>1258.4780273438</ele>
        <time>2017-05-29T11:39:05Z</time>
      </trkpt>
      <trkpt lat="45.44353" lon="5.91349">
        <ele>1257.4780273438</ele>
        <time>2017-05-29T11:39:12Z</time>
      </trkpt>
      <trkpt lat="45.4436" lon="5.9134">
        <ele>1249.4780273438</ele>
        <time>2017-05-29T11:39:23Z</time>
      </trkpt>
      <trkpt lat="45.44368" lon="5.91332">
        <ele>1243.4780273438</ele>
        <time>2017-05-29T11:39:28Z</time>
      </trkpt>
      <trkpt lat="45.44375" lon="5.91329">
        <ele>1241.4780273438</ele>
        <time>2017-05-29T11:39:33Z</time>
      </trkpt>
      <trkpt lat="45.44381" lon="5.9132">
        <ele>1239.4780273438</ele>
        <time>2017-05-29T11:39:37Z</time>
      </trkpt>
      <trkpt lat="45.44382" lon="5.91308">
        <ele>1236.4780273438</ele>
        <time>2017-05-29T11:39:44Z</time>
      </trkpt>
      <trkpt lat="45.44385" lon="5.91298">
        <ele>1235.4780273438</ele>
        <time>2017-05-29T11:39:49Z</time>
      </trkpt>
      <trkpt lat="45.44392" lon="5.91292">
        <ele>1235.4780273438</ele>
        <time>2017-05-29T11:39:54Z</time>
      </trkpt>
      <trkpt lat="45.44381" lon="5.91276">
        <ele>1231.4780273438</ele>
        <time>2017-05-29T11:40:03Z</time>
      </trkpt>
      <trkpt lat="45.44374" lon="5.91272">
        <ele>1230.4780273438</ele>
        <time>2017-05-29T11:40:08Z</time>
      </trkpt>
      <trkpt lat="45.44356" lon="5.9127">
        <ele>1227.4780273438</ele>
        <time>2017-05-29T11:40:16Z</time>
      </trkpt>
      <trkpt lat="45.4434" lon="5.91264">
        <ele>1220.4780273438</ele>
        <time>2017-05-29T11:40:25Z</time>
      </trkpt>
      <trkpt lat="45.44332" lon="5.91266">
        <ele>1220.4780273438</ele>
        <time>2017-05-29T11:40:30Z</time>
      </trkpt>
      <trkpt lat="45.44317" lon="5.91271">
        <ele>1218.4770507812</ele>
        <time>2017-05-29T11:40:37Z</time>
      </trkpt>
      <trkpt lat="45.44308" lon="5.9127">
        <ele>1218.4770507812</ele>
        <time>2017-05-29T11:40:42Z</time>
      </trkpt>
      <trkpt lat="45.44301" lon="5.91268">
        <ele>1218.4770507812</ele>
        <time>2017-05-29T11:40:46Z</time>
      </trkpt>
      <trkpt lat="45.44286" lon="5.91263">
        <ele>1216.4770507812</ele>
        <time>2017-05-29T11:40:54Z</time>
      </trkpt>
      <trkpt lat="45.44267" lon="5.91265">
        <ele>1219.4770507812</ele>
        <time>2017-05-29T11:41:03Z</time>
      </trkpt>
      <trkpt lat="45.44252" lon="5.91269">
        <ele>1216.4770507812</ele>
        <time>2017-05-29T11:41:11Z</time>
      </trkpt>
      <trkpt lat="45.44244" lon="5.91269">
        <ele>1215.4770507812</ele>
        <time>2017-05-29T11:41:16Z</time>
      </trkpt>
      <trkpt lat="45.44236" lon="5.91271">
        <ele>1215.4770507812</ele>
        <time>2017-05-29T11:41:20Z</time>
      </trkpt>
      <trkpt lat="45.44221" lon="5.91279">
        <ele>1211.4770507812</ele>
        <time>2017-05-29T11:41:28Z</time>
      </trkpt>
      <trkpt lat="45.44214" lon="5.91284">
        <ele>1209.4770507812</ele>
        <time>2017-05-29T11:41:32Z</time>
      </trkpt>
      <trkpt lat="45.442" lon="5.91294">
        <ele>1207.4770507812</ele>
        <time>2017-05-29T11:41:40Z</time>
      </trkpt>
      <trkpt lat="45.44193" lon="5.91301">
        <ele>1204.4770507812</ele>
        <time>2017-05-29T11:41:44Z</time>
      </trkpt>
      <trkpt lat="45.44182" lon="5.91318">
        <ele>1206.4770507812</ele>
        <time>2017-05-29T11:41:51Z</time>
      </trkpt>
      <trkpt lat="45.44173" lon="5.91323">
        <ele>1204.4770507812</ele>
        <time>2017-05-29T11:41:56Z</time>
      </trkpt>
      <trkpt lat="45.44167" lon="5.91328">
        <ele>1204.4770507812</ele>
        <time>2017-05-29T11:42:02Z</time>
      </trkpt>
      <trkpt lat="45.44158" lon="5.91331">
        <ele>1206.4770507812</ele>
        <time>2017-05-29T11:42:09Z</time>
      </trkpt>
      <trkpt lat="45.4415" lon="5.91332">
        <ele>1203.4770507812</ele>
        <time>2017-05-29T11:42:15Z</time>
      </trkpt>
      <trkpt lat="45.44142" lon="5.91329">
        <ele>1203.4770507812</ele>
        <time>2017-05-29T11:42:20Z</time>
      </trkpt>
      <trkpt lat="45.44135" lon="5.91331">
        <ele>1198.4770507812</ele>
        <time>2017-05-29T11:42:27Z</time>
      </trkpt>
      <trkpt lat="45.44128" lon="5.91328">
        <ele>1197.4770507812</ele>
        <time>2017-05-29T11:42:33Z</time>
      </trkpt>
      <trkpt lat="45.44119" lon="5.91327">
        <ele>1193.4770507812</ele>
        <time>2017-05-29T11:42:41Z</time>
      </trkpt>
      <trkpt lat="45.44112" lon="5.9133">
        <ele>1188.4770507812</ele>
        <time>2017-05-29T11:42:50Z</time>
      </trkpt>
      <trkpt lat="45.44103" lon="5.91335">
        <ele>1189.4770507812</ele>
        <time>2017-05-29T11:42:55Z</time>
      </trkpt>
      <trkpt lat="45.44095" lon="5.91336">
        <ele>1190.4770507812</ele>
        <time>2017-05-29T11:43:00Z</time>
      </trkpt>
      <trkpt lat="45.44087" lon="5.91338">
        <ele>1189.4770507812</ele>
        <time>2017-05-29T11:43:09Z</time>
      </trkpt>
      <trkpt lat="45.44084" lon="5.91329">
        <ele>1188.4770507812</ele>
        <time>2017-05-29T11:43:18Z</time>
      </trkpt>
      <trkpt lat="45.44085" lon="5.91318">
        <ele>1185.4770507812</ele>
        <time>2017-05-29T11:43:25Z</time>
      </trkpt>
      <trkpt lat="45.44086" lon="5.91305">
        <ele>1185.4770507812</ele>
        <time>2017-05-29T11:43:38Z</time>
      </trkpt>
      <trkpt lat="45.4408" lon="5.91299">
        <ele>1185.4770507812</ele>
        <time>2017-05-29T11:43:44Z</time>
      </trkpt>
      <trkpt lat="45.44073" lon="5.91292">
        <ele>1186.4770507812</ele>
        <time>2017-05-29T11:43:50Z</time>
      </trkpt>
      <trkpt lat="45.44057" lon="5.91283">
        <ele>1184.4770507812</ele>
        <time>2017-05-29T11:43:57Z</time>
      </trkpt>
      <trkpt lat="45.44049" lon="5.91284">
        <ele>1180.4770507812</ele>
        <time>2017-05-29T11:44:01Z</time>
      </trkpt>
      <trkpt lat="45.44034" lon="5.91278">
        <ele>1180.4770507812</ele>
        <time>2017-05-29T11:44:07Z</time>
      </trkpt>
      <trkpt lat="45.44027" lon="5.9127">
        <ele>1180.4770507812</ele>
        <time>2017-05-29T11:44:10Z</time>
      </trkpt>
      <trkpt lat="45.44023" lon="5.91261">
        <ele>1182.4770507812</ele>
        <time>2017-05-29T11:44:13Z</time>
      </trkpt>
      <trkpt lat="45.4402" lon="5.91251">
        <ele>1177.4770507812</ele>
        <time>2017-05-29T11:44:18Z</time>
      </trkpt>
      <trkpt lat="45.44014" lon="5.91243">
        <ele>1175.4770507812</ele>
        <time>2017-05-29T11:44:24Z</time>
      </trkpt>
      <trkpt lat="45.4401" lon="5.91235">
        <ele>1168.4770507812</ele>
        <time>2017-05-29T11:44:31Z</time>
      </trkpt>
      <trkpt lat="45.44003" lon="5.91226">
        <ele>1165.4770507812</ele>
        <time>2017-05-29T11:44:36Z</time>
      </trkpt>
      <trkpt lat="45.43991" lon="5.91211">
        <ele>1158.4770507812</ele>
        <time>2017-05-29T11:44:45Z</time>
      </trkpt>
      <trkpt lat="45.43989" lon="5.912">
        <ele>1157.4770507812</ele>
        <time>2017-05-29T11:44:51Z</time>
      </trkpt>
      <trkpt lat="45.43987" lon="5.91188">
        <ele>1154.4770507812</ele>
        <time>2017-05-29T11:44:56Z</time>
      </trkpt>
      <trkpt lat="45.43988" lon="5.91176">
        <ele>1153.4770507812</ele>
        <time>2017-05-29T11:45:02Z</time>
      </trkpt>
      <trkpt lat="45.43987" lon="5.91165">
        <ele>1152.4770507812</ele>
        <time>2017-05-29T11:45:08Z</time>
      </trkpt>
      <trkpt lat="45.43996" lon="5.91164">
        <ele>1154.4770507812</ele>
        <time>2017-05-29T11:45:14Z</time>
      </trkpt>
      <trkpt lat="45.44003" lon="5.91164">
        <ele>1153.4770507812</ele>
        <time>2017-05-29T11:45:20Z</time>
      </trkpt>
      <trkpt lat="45.44011" lon="5.91162">
        <ele>1152.4770507812</ele>
        <time>2017-05-29T11:45:30Z</time>
      </trkpt>
      <trkpt lat="45.44017" lon="5.91155">
        <ele>1152.4770507812</ele>
        <time>2017-05-29T11:45:42Z</time>
      </trkpt>
      <trkpt lat="45.44026" lon="5.91154">
        <ele>1156.4770507812</ele>
        <time>2017-05-29T11:45:44Z</time>
      </trkpt>
      <trkpt lat="45.44031" lon="5.91144">
        <ele>1161.4770507812</ele>
        <time>2017-05-29T11:45:50Z</time>
      </trkpt>
      <trkpt lat="45.44037" lon="5.91125">
        <ele>1162.4770507812</ele>
        <time>2017-05-29T11:46:00Z</time>
      </trkpt>
      <trkpt lat="45.44043" lon="5.91116">
        <ele>1161.4770507812</ele>
        <time>2017-05-29T11:46:05Z</time>
      </trkpt>
      <trkpt lat="45.44046" lon="5.91106">
        <ele>1160.4770507812</ele>
        <time>2017-05-29T11:46:14Z</time>
      </trkpt>
      <trkpt lat="45.44047" lon="5.91095">
        <ele>1159.4770507812</ele>
        <time>2017-05-29T11:46:20Z</time>
      </trkpt>
      <trkpt lat="45.44049" lon="5.91085">
        <ele>1154.4770507812</ele>
        <time>2017-05-29T11:46:26Z</time>
      </trkpt>
      <trkpt lat="45.44046" lon="5.91074">
        <ele>1149.4770507812</ele>
        <time>2017-05-29T11:46:32Z</time>
      </trkpt>
      <trkpt lat="45.44045" lon="5.91062">
        <ele>1151.4770507812</ele>
        <time>2017-05-29T11:46:37Z</time>
      </trkpt>
      <trkpt lat="45.44041" lon="5.91051">
        <ele>1152.4770507812</ele>
        <time>2017-05-29T11:46:44Z</time>
      </trkpt>
      <trkpt lat="45.4404" lon="5.9104">
        <ele>1152.4770507812</ele>
        <time>2017-05-29T11:46:49Z</time>
      </trkpt>
      <trkpt lat="45.44036" lon="5.91029">
        <ele>1152.4770507812</ele>
        <time>2017-05-29T11:46:55Z</time>
      </trkpt>
      <trkpt lat="45.44034" lon="5.91017">
        <ele>1148.4770507812</ele>
        <time>2017-05-29T11:47:03Z</time>
      </trkpt>
      <trkpt lat="45.44032" lon="5.91007">
        <ele>1148.4770507812</ele>
        <time>2017-05-29T11:47:08Z</time>
      </trkpt>
      <trkpt lat="45.44033" lon="5.90995">
        <ele>1148.4770507812</ele>
        <time>2017-05-29T11:47:15Z</time>
      </trkpt>
      <trkpt lat="45.44032" lon="5.90983">
        <ele>1148.4770507812</ele>
        <time>2017-05-29T11:47:21Z</time>
      </trkpt>
      <trkpt lat="45.44034" lon="5.90972">
        <ele>1148.4770507812</ele>
        <time>2017-05-29T11:47:26Z</time>
      </trkpt>
      <trkpt lat="45.44034" lon="5.90961">
        <ele>1146.4770507812</ele>
        <time>2017-05-29T11:47:33Z</time>
      </trkpt>
      <trkpt lat="45.44033" lon="5.9095">
        <ele>1143.4759521484</ele>
        <time>2017-05-29T11:47:40Z</time>
      </trkpt>
      <trkpt lat="45.44035" lon="5.9094">
        <ele>1153.4759521484</ele>
        <time>2017-05-29T11:48:32Z</time>
      </trkpt>
      <trkpt lat="45.44043" lon="5.90947">
        <ele>1157.4770507812</ele>
        <time>2017-05-29T11:48:47Z</time>
      </trkpt>
      <trkpt lat="45.44049" lon="5.90938">
        <ele>1154.4770507812</ele>
        <time>2017-05-29T11:49:01Z</time>
      </trkpt>
      <trkpt lat="45.44061" lon="5.90924">
        <ele>1152.4770507812</ele>
        <time>2017-05-29T11:49:08Z</time>
      </trkpt>
      <trkpt lat="45.44069" lon="5.90906">
        <ele>1153.4770507812</ele>
        <time>2017-05-29T11:49:16Z</time>
      </trkpt>
      <trkpt lat="45.44081" lon="5.9089">
        <ele>1147.4770507812</ele>
        <time>2017-05-29T11:49:25Z</time>
      </trkpt>
      <trkpt lat="45.44086" lon="5.9088">
        <ele>1148.4770507812</ele>
        <time>2017-05-29T11:49:31Z</time>
      </trkpt>
      <trkpt lat="45.44094" lon="5.90861">
        <ele>1148.4759521484</ele>
        <time>2017-05-29T11:49:41Z</time>
      </trkpt>
      <trkpt lat="45.44099" lon="5.90853">
        <ele>1149.4759521484</ele>
        <time>2017-05-29T11:49:47Z</time>
      </trkpt>
      <trkpt lat="45.44104" lon="5.90843">
        <ele>1148.4759521484</ele>
        <time>2017-05-29T11:49:54Z</time>
      </trkpt>
      <trkpt lat="45.44107" lon="5.90822">
        <ele>1143.4759521484</ele>
        <time>2017-05-29T11:50:06Z</time>
      </trkpt>
      <trkpt lat="45.44101" lon="5.90816">
        <ele>1140.4759521484</ele>
        <time>2017-05-29T11:50:14Z</time>
      </trkpt>
      <trkpt lat="45.44096" lon="5.90807">
        <ele>1133.4759521484</ele>
        <time>2017-05-29T11:50:19Z</time>
      </trkpt>
      <trkpt lat="45.4409" lon="5.90799">
        <ele>1130.4759521484</ele>
        <time>2017-05-29T11:50:24Z</time>
      </trkpt>
      <trkpt lat="45.44086" lon="5.9079">
        <ele>1129.4759521484</ele>
        <time>2017-05-29T11:50:28Z</time>
      </trkpt>
      <trkpt lat="45.44076" lon="5.90774">
        <ele>1124.4759521484</ele>
        <time>2017-05-29T11:50:37Z</time>
      </trkpt>
      <trkpt lat="45.44071" lon="5.90766">
        <ele>1124.4759521484</ele>
        <time>2017-05-29T11:50:47Z</time>
      </trkpt>
      <trkpt lat="45.44069" lon="5.90742">
        <ele>1133.4759521484</ele>
        <time>2017-05-29T11:50:58Z</time>
      </trkpt>
      <trkpt lat="45.44076" lon="5.90737">
        <ele>1134.4759521484</ele>
        <time>2017-05-29T11:51:04Z</time>
      </trkpt>
      <trkpt lat="45.44083" lon="5.90731">
        <ele>1134.4759521484</ele>
        <time>2017-05-29T11:51:10Z</time>
      </trkpt>
      <trkpt lat="45.44086" lon="5.9072">
        <ele>1132.4759521484</ele>
        <time>2017-05-29T11:51:15Z</time>
      </trkpt>
      <trkpt lat="45.44089" lon="5.90709">
        <ele>1130.4759521484</ele>
        <time>2017-05-29T11:51:22Z</time>
      </trkpt>
      <trkpt lat="45.4409" lon="5.90698">
        <ele>1131.4759521484</ele>
        <time>2017-05-29T11:51:28Z</time>
      </trkpt>
      <trkpt lat="45.4409" lon="5.90687">
        <ele>1131.4759521484</ele>
        <time>2017-05-29T11:51:39Z</time>
      </trkpt>
      <trkpt lat="45.44094" lon="5.90676">
        <ele>1125.4759521484</ele>
        <time>2017-05-29T11:51:45Z</time>
      </trkpt>
      <trkpt lat="45.44096" lon="5.90665">
        <ele>1123.4759521484</ele>
        <time>2017-05-29T11:51:51Z</time>
      </trkpt>
      <trkpt lat="45.44099" lon="5.90654">
        <ele>1122.4759521484</ele>
        <time>2017-05-29T11:51:56Z</time>
      </trkpt>
      <trkpt lat="45.44102" lon="5.90642">
        <ele>1126.4759521484</ele>
        <time>2017-05-29T11:52:04Z</time>
      </trkpt>
      <trkpt lat="45.44104" lon="5.9063">
        <ele>1131.4759521484</ele>
        <time>2017-05-29T11:52:09Z</time>
      </trkpt>
      <trkpt lat="45.44112" lon="5.90623">
        <ele>1131.4759521484</ele>
        <time>2017-05-29T11:52:13Z</time>
      </trkpt>
      <trkpt lat="45.44114" lon="5.90613">
        <ele>1132.4759521484</ele>
        <time>2017-05-29T11:52:19Z</time>
      </trkpt>
      <trkpt lat="45.4412" lon="5.90603">
        <ele>1127.4759521484</ele>
        <time>2017-05-29T11:52:29Z</time>
      </trkpt>
      <trkpt lat="45.44127" lon="5.90595">
        <ele>1128.4759521484</ele>
        <time>2017-05-29T11:52:42Z</time>
      </trkpt>
      <trkpt lat="45.44135" lon="5.90591">
        <ele>1126.4759521484</ele>
        <time>2017-05-29T11:52:50Z</time>
      </trkpt>
      <trkpt lat="45.44143" lon="5.90593">
        <ele>1129.4759521484</ele>
        <time>2017-05-29T11:52:56Z</time>
      </trkpt>
      <trkpt lat="45.44151" lon="5.90588">
        <ele>1118.4759521484</ele>
        <time>2017-05-29T11:53:25Z</time>
      </trkpt>
      <trkpt lat="45.44153" lon="5.90579">
        <ele>1111.4759521484</ele>
        <time>2017-05-29T11:53:41Z</time>
      </trkpt>
    </trkseg>
  </trk>
</gpx>